<?xml version="1.0" encoding="UTF-8" standalone="no" ?>
<gpx xmlns="http://www.topografix.com/GPX/1/1" xmlns:xsi="http://www.w3.org/2001/XMLSchema-instance" xsi:schemaLocation="http://www.topografix.com/GPX/1/1 http://www.topografix.com/GPX/1/1/gpx.xsd" version="1.1" creator="VisuGPX - https://www.visugpx.com">
  <metadata>
    <name>les singles du Mont Cindre</name>
    <desc><![CDATA[Montées-descentes dans les singles du mont Cindre]]></desc>
  </metadata>
  <trk>
    <name><![CDATA[2011-11-25T08:17:36Z]]></name>
    <trkseg>
      <trkpt lat="45.80399" lon="4.83128">
        <ele>238</ele>
        <time>2011-11-25T08:17:36Z</time>
      </trkpt>
      <trkpt lat="45.804" lon="4.83126">
        <ele>238</ele>
        <time>2011-11-25T08:17:37Z</time>
      </trkpt>
      <trkpt lat="45.80397" lon="4.83118">
        <ele>238</ele>
        <time>2011-11-25T08:17:40Z</time>
      </trkpt>
      <trkpt lat="45.80398" lon="4.83103">
        <ele>238</ele>
        <time>2011-11-25T08:17:44Z</time>
      </trkpt>
      <trkpt lat="45.80402" lon="4.83092">
        <ele>239</ele>
        <time>2011-11-25T08:17:47Z</time>
      </trkpt>
      <trkpt lat="45.80403" lon="4.83089">
        <ele>239</ele>
        <time>2011-11-25T08:17:48Z</time>
      </trkpt>
      <trkpt lat="45.80407" lon="4.83078">
        <ele>240</ele>
        <time>2011-11-25T08:17:51Z</time>
      </trkpt>
      <trkpt lat="45.8041" lon="4.83068">
        <ele>240</ele>
        <time>2011-11-25T08:17:54Z</time>
      </trkpt>
      <trkpt lat="45.80415" lon="4.83051">
        <ele>240</ele>
        <time>2011-11-25T08:17:59Z</time>
      </trkpt>
      <trkpt lat="45.80422" lon="4.83028">
        <ele>242</ele>
        <time>2011-11-25T08:18:06Z</time>
      </trkpt>
      <trkpt lat="45.80423" lon="4.83025">
        <ele>242</ele>
        <time>2011-11-25T08:18:07Z</time>
      </trkpt>
      <trkpt lat="45.8043" lon="4.83001">
        <ele>242</ele>
        <time>2011-11-25T08:18:14Z</time>
      </trkpt>
      <trkpt lat="45.80435" lon="4.82978">
        <ele>241</ele>
        <time>2011-11-25T08:18:21Z</time>
      </trkpt>
      <trkpt lat="45.80436" lon="4.82975">
        <ele>241</ele>
        <time>2011-11-25T08:18:22Z</time>
      </trkpt>
      <trkpt lat="45.80439" lon="4.82966">
        <ele>241</ele>
        <time>2011-11-25T08:18:25Z</time>
      </trkpt>
      <trkpt lat="45.80446" lon="4.8295">
        <ele>240</ele>
        <time>2011-11-25T08:18:30Z</time>
      </trkpt>
      <trkpt lat="45.80458" lon="4.82942">
        <ele>240</ele>
        <time>2011-11-25T08:18:35Z</time>
      </trkpt>
      <trkpt lat="45.80464" lon="4.82942">
        <ele>240</ele>
        <time>2011-11-25T08:18:37Z</time>
      </trkpt>
      <trkpt lat="45.80472" lon="4.82942">
        <ele>240</ele>
        <time>2011-11-25T08:18:40Z</time>
      </trkpt>
      <trkpt lat="45.80483" lon="4.82941">
        <ele>240</ele>
        <time>2011-11-25T08:18:44Z</time>
      </trkpt>
      <trkpt lat="45.80485" lon="4.82941">
        <ele>240</ele>
        <time>2011-11-25T08:18:45Z</time>
      </trkpt>
      <trkpt lat="45.80499" lon="4.8294">
        <ele>239</ele>
        <time>2011-11-25T08:18:50Z</time>
      </trkpt>
      <trkpt lat="45.80502" lon="4.8294">
        <ele>239</ele>
        <time>2011-11-25T08:18:51Z</time>
      </trkpt>
      <trkpt lat="45.80511" lon="4.8294">
        <ele>240</ele>
        <time>2011-11-25T08:18:55Z</time>
      </trkpt>
      <trkpt lat="45.80516" lon="4.82942">
        <ele>240</ele>
        <time>2011-11-25T08:18:57Z</time>
      </trkpt>
      <trkpt lat="45.80522" lon="4.82942">
        <ele>240</ele>
        <time>2011-11-25T08:18:59Z</time>
      </trkpt>
      <trkpt lat="45.80536" lon="4.82942">
        <ele>240</ele>
        <time>2011-11-25T08:19:04Z</time>
      </trkpt>
      <trkpt lat="45.80541" lon="4.82942">
        <ele>240</ele>
        <time>2011-11-25T08:19:06Z</time>
      </trkpt>
      <trkpt lat="45.8055" lon="4.82939">
        <ele>240</ele>
        <time>2011-11-25T08:19:09Z</time>
      </trkpt>
      <trkpt lat="45.8056" lon="4.82935">
        <ele>240</ele>
        <time>2011-11-25T08:19:13Z</time>
      </trkpt>
      <trkpt lat="45.80563" lon="4.82934">
        <ele>240</ele>
        <time>2011-11-25T08:19:14Z</time>
      </trkpt>
      <trkpt lat="45.80575" lon="4.8293">
        <ele>239</ele>
        <time>2011-11-25T08:19:19Z</time>
      </trkpt>
      <trkpt lat="45.8058" lon="4.82929">
        <ele>239</ele>
        <time>2011-11-25T08:19:21Z</time>
      </trkpt>
      <trkpt lat="45.80589" lon="4.82925">
        <ele>240</ele>
        <time>2011-11-25T08:19:25Z</time>
      </trkpt>
      <trkpt lat="45.80598" lon="4.82922">
        <ele>240</ele>
        <time>2011-11-25T08:19:28Z</time>
      </trkpt>
      <trkpt lat="45.80602" lon="4.8292">
        <ele>240</ele>
        <time>2011-11-25T08:19:30Z</time>
      </trkpt>
      <trkpt lat="45.80614" lon="4.82913">
        <ele>237</ele>
        <time>2011-11-25T08:19:35Z</time>
      </trkpt>
      <trkpt lat="45.80616" lon="4.82912">
        <ele>237</ele>
        <time>2011-11-25T08:19:36Z</time>
      </trkpt>
      <trkpt lat="45.80624" lon="4.82907">
        <ele>238</ele>
        <time>2011-11-25T08:19:39Z</time>
      </trkpt>
      <trkpt lat="45.80634" lon="4.82904">
        <ele>238</ele>
        <time>2011-11-25T08:19:43Z</time>
      </trkpt>
      <trkpt lat="45.80641" lon="4.82902">
        <ele>238</ele>
        <time>2011-11-25T08:19:46Z</time>
      </trkpt>
      <trkpt lat="45.80651" lon="4.82897">
        <ele>239</ele>
        <time>2011-11-25T08:19:50Z</time>
      </trkpt>
      <trkpt lat="45.80657" lon="4.82894">
        <ele>239</ele>
        <time>2011-11-25T08:19:52Z</time>
      </trkpt>
      <trkpt lat="45.80668" lon="4.8289">
        <ele>241</ele>
        <time>2011-11-25T08:19:56Z</time>
      </trkpt>
      <trkpt lat="45.80671" lon="4.82889">
        <ele>240</ele>
        <time>2011-11-25T08:19:57Z</time>
      </trkpt>
      <trkpt lat="45.80681" lon="4.82887">
        <ele>240</ele>
        <time>2011-11-25T08:20:01Z</time>
      </trkpt>
      <trkpt lat="45.80691" lon="4.8289">
        <ele>240</ele>
        <time>2011-11-25T08:20:05Z</time>
      </trkpt>
      <trkpt lat="45.80693" lon="4.8289">
        <ele>240</ele>
        <time>2011-11-25T08:20:06Z</time>
      </trkpt>
      <trkpt lat="45.80704" lon="4.82891">
        <ele>241</ele>
        <time>2011-11-25T08:20:11Z</time>
      </trkpt>
      <trkpt lat="45.80709" lon="4.82893">
        <ele>241</ele>
        <time>2011-11-25T08:20:13Z</time>
      </trkpt>
      <trkpt lat="45.80719" lon="4.82896">
        <ele>241</ele>
        <time>2011-11-25T08:20:17Z</time>
      </trkpt>
      <trkpt lat="45.80727" lon="4.829">
        <ele>241</ele>
        <time>2011-11-25T08:20:21Z</time>
      </trkpt>
      <trkpt lat="45.80729" lon="4.82901">
        <ele>241</ele>
        <time>2011-11-25T08:20:22Z</time>
      </trkpt>
      <trkpt lat="45.80736" lon="4.82907">
        <ele>241</ele>
        <time>2011-11-25T08:20:26Z</time>
      </trkpt>
      <trkpt lat="45.80744" lon="4.82909">
        <ele>242</ele>
        <time>2011-11-25T08:20:29Z</time>
      </trkpt>
      <trkpt lat="45.80753" lon="4.82915">
        <ele>242</ele>
        <time>2011-11-25T08:20:33Z</time>
      </trkpt>
      <trkpt lat="45.80763" lon="4.8292">
        <ele>243</ele>
        <time>2011-11-25T08:20:37Z</time>
      </trkpt>
      <trkpt lat="45.80776" lon="4.82929">
        <ele>244</ele>
        <time>2011-11-25T08:20:42Z</time>
      </trkpt>
      <trkpt lat="45.80781" lon="4.82933">
        <ele>244</ele>
        <time>2011-11-25T08:20:44Z</time>
      </trkpt>
      <trkpt lat="45.80788" lon="4.82936">
        <ele>244</ele>
        <time>2011-11-25T08:20:47Z</time>
      </trkpt>
      <trkpt lat="45.80799" lon="4.82939">
        <ele>244</ele>
        <time>2011-11-25T08:20:52Z</time>
      </trkpt>
      <trkpt lat="45.80815" lon="4.82944">
        <ele>244</ele>
        <time>2011-11-25T08:20:58Z</time>
      </trkpt>
      <trkpt lat="45.80817" lon="4.82945">
        <ele>244</ele>
        <time>2011-11-25T08:20:59Z</time>
      </trkpt>
      <trkpt lat="45.8083" lon="4.82948">
        <ele>244</ele>
        <time>2011-11-25T08:21:04Z</time>
      </trkpt>
      <trkpt lat="45.80835" lon="4.8295">
        <ele>245</ele>
        <time>2011-11-25T08:21:06Z</time>
      </trkpt>
      <trkpt lat="45.80845" lon="4.82952">
        <ele>245</ele>
        <time>2011-11-25T08:21:10Z</time>
      </trkpt>
      <trkpt lat="45.80854" lon="4.82956">
        <ele>246</ele>
        <time>2011-11-25T08:21:14Z</time>
      </trkpt>
      <trkpt lat="45.80859" lon="4.82958">
        <ele>246</ele>
        <time>2011-11-25T08:21:16Z</time>
      </trkpt>
      <trkpt lat="45.80874" lon="4.82962">
        <ele>246</ele>
        <time>2011-11-25T08:21:22Z</time>
      </trkpt>
      <trkpt lat="45.80882" lon="4.82967">
        <ele>246</ele>
        <time>2011-11-25T08:21:26Z</time>
      </trkpt>
      <trkpt lat="45.80893" lon="4.8297">
        <ele>247</ele>
        <time>2011-11-25T08:21:31Z</time>
      </trkpt>
      <trkpt lat="45.80895" lon="4.82971">
        <ele>247</ele>
        <time>2011-11-25T08:21:32Z</time>
      </trkpt>
      <trkpt lat="45.80912" lon="4.82974">
        <ele>247</ele>
        <time>2011-11-25T08:21:39Z</time>
      </trkpt>
      <trkpt lat="45.80928" lon="4.82976">
        <ele>248</ele>
        <time>2011-11-25T08:21:45Z</time>
      </trkpt>
      <trkpt lat="45.80933" lon="4.82975">
        <ele>248</ele>
        <time>2011-11-25T08:21:47Z</time>
      </trkpt>
      <trkpt lat="45.80937" lon="4.82973">
        <ele>248</ele>
        <time>2011-11-25T08:21:49Z</time>
      </trkpt>
      <trkpt lat="45.8095" lon="4.82974">
        <ele>248</ele>
        <time>2011-11-25T08:21:54Z</time>
      </trkpt>
      <trkpt lat="45.80952" lon="4.82974">
        <ele>248</ele>
        <time>2011-11-25T08:21:55Z</time>
      </trkpt>
      <trkpt lat="45.80963" lon="4.82975">
        <ele>249</ele>
        <time>2011-11-25T08:21:59Z</time>
      </trkpt>
      <trkpt lat="45.80972" lon="4.82976">
        <ele>249</ele>
        <time>2011-11-25T08:22:02Z</time>
      </trkpt>
      <trkpt lat="45.80977" lon="4.82976">
        <ele>249</ele>
        <time>2011-11-25T08:22:04Z</time>
      </trkpt>
      <trkpt lat="45.80992" lon="4.82975">
        <ele>249</ele>
        <time>2011-11-25T08:22:10Z</time>
      </trkpt>
      <trkpt lat="45.81005" lon="4.82975">
        <ele>249</ele>
        <time>2011-11-25T08:22:16Z</time>
      </trkpt>
      <trkpt lat="45.8101" lon="4.82976">
        <ele>249</ele>
        <time>2011-11-25T08:22:18Z</time>
      </trkpt>
      <trkpt lat="45.81017" lon="4.82977">
        <ele>249</ele>
        <time>2011-11-25T08:22:21Z</time>
      </trkpt>
      <trkpt lat="45.81026" lon="4.82984">
        <ele>249</ele>
        <time>2011-11-25T08:22:25Z</time>
      </trkpt>
      <trkpt lat="45.81027" lon="4.82987">
        <ele>249</ele>
        <time>2011-11-25T08:22:26Z</time>
      </trkpt>
      <trkpt lat="45.81028" lon="4.82998">
        <ele>250</ele>
        <time>2011-11-25T08:22:29Z</time>
      </trkpt>
      <trkpt lat="45.81028" lon="4.83009">
        <ele>250</ele>
        <time>2011-11-25T08:22:32Z</time>
      </trkpt>
      <trkpt lat="45.81028" lon="4.83016">
        <ele>250</ele>
        <time>2011-11-25T08:22:34Z</time>
      </trkpt>
      <trkpt lat="45.81029" lon="4.83028">
        <ele>250</ele>
        <time>2011-11-25T08:22:37Z</time>
      </trkpt>
      <trkpt lat="45.81032" lon="4.83042">
        <ele>250</ele>
        <time>2011-11-25T08:22:41Z</time>
      </trkpt>
      <trkpt lat="45.81034" lon="4.83059">
        <ele>251</ele>
        <time>2011-11-25T08:22:46Z</time>
      </trkpt>
      <trkpt lat="45.81042" lon="4.8306">
        <ele>251</ele>
        <time>2011-11-25T08:22:49Z</time>
      </trkpt>
      <trkpt lat="45.81045" lon="4.83059">
        <ele>251</ele>
        <time>2011-11-25T08:22:50Z</time>
      </trkpt>
      <trkpt lat="45.81061" lon="4.83055">
        <ele>251</ele>
        <time>2011-11-25T08:22:57Z</time>
      </trkpt>
      <trkpt lat="45.81071" lon="4.83052">
        <ele>251</ele>
        <time>2011-11-25T08:23:01Z</time>
      </trkpt>
      <trkpt lat="45.81081" lon="4.83049">
        <ele>251</ele>
        <time>2011-11-25T08:23:05Z</time>
      </trkpt>
      <trkpt lat="45.81087" lon="4.83049">
        <ele>252</ele>
        <time>2011-11-25T08:23:07Z</time>
      </trkpt>
      <trkpt lat="45.81101" lon="4.83047">
        <ele>252</ele>
        <time>2011-11-25T08:23:13Z</time>
      </trkpt>
      <trkpt lat="45.81103" lon="4.83046">
        <ele>252</ele>
        <time>2011-11-25T08:23:14Z</time>
      </trkpt>
      <trkpt lat="45.8112" lon="4.83041">
        <ele>253</ele>
        <time>2011-11-25T08:23:22Z</time>
      </trkpt>
      <trkpt lat="45.81131" lon="4.8304">
        <ele>253</ele>
        <time>2011-11-25T08:23:27Z</time>
      </trkpt>
      <trkpt lat="45.81138" lon="4.83039">
        <ele>253</ele>
        <time>2011-11-25T08:23:30Z</time>
      </trkpt>
      <trkpt lat="45.8115" lon="4.83035">
        <ele>253</ele>
        <time>2011-11-25T08:23:35Z</time>
      </trkpt>
      <trkpt lat="45.81158" lon="4.83034">
        <ele>253</ele>
        <time>2011-11-25T08:23:38Z</time>
      </trkpt>
      <trkpt lat="45.81165" lon="4.83033">
        <ele>253</ele>
        <time>2011-11-25T08:23:41Z</time>
      </trkpt>
      <trkpt lat="45.81176" lon="4.8303">
        <ele>256</ele>
        <time>2011-11-25T08:23:46Z</time>
      </trkpt>
      <trkpt lat="45.81178" lon="4.8303">
        <ele>256</ele>
        <time>2011-11-25T08:23:47Z</time>
      </trkpt>
      <trkpt lat="45.81186" lon="4.83028">
        <ele>256</ele>
        <time>2011-11-25T08:23:51Z</time>
      </trkpt>
      <trkpt lat="45.81191" lon="4.83025">
        <ele>257</ele>
        <time>2011-11-25T08:23:53Z</time>
      </trkpt>
      <trkpt lat="45.81193" lon="4.83024">
        <ele>257</ele>
        <time>2011-11-25T08:23:54Z</time>
      </trkpt>
      <trkpt lat="45.81196" lon="4.83024">
        <ele>257</ele>
        <time>2011-11-25T08:23:55Z</time>
      </trkpt>
      <trkpt lat="45.81204" lon="4.83023">
        <ele>257</ele>
        <time>2011-11-25T08:23:58Z</time>
      </trkpt>
      <trkpt lat="45.81213" lon="4.83018">
        <ele>257</ele>
        <time>2011-11-25T08:24:02Z</time>
      </trkpt>
      <trkpt lat="45.81218" lon="4.83017">
        <ele>258</ele>
        <time>2011-11-25T08:24:04Z</time>
      </trkpt>
      <trkpt lat="45.81232" lon="4.83014">
        <ele>258</ele>
        <time>2011-11-25T08:24:10Z</time>
      </trkpt>
      <trkpt lat="45.81234" lon="4.83015">
        <ele>258</ele>
        <time>2011-11-25T08:24:11Z</time>
      </trkpt>
      <trkpt lat="45.81251" lon="4.83011">
        <ele>261</ele>
        <time>2011-11-25T08:24:18Z</time>
      </trkpt>
      <trkpt lat="45.81267" lon="4.83005">
        <ele>261</ele>
        <time>2011-11-25T08:24:25Z</time>
      </trkpt>
      <trkpt lat="45.81269" lon="4.83005">
        <ele>261</ele>
        <time>2011-11-25T08:24:26Z</time>
      </trkpt>
      <trkpt lat="45.81282" lon="4.83">
        <ele>262</ele>
        <time>2011-11-25T08:24:31Z</time>
      </trkpt>
      <trkpt lat="45.81287" lon="4.82998">
        <ele>260</ele>
        <time>2011-11-25T08:24:33Z</time>
      </trkpt>
      <trkpt lat="45.81294" lon="4.82997">
        <ele>260</ele>
        <time>2011-11-25T08:24:36Z</time>
      </trkpt>
      <trkpt lat="45.81306" lon="4.82995">
        <ele>260</ele>
        <time>2011-11-25T08:24:41Z</time>
      </trkpt>
      <trkpt lat="45.81323" lon="4.82989">
        <ele>261</ele>
        <time>2011-11-25T08:24:48Z</time>
      </trkpt>
      <trkpt lat="45.81325" lon="4.82988">
        <ele>261</ele>
        <time>2011-11-25T08:24:49Z</time>
      </trkpt>
      <trkpt lat="45.81337" lon="4.82982">
        <ele>263</ele>
        <time>2011-11-25T08:24:54Z</time>
      </trkpt>
      <trkpt lat="45.81344" lon="4.82981">
        <ele>263</ele>
        <time>2011-11-25T08:24:57Z</time>
      </trkpt>
      <trkpt lat="45.81352" lon="4.82982">
        <ele>263</ele>
        <time>2011-11-25T08:25:00Z</time>
      </trkpt>
      <trkpt lat="45.81363" lon="4.82978">
        <ele>263</ele>
        <time>2011-11-25T08:25:05Z</time>
      </trkpt>
      <trkpt lat="45.81371" lon="4.82973">
        <ele>263</ele>
        <time>2011-11-25T08:25:09Z</time>
      </trkpt>
      <trkpt lat="45.81377" lon="4.82972">
        <ele>263</ele>
        <time>2011-11-25T08:25:12Z</time>
      </trkpt>
      <trkpt lat="45.81379" lon="4.82973">
        <ele>263</ele>
        <time>2011-11-25T08:25:13Z</time>
      </trkpt>
      <trkpt lat="45.81382" lon="4.82973">
        <ele>263</ele>
        <time>2011-11-25T08:25:14Z</time>
      </trkpt>
      <trkpt lat="45.81387" lon="4.82974">
        <ele>263</ele>
        <time>2011-11-25T08:25:16Z</time>
      </trkpt>
      <trkpt lat="45.81392" lon="4.82974">
        <ele>263</ele>
        <time>2011-11-25T08:25:18Z</time>
      </trkpt>
      <trkpt lat="45.81402" lon="4.82973">
        <ele>263</ele>
        <time>2011-11-25T08:25:22Z</time>
      </trkpt>
      <trkpt lat="45.81407" lon="4.82973">
        <ele>263</ele>
        <time>2011-11-25T08:25:24Z</time>
      </trkpt>
      <trkpt lat="45.81422" lon="4.82972">
        <ele>264</ele>
        <time>2011-11-25T08:25:30Z</time>
      </trkpt>
      <trkpt lat="45.81424" lon="4.82973">
        <ele>264</ele>
        <time>2011-11-25T08:25:31Z</time>
      </trkpt>
      <trkpt lat="45.81436" lon="4.82971">
        <ele>264</ele>
        <time>2011-11-25T08:25:36Z</time>
      </trkpt>
      <trkpt lat="45.81441" lon="4.8297">
        <ele>264</ele>
        <time>2011-11-25T08:25:38Z</time>
      </trkpt>
      <trkpt lat="45.81449" lon="4.82969">
        <ele>264</ele>
        <time>2011-11-25T08:25:41Z</time>
      </trkpt>
      <trkpt lat="45.8146" lon="4.82966">
        <ele>264</ele>
        <time>2011-11-25T08:25:46Z</time>
      </trkpt>
      <trkpt lat="45.81474" lon="4.82964">
        <ele>265</ele>
        <time>2011-11-25T08:25:52Z</time>
      </trkpt>
      <trkpt lat="45.8148" lon="4.82964">
        <ele>265</ele>
        <time>2011-11-25T08:25:54Z</time>
      </trkpt>
      <trkpt lat="45.81482" lon="4.82963">
        <ele>265</ele>
        <time>2011-11-25T08:25:55Z</time>
      </trkpt>
      <trkpt lat="45.81487" lon="4.82962">
        <ele>265</ele>
        <time>2011-11-25T08:25:57Z</time>
      </trkpt>
      <trkpt lat="45.81492" lon="4.82961">
        <ele>265</ele>
        <time>2011-11-25T08:25:59Z</time>
      </trkpt>
      <trkpt lat="45.81499" lon="4.8296">
        <ele>265</ele>
        <time>2011-11-25T08:26:02Z</time>
      </trkpt>
      <trkpt lat="45.81501" lon="4.8296">
        <ele>267</ele>
        <time>2011-11-25T08:26:03Z</time>
      </trkpt>
      <trkpt lat="45.81515" lon="4.82961">
        <ele>267</ele>
        <time>2011-11-25T08:26:09Z</time>
      </trkpt>
      <trkpt lat="45.81517" lon="4.82961">
        <ele>267</ele>
        <time>2011-11-25T08:26:10Z</time>
      </trkpt>
      <trkpt lat="45.81529" lon="4.82957">
        <ele>267</ele>
        <time>2011-11-25T08:26:15Z</time>
      </trkpt>
      <trkpt lat="45.81535" lon="4.82953">
        <ele>268</ele>
        <time>2011-11-25T08:26:18Z</time>
      </trkpt>
      <trkpt lat="45.81539" lon="4.8295">
        <ele>268</ele>
        <time>2011-11-25T08:26:20Z</time>
      </trkpt>
      <trkpt lat="45.81551" lon="4.82939">
        <ele>268</ele>
        <time>2011-11-25T08:26:26Z</time>
      </trkpt>
      <trkpt lat="45.81563" lon="4.82932">
        <ele>269</ele>
        <time>2011-11-25T08:26:32Z</time>
      </trkpt>
      <trkpt lat="45.81569" lon="4.82929">
        <ele>269</ele>
        <time>2011-11-25T08:26:35Z</time>
      </trkpt>
      <trkpt lat="45.81575" lon="4.82928">
        <ele>270</ele>
        <time>2011-11-25T08:26:38Z</time>
      </trkpt>
      <trkpt lat="45.81586" lon="4.82925">
        <ele>271</ele>
        <time>2011-11-25T08:26:43Z</time>
      </trkpt>
      <trkpt lat="45.81588" lon="4.82924">
        <ele>271</ele>
        <time>2011-11-25T08:26:44Z</time>
      </trkpt>
      <trkpt lat="45.816" lon="4.82919">
        <ele>272</ele>
        <time>2011-11-25T08:26:50Z</time>
      </trkpt>
      <trkpt lat="45.81605" lon="4.82918">
        <ele>272</ele>
        <time>2011-11-25T08:26:52Z</time>
      </trkpt>
      <trkpt lat="45.81616" lon="4.82914">
        <ele>273</ele>
        <time>2011-11-25T08:26:56Z</time>
      </trkpt>
      <trkpt lat="45.81623" lon="4.82911">
        <ele>274</ele>
        <time>2011-11-25T08:26:59Z</time>
      </trkpt>
      <trkpt lat="45.81629" lon="4.82909">
        <ele>274</ele>
        <time>2011-11-25T08:27:02Z</time>
      </trkpt>
      <trkpt lat="45.81639" lon="4.8292">
        <ele>273</ele>
        <time>2011-11-25T08:27:07Z</time>
      </trkpt>
      <trkpt lat="45.8164" lon="4.82922">
        <ele>273</ele>
        <time>2011-11-25T08:27:08Z</time>
      </trkpt>
      <trkpt lat="45.81648" lon="4.82935">
        <ele>273</ele>
        <time>2011-11-25T08:27:13Z</time>
      </trkpt>
      <trkpt lat="45.81651" lon="4.8294">
        <ele>273</ele>
        <time>2011-11-25T08:27:15Z</time>
      </trkpt>
      <trkpt lat="45.81656" lon="4.82948">
        <ele>273</ele>
        <time>2011-11-25T08:27:18Z</time>
      </trkpt>
      <trkpt lat="45.81668" lon="4.82956">
        <ele>274</ele>
        <time>2011-11-25T08:27:23Z</time>
      </trkpt>
      <trkpt lat="45.81676" lon="4.82957">
        <ele>274</ele>
        <time>2011-11-25T08:27:27Z</time>
      </trkpt>
      <trkpt lat="45.81686" lon="4.82958">
        <ele>274</ele>
        <time>2011-11-25T08:27:31Z</time>
      </trkpt>
      <trkpt lat="45.81689" lon="4.82958">
        <ele>274</ele>
        <time>2011-11-25T08:27:32Z</time>
      </trkpt>
      <trkpt lat="45.81699" lon="4.82958">
        <ele>274</ele>
        <time>2011-11-25T08:27:36Z</time>
      </trkpt>
      <trkpt lat="45.81701" lon="4.82956">
        <ele>274</ele>
        <time>2011-11-25T08:27:37Z</time>
      </trkpt>
      <trkpt lat="45.81705" lon="4.82952">
        <ele>274</ele>
        <time>2011-11-25T08:27:39Z</time>
      </trkpt>
      <trkpt lat="45.81708" lon="4.82951">
        <ele>274</ele>
        <time>2011-11-25T08:27:40Z</time>
      </trkpt>
      <trkpt lat="45.81712" lon="4.82951">
        <ele>275</ele>
        <time>2011-11-25T08:27:42Z</time>
      </trkpt>
      <trkpt lat="45.81725" lon="4.82951">
        <ele>275</ele>
        <time>2011-11-25T08:27:47Z</time>
      </trkpt>
      <trkpt lat="45.81727" lon="4.82952">
        <ele>275</ele>
        <time>2011-11-25T08:27:48Z</time>
      </trkpt>
      <trkpt lat="45.81739" lon="4.82953">
        <ele>275</ele>
        <time>2011-11-25T08:27:53Z</time>
      </trkpt>
      <trkpt lat="45.81744" lon="4.82954">
        <ele>275</ele>
        <time>2011-11-25T08:27:55Z</time>
      </trkpt>
      <trkpt lat="45.81755" lon="4.82954">
        <ele>277</ele>
        <time>2011-11-25T08:27:59Z</time>
      </trkpt>
      <trkpt lat="45.81763" lon="4.82955">
        <ele>277</ele>
        <time>2011-11-25T08:28:02Z</time>
      </trkpt>
      <trkpt lat="45.81769" lon="4.82955">
        <ele>277</ele>
        <time>2011-11-25T08:28:04Z</time>
      </trkpt>
      <trkpt lat="45.81783" lon="4.82959">
        <ele>277</ele>
        <time>2011-11-25T08:28:10Z</time>
      </trkpt>
      <trkpt lat="45.81798" lon="4.82964">
        <ele>277</ele>
        <time>2011-11-25T08:28:16Z</time>
      </trkpt>
      <trkpt lat="45.81801" lon="4.82964">
        <ele>277</ele>
        <time>2011-11-25T08:28:17Z</time>
      </trkpt>
      <trkpt lat="45.81811" lon="4.82965">
        <ele>277</ele>
        <time>2011-11-25T08:28:20Z</time>
      </trkpt>
      <trkpt lat="45.81821" lon="4.82963">
        <ele>277</ele>
        <time>2011-11-25T08:28:24Z</time>
      </trkpt>
      <trkpt lat="45.81822" lon="4.82961">
        <ele>277</ele>
        <time>2011-11-25T08:28:25Z</time>
      </trkpt>
      <trkpt lat="45.81828" lon="4.82949">
        <ele>278</ele>
        <time>2011-11-25T08:28:30Z</time>
      </trkpt>
      <trkpt lat="45.81832" lon="4.82941">
        <ele>279</ele>
        <time>2011-11-25T08:28:34Z</time>
      </trkpt>
      <trkpt lat="45.81835" lon="4.82937">
        <ele>281</ele>
        <time>2011-11-25T08:28:36Z</time>
      </trkpt>
      <trkpt lat="45.81843" lon="4.82925">
        <ele>282</ele>
        <time>2011-11-25T08:28:41Z</time>
      </trkpt>
      <trkpt lat="45.81845" lon="4.8292">
        <ele>282</ele>
        <time>2011-11-25T08:28:43Z</time>
      </trkpt>
      <trkpt lat="45.81849" lon="4.8291">
        <ele>285</ele>
        <time>2011-11-25T08:28:47Z</time>
      </trkpt>
      <trkpt lat="45.81859" lon="4.82898">
        <ele>286</ele>
        <time>2011-11-25T08:28:52Z</time>
      </trkpt>
      <trkpt lat="45.81864" lon="4.82897">
        <ele>286</ele>
        <time>2011-11-25T08:28:53Z</time>
      </trkpt>
      <trkpt lat="45.81871" lon="4.82888">
        <ele>286</ele>
        <time>2011-11-25T08:28:58Z</time>
      </trkpt>
      <trkpt lat="45.81872" lon="4.82879">
        <ele>287</ele>
        <time>2011-11-25T08:29:01Z</time>
      </trkpt>
      <trkpt lat="45.81872" lon="4.82877">
        <ele>287</ele>
        <time>2011-11-25T08:29:02Z</time>
      </trkpt>
      <trkpt lat="45.81878" lon="4.82866">
        <ele>287</ele>
        <time>2011-11-25T08:29:08Z</time>
      </trkpt>
      <trkpt lat="45.8188" lon="4.8286">
        <ele>288</ele>
        <time>2011-11-25T08:29:10Z</time>
      </trkpt>
      <trkpt lat="45.81882" lon="4.82855">
        <ele>288</ele>
        <time>2011-11-25T08:29:12Z</time>
      </trkpt>
      <trkpt lat="45.81884" lon="4.82854">
        <ele>288</ele>
        <time>2011-11-25T08:29:13Z</time>
      </trkpt>
      <trkpt lat="45.81887" lon="4.82851">
        <ele>288</ele>
        <time>2011-11-25T08:29:16Z</time>
      </trkpt>
      <trkpt lat="45.81889" lon="4.82851">
        <ele>288</ele>
        <time>2011-11-25T08:29:17Z</time>
      </trkpt>
      <trkpt lat="45.81898" lon="4.82852">
        <ele>288</ele>
        <time>2011-11-25T08:29:21Z</time>
      </trkpt>
      <trkpt lat="45.819" lon="4.82853">
        <ele>288</ele>
        <time>2011-11-25T08:29:22Z</time>
      </trkpt>
      <trkpt lat="45.81904" lon="4.82857">
        <ele>288</ele>
        <time>2011-11-25T08:29:25Z</time>
      </trkpt>
      <trkpt lat="45.81908" lon="4.82858">
        <ele>288</ele>
        <time>2011-11-25T08:29:28Z</time>
      </trkpt>
      <trkpt lat="45.81915" lon="4.82861">
        <ele>288</ele>
        <time>2011-11-25T08:29:31Z</time>
      </trkpt>
      <trkpt lat="45.81917" lon="4.82862">
        <ele>290</ele>
        <time>2011-11-25T08:29:32Z</time>
      </trkpt>
      <trkpt lat="45.81919" lon="4.82863">
        <ele>290</ele>
        <time>2011-11-25T08:29:33Z</time>
      </trkpt>
      <trkpt lat="45.81927" lon="4.82865">
        <ele>290</ele>
        <time>2011-11-25T08:29:37Z</time>
      </trkpt>
      <trkpt lat="45.81936" lon="4.82866">
        <ele>290</ele>
        <time>2011-11-25T08:29:42Z</time>
      </trkpt>
      <trkpt lat="45.8195" lon="4.82866">
        <ele>290</ele>
        <time>2011-11-25T08:29:48Z</time>
      </trkpt>
      <trkpt lat="45.81956" lon="4.82865">
        <ele>291</ele>
        <time>2011-11-25T08:29:51Z</time>
      </trkpt>
      <trkpt lat="45.81961" lon="4.82865">
        <ele>291</ele>
        <time>2011-11-25T08:29:53Z</time>
      </trkpt>
      <trkpt lat="45.81975" lon="4.82864">
        <ele>292</ele>
        <time>2011-11-25T08:30:00Z</time>
      </trkpt>
      <trkpt lat="45.81977" lon="4.82864">
        <ele>292</ele>
        <time>2011-11-25T08:30:01Z</time>
      </trkpt>
      <trkpt lat="45.81988" lon="4.82863">
        <ele>292</ele>
        <time>2011-11-25T08:30:07Z</time>
      </trkpt>
      <trkpt lat="45.81994" lon="4.82862">
        <ele>293</ele>
        <time>2011-11-25T08:30:10Z</time>
      </trkpt>
      <trkpt lat="45.81998" lon="4.82861">
        <ele>293</ele>
        <time>2011-11-25T08:30:12Z</time>
      </trkpt>
      <trkpt lat="45.82005" lon="4.82862">
        <ele>297</ele>
        <time>2011-11-25T08:30:16Z</time>
      </trkpt>
      <trkpt lat="45.82013" lon="4.82862">
        <ele>297</ele>
        <time>2011-11-25T08:30:20Z</time>
      </trkpt>
      <trkpt lat="45.82019" lon="4.82861">
        <ele>298</ele>
        <time>2011-11-25T08:30:23Z</time>
      </trkpt>
      <trkpt lat="45.82031" lon="4.8286">
        <ele>298</ele>
        <time>2011-11-25T08:30:29Z</time>
      </trkpt>
      <trkpt lat="45.82033" lon="4.8286">
        <ele>298</ele>
        <time>2011-11-25T08:30:30Z</time>
      </trkpt>
      <trkpt lat="45.82043" lon="4.82857">
        <ele>299</ele>
        <time>2011-11-25T08:30:35Z</time>
      </trkpt>
      <trkpt lat="45.82051" lon="4.82859">
        <ele>300</ele>
        <time>2011-11-25T08:30:39Z</time>
      </trkpt>
      <trkpt lat="45.82055" lon="4.8286">
        <ele>300</ele>
        <time>2011-11-25T08:30:41Z</time>
      </trkpt>
      <trkpt lat="45.82064" lon="4.82865">
        <ele>300</ele>
        <time>2011-11-25T08:30:46Z</time>
      </trkpt>
      <trkpt lat="45.82069" lon="4.82869">
        <ele>300</ele>
        <time>2011-11-25T08:30:49Z</time>
      </trkpt>
      <trkpt lat="45.82077" lon="4.82871">
        <ele>300</ele>
        <time>2011-11-25T08:30:53Z</time>
      </trkpt>
      <trkpt lat="45.82086" lon="4.82876">
        <ele>305</ele>
        <time>2011-11-25T08:30:58Z</time>
      </trkpt>
      <trkpt lat="45.82088" lon="4.82876">
        <ele>305</ele>
        <time>2011-11-25T08:30:59Z</time>
      </trkpt>
      <trkpt lat="45.82097" lon="4.82878">
        <ele>306</ele>
        <time>2011-11-25T08:31:03Z</time>
      </trkpt>
      <trkpt lat="45.82108" lon="4.82881">
        <ele>306</ele>
        <time>2011-11-25T08:31:08Z</time>
      </trkpt>
      <trkpt lat="45.82118" lon="4.82883">
        <ele>306</ele>
        <time>2011-11-25T08:31:13Z</time>
      </trkpt>
      <trkpt lat="45.82127" lon="4.82888">
        <ele>306</ele>
        <time>2011-11-25T08:31:18Z</time>
      </trkpt>
      <trkpt lat="45.8213" lon="4.82889">
        <ele>307</ele>
        <time>2011-11-25T08:31:20Z</time>
      </trkpt>
      <trkpt lat="45.82141" lon="4.82893">
        <ele>307</ele>
        <time>2011-11-25T08:31:25Z</time>
      </trkpt>
      <trkpt lat="45.82146" lon="4.82895">
        <ele>307</ele>
        <time>2011-11-25T08:31:27Z</time>
      </trkpt>
      <trkpt lat="45.82151" lon="4.82896">
        <ele>307</ele>
        <time>2011-11-25T08:31:29Z</time>
      </trkpt>
      <trkpt lat="45.82165" lon="4.82899">
        <ele>307</ele>
        <time>2011-11-25T08:31:35Z</time>
      </trkpt>
      <trkpt lat="45.82177" lon="4.82901">
        <ele>310</ele>
        <time>2011-11-25T08:31:40Z</time>
      </trkpt>
      <trkpt lat="45.82183" lon="4.82904">
        <ele>310</ele>
        <time>2011-11-25T08:31:43Z</time>
      </trkpt>
      <trkpt lat="45.82192" lon="4.82906">
        <ele>311</ele>
        <time>2011-11-25T08:31:47Z</time>
      </trkpt>
      <trkpt lat="45.82201" lon="4.8291">
        <ele>312</ele>
        <time>2011-11-25T08:31:51Z</time>
      </trkpt>
      <trkpt lat="45.82213" lon="4.82916">
        <ele>312</ele>
        <time>2011-11-25T08:31:56Z</time>
      </trkpt>
      <trkpt lat="45.82219" lon="4.82919">
        <ele>303</ele>
        <time>2011-11-25T08:31:59Z</time>
      </trkpt>
      <trkpt lat="45.82224" lon="4.8292">
        <ele>303</ele>
        <time>2011-11-25T08:32:01Z</time>
      </trkpt>
      <trkpt lat="45.82232" lon="4.82918">
        <ele>305</ele>
        <time>2011-11-25T08:32:05Z</time>
      </trkpt>
      <trkpt lat="45.82237" lon="4.82915">
        <ele>312</ele>
        <time>2011-11-25T08:32:07Z</time>
      </trkpt>
      <trkpt lat="45.82248" lon="4.82911">
        <ele>311</ele>
        <time>2011-11-25T08:32:11Z</time>
      </trkpt>
      <trkpt lat="45.82256" lon="4.82908">
        <ele>312</ele>
        <time>2011-11-25T08:32:14Z</time>
      </trkpt>
      <trkpt lat="45.82262" lon="4.82904">
        <ele>313</ele>
        <time>2011-11-25T08:32:16Z</time>
      </trkpt>
      <trkpt lat="45.82272" lon="4.82893">
        <ele>314</ele>
        <time>2011-11-25T08:32:21Z</time>
      </trkpt>
      <trkpt lat="45.82278" lon="4.8289">
        <ele>315</ele>
        <time>2011-11-25T08:32:24Z</time>
      </trkpt>
      <trkpt lat="45.82282" lon="4.8289">
        <ele>315</ele>
        <time>2011-11-25T08:32:26Z</time>
      </trkpt>
      <trkpt lat="45.82291" lon="4.8289">
        <ele>315</ele>
        <time>2011-11-25T08:32:30Z</time>
      </trkpt>
      <trkpt lat="45.82299" lon="4.8289">
        <ele>315</ele>
        <time>2011-11-25T08:32:33Z</time>
      </trkpt>
      <trkpt lat="45.82311" lon="4.82894">
        <ele>314</ele>
        <time>2011-11-25T08:32:38Z</time>
      </trkpt>
      <trkpt lat="45.82323" lon="4.82899">
        <ele>312</ele>
        <time>2011-11-25T08:32:43Z</time>
      </trkpt>
      <trkpt lat="45.82328" lon="4.829">
        <ele>312</ele>
        <time>2011-11-25T08:32:45Z</time>
      </trkpt>
      <trkpt lat="45.82334" lon="4.82902">
        <ele>312</ele>
        <time>2011-11-25T08:32:47Z</time>
      </trkpt>
      <trkpt lat="45.82348" lon="4.82902">
        <ele>313</ele>
        <time>2011-11-25T08:32:52Z</time>
      </trkpt>
      <trkpt lat="45.82362" lon="4.82905">
        <ele>314</ele>
        <time>2011-11-25T08:32:58Z</time>
      </trkpt>
      <trkpt lat="45.82367" lon="4.82906">
        <ele>314</ele>
        <time>2011-11-25T08:33:00Z</time>
      </trkpt>
      <trkpt lat="45.82372" lon="4.8291">
        <ele>314</ele>
        <time>2011-11-25T08:33:03Z</time>
      </trkpt>
      <trkpt lat="45.82374" lon="4.82912">
        <ele>314</ele>
        <time>2011-11-25T08:33:04Z</time>
      </trkpt>
      <trkpt lat="45.82385" lon="4.82919">
        <ele>304</ele>
        <time>2011-11-25T08:33:08Z</time>
      </trkpt>
      <trkpt lat="45.8239" lon="4.82922">
        <ele>305</ele>
        <time>2011-11-25T08:33:10Z</time>
      </trkpt>
      <trkpt lat="45.824" lon="4.82927">
        <ele>305</ele>
        <time>2011-11-25T08:33:14Z</time>
      </trkpt>
      <trkpt lat="45.82402" lon="4.82929">
        <ele>305</ele>
        <time>2011-11-25T08:33:15Z</time>
      </trkpt>
      <trkpt lat="45.82416" lon="4.82933">
        <ele>306</ele>
        <time>2011-11-25T08:33:20Z</time>
      </trkpt>
      <trkpt lat="45.82421" lon="4.82932">
        <ele>307</ele>
        <time>2011-11-25T08:33:22Z</time>
      </trkpt>
      <trkpt lat="45.82431" lon="4.82927">
        <ele>307</ele>
        <time>2011-11-25T08:33:26Z</time>
      </trkpt>
      <trkpt lat="45.82432" lon="4.82926">
        <ele>307</ele>
        <time>2011-11-25T08:33:27Z</time>
      </trkpt>
      <trkpt lat="45.82437" lon="4.82922">
        <ele>307</ele>
        <time>2011-11-25T08:33:30Z</time>
      </trkpt>
      <trkpt lat="45.82439" lon="4.82921">
        <ele>307</ele>
        <time>2011-11-25T08:33:31Z</time>
      </trkpt>
      <trkpt lat="45.82442" lon="4.82919">
        <ele>307</ele>
        <time>2011-11-25T08:33:32Z</time>
      </trkpt>
      <trkpt lat="45.82446" lon="4.82915">
        <ele>317</ele>
        <time>2011-11-25T08:33:34Z</time>
      </trkpt>
      <trkpt lat="45.82457" lon="4.82911">
        <ele>318</ele>
        <time>2011-11-25T08:33:39Z</time>
      </trkpt>
      <trkpt lat="45.82459" lon="4.82909">
        <ele>318</ele>
        <time>2011-11-25T08:33:40Z</time>
      </trkpt>
      <trkpt lat="45.82471" lon="4.82907">
        <ele>319</ele>
        <time>2011-11-25T08:33:45Z</time>
      </trkpt>
      <trkpt lat="45.82476" lon="4.82905">
        <ele>319</ele>
        <time>2011-11-25T08:33:47Z</time>
      </trkpt>
      <trkpt lat="45.82481" lon="4.82904">
        <ele>318</ele>
        <time>2011-11-25T08:33:50Z</time>
      </trkpt>
      <trkpt lat="45.8249" lon="4.829">
        <ele>318</ele>
        <time>2011-11-25T08:33:55Z</time>
      </trkpt>
      <trkpt lat="45.82493" lon="4.829">
        <ele>318</ele>
        <time>2011-11-25T08:33:57Z</time>
      </trkpt>
      <trkpt lat="45.82501" lon="4.82902">
        <ele>320</ele>
        <time>2011-11-25T08:34:00Z</time>
      </trkpt>
      <trkpt lat="45.82511" lon="4.829">
        <ele>321</ele>
        <time>2011-11-25T08:34:04Z</time>
      </trkpt>
      <trkpt lat="45.82515" lon="4.829">
        <ele>322</ele>
        <time>2011-11-25T08:34:06Z</time>
      </trkpt>
      <trkpt lat="45.82523" lon="4.82905">
        <ele>322</ele>
        <time>2011-11-25T08:34:10Z</time>
      </trkpt>
      <trkpt lat="45.82529" lon="4.8291">
        <ele>323</ele>
        <time>2011-11-25T08:34:13Z</time>
      </trkpt>
      <trkpt lat="45.82533" lon="4.82913">
        <ele>323</ele>
        <time>2011-11-25T08:34:16Z</time>
      </trkpt>
      <trkpt lat="45.82536" lon="4.82917">
        <ele>314</ele>
        <time>2011-11-25T08:34:20Z</time>
      </trkpt>
      <trkpt lat="45.82537" lon="4.82919">
        <ele>314</ele>
        <time>2011-11-25T08:34:22Z</time>
      </trkpt>
      <trkpt lat="45.82543" lon="4.82917">
        <ele>314</ele>
        <time>2011-11-25T08:34:26Z</time>
      </trkpt>
      <trkpt lat="45.82544" lon="4.82917">
        <ele>324</ele>
        <time>2011-11-25T08:34:27Z</time>
      </trkpt>
      <trkpt lat="45.82545" lon="4.82914">
        <ele>324</ele>
        <time>2011-11-25T08:34:28Z</time>
      </trkpt>
      <trkpt lat="45.82547" lon="4.8291">
        <ele>325</ele>
        <time>2011-11-25T08:34:31Z</time>
      </trkpt>
      <trkpt lat="45.82548" lon="4.82907">
        <ele>325</ele>
        <time>2011-11-25T08:34:33Z</time>
      </trkpt>
      <trkpt lat="45.8255" lon="4.82904">
        <ele>325</ele>
        <time>2011-11-25T08:34:35Z</time>
      </trkpt>
      <trkpt lat="45.8255" lon="4.82903">
        <ele>325</ele>
        <time>2011-11-25T08:34:36Z</time>
      </trkpt>
      <trkpt lat="45.82553" lon="4.82891">
        <ele>326</ele>
        <time>2011-11-25T08:34:42Z</time>
      </trkpt>
      <trkpt lat="45.82553" lon="4.8289">
        <ele>326</ele>
        <time>2011-11-25T08:34:43Z</time>
      </trkpt>
      <trkpt lat="45.82555" lon="4.82879">
        <ele>327</ele>
        <time>2011-11-25T08:34:48Z</time>
      </trkpt>
      <trkpt lat="45.82554" lon="4.82866">
        <ele>328</ele>
        <time>2011-11-25T08:34:54Z</time>
      </trkpt>
      <trkpt lat="45.82554" lon="4.82863">
        <ele>329</ele>
        <time>2011-11-25T08:34:55Z</time>
      </trkpt>
      <trkpt lat="45.82553" lon="4.82854">
        <ele>329</ele>
        <time>2011-11-25T08:34:59Z</time>
      </trkpt>
      <trkpt lat="45.82547" lon="4.8284">
        <ele>330</ele>
        <time>2011-11-25T08:35:05Z</time>
      </trkpt>
      <trkpt lat="45.82547" lon="4.82839">
        <ele>330</ele>
        <time>2011-11-25T08:35:06Z</time>
      </trkpt>
      <trkpt lat="45.82545" lon="4.82829">
        <ele>339</ele>
        <time>2011-11-25T08:35:10Z</time>
      </trkpt>
      <trkpt lat="45.82539" lon="4.82815">
        <ele>339</ele>
        <time>2011-11-25T08:35:16Z</time>
      </trkpt>
      <trkpt lat="45.82538" lon="4.82811">
        <ele>339</ele>
        <time>2011-11-25T08:35:18Z</time>
      </trkpt>
      <trkpt lat="45.82534" lon="4.82802">
        <ele>340</ele>
        <time>2011-11-25T08:35:23Z</time>
      </trkpt>
      <trkpt lat="45.82531" lon="4.82798">
        <ele>340</ele>
        <time>2011-11-25T08:35:25Z</time>
      </trkpt>
      <trkpt lat="45.82532" lon="4.82791">
        <ele>340</ele>
        <time>2011-11-25T08:35:28Z</time>
      </trkpt>
      <trkpt lat="45.82534" lon="4.82782">
        <ele>341</ele>
        <time>2011-11-25T08:35:32Z</time>
      </trkpt>
      <trkpt lat="45.82533" lon="4.8278">
        <ele>341</ele>
        <time>2011-11-25T08:35:33Z</time>
      </trkpt>
      <trkpt lat="45.8253" lon="4.82767">
        <ele>342</ele>
        <time>2011-11-25T08:35:39Z</time>
      </trkpt>
      <trkpt lat="45.82529" lon="4.82765">
        <ele>342</ele>
        <time>2011-11-25T08:35:40Z</time>
      </trkpt>
      <trkpt lat="45.8253" lon="4.82756">
        <ele>342</ele>
        <time>2011-11-25T08:35:44Z</time>
      </trkpt>
      <trkpt lat="45.82527" lon="4.8274">
        <ele>351</ele>
        <time>2011-11-25T08:35:50Z</time>
      </trkpt>
      <trkpt lat="45.82527" lon="4.82738">
        <ele>351</ele>
        <time>2011-11-25T08:35:51Z</time>
      </trkpt>
      <trkpt lat="45.82523" lon="4.82728">
        <ele>352</ele>
        <time>2011-11-25T08:35:55Z</time>
      </trkpt>
      <trkpt lat="45.82523" lon="4.82726">
        <ele>352</ele>
        <time>2011-11-25T08:35:56Z</time>
      </trkpt>
      <trkpt lat="45.82523" lon="4.82716">
        <ele>353</ele>
        <time>2011-11-25T08:36:00Z</time>
      </trkpt>
      <trkpt lat="45.82524" lon="4.82712">
        <ele>354</ele>
        <time>2011-11-25T08:36:02Z</time>
      </trkpt>
      <trkpt lat="45.82525" lon="4.8271">
        <ele>354</ele>
        <time>2011-11-25T08:36:03Z</time>
      </trkpt>
      <trkpt lat="45.82531" lon="4.82707">
        <ele>354</ele>
        <time>2011-11-25T08:36:06Z</time>
      </trkpt>
      <trkpt lat="45.82538" lon="4.82704">
        <ele>355</ele>
        <time>2011-11-25T08:36:11Z</time>
      </trkpt>
      <trkpt lat="45.82541" lon="4.82705">
        <ele>355</ele>
        <time>2011-11-25T08:36:13Z</time>
      </trkpt>
      <trkpt lat="45.82544" lon="4.82706">
        <ele>355</ele>
        <time>2011-11-25T08:36:15Z</time>
      </trkpt>
      <trkpt lat="45.82546" lon="4.82706">
        <ele>355</ele>
        <time>2011-11-25T08:36:16Z</time>
      </trkpt>
      <trkpt lat="45.82558" lon="4.8271">
        <ele>355</ele>
        <time>2011-11-25T08:36:23Z</time>
      </trkpt>
      <trkpt lat="45.8256" lon="4.8271">
        <ele>355</ele>
        <time>2011-11-25T08:36:24Z</time>
      </trkpt>
      <trkpt lat="45.82562" lon="4.82712">
        <ele>354</ele>
        <time>2011-11-25T08:36:25Z</time>
      </trkpt>
      <trkpt lat="45.82564" lon="4.82713">
        <ele>354</ele>
        <time>2011-11-25T08:36:27Z</time>
      </trkpt>
      <trkpt lat="45.82572" lon="4.82714">
        <ele>354</ele>
        <time>2011-11-25T08:36:31Z</time>
      </trkpt>
      <trkpt lat="45.82577" lon="4.82716">
        <ele>354</ele>
        <time>2011-11-25T08:36:34Z</time>
      </trkpt>
      <trkpt lat="45.8258" lon="4.82718">
        <ele>354</ele>
        <time>2011-11-25T08:36:36Z</time>
      </trkpt>
      <trkpt lat="45.82591" lon="4.82721">
        <ele>359</ele>
        <time>2011-11-25T08:36:42Z</time>
      </trkpt>
      <trkpt lat="45.82595" lon="4.82722">
        <ele>360</ele>
        <time>2011-11-25T08:36:44Z</time>
      </trkpt>
      <trkpt lat="45.82602" lon="4.82723">
        <ele>360</ele>
        <time>2011-11-25T08:36:48Z</time>
      </trkpt>
      <trkpt lat="45.82611" lon="4.82726">
        <ele>361</ele>
        <time>2011-11-25T08:36:53Z</time>
      </trkpt>
      <trkpt lat="45.82613" lon="4.82728">
        <ele>361</ele>
        <time>2011-11-25T08:36:55Z</time>
      </trkpt>
      <trkpt lat="45.82622" lon="4.82733">
        <ele>362</ele>
        <time>2011-11-25T08:36:59Z</time>
      </trkpt>
      <trkpt lat="45.82629" lon="4.82742">
        <ele>362</ele>
        <time>2011-11-25T08:37:04Z</time>
      </trkpt>
      <trkpt lat="45.82631" lon="4.82743">
        <ele>362</ele>
        <time>2011-11-25T08:37:05Z</time>
      </trkpt>
      <trkpt lat="45.82642" lon="4.82754">
        <ele>354</ele>
        <time>2011-11-25T08:37:11Z</time>
      </trkpt>
      <trkpt lat="45.82645" lon="4.82757">
        <ele>355</ele>
        <time>2011-11-25T08:37:13Z</time>
      </trkpt>
      <trkpt lat="45.82652" lon="4.82764">
        <ele>355</ele>
        <time>2011-11-25T08:37:17Z</time>
      </trkpt>
      <trkpt lat="45.82661" lon="4.82773">
        <ele>355</ele>
        <time>2011-11-25T08:37:23Z</time>
      </trkpt>
      <trkpt lat="45.82662" lon="4.82774">
        <ele>355</ele>
        <time>2011-11-25T08:37:24Z</time>
      </trkpt>
      <trkpt lat="45.82668" lon="4.8278">
        <ele>365</ele>
        <time>2011-11-25T08:37:28Z</time>
      </trkpt>
      <trkpt lat="45.82671" lon="4.82783">
        <ele>365</ele>
        <time>2011-11-25T08:37:30Z</time>
      </trkpt>
      <trkpt lat="45.82677" lon="4.82788">
        <ele>364</ele>
        <time>2011-11-25T08:37:34Z</time>
      </trkpt>
      <trkpt lat="45.82679" lon="4.82789">
        <ele>365</ele>
        <time>2011-11-25T08:37:35Z</time>
      </trkpt>
      <trkpt lat="45.82682" lon="4.82791">
        <ele>365</ele>
        <time>2011-11-25T08:37:37Z</time>
      </trkpt>
      <trkpt lat="45.82686" lon="4.82793">
        <ele>365</ele>
        <time>2011-11-25T08:37:39Z</time>
      </trkpt>
      <trkpt lat="45.82689" lon="4.82795">
        <ele>365</ele>
        <time>2011-11-25T08:37:42Z</time>
      </trkpt>
      <trkpt lat="45.82693" lon="4.82799">
        <ele>365</ele>
        <time>2011-11-25T08:37:46Z</time>
      </trkpt>
      <trkpt lat="45.82695" lon="4.82799">
        <ele>365</ele>
        <time>2011-11-25T08:37:47Z</time>
      </trkpt>
      <trkpt lat="45.82696" lon="4.82799">
        <ele>365</ele>
        <time>2011-11-25T08:37:48Z</time>
      </trkpt>
      <trkpt lat="45.82698" lon="4.82798">
        <ele>366</ele>
        <time>2011-11-25T08:37:50Z</time>
      </trkpt>
      <trkpt lat="45.82698" lon="4.82795">
        <ele>366</ele>
        <time>2011-11-25T08:37:55Z</time>
      </trkpt>
      <trkpt lat="45.82699" lon="4.82795">
        <ele>366</ele>
        <time>2011-11-25T08:37:56Z</time>
      </trkpt>
      <trkpt lat="45.82705" lon="4.82798">
        <ele>366</ele>
        <time>2011-11-25T08:37:59Z</time>
      </trkpt>
      <trkpt lat="45.82708" lon="4.82798">
        <ele>367</ele>
        <time>2011-11-25T08:38:01Z</time>
      </trkpt>
      <trkpt lat="45.82712" lon="4.82795">
        <ele>368</ele>
        <time>2011-11-25T08:38:03Z</time>
      </trkpt>
      <trkpt lat="45.82716" lon="4.82795">
        <ele>368</ele>
        <time>2011-11-25T08:38:05Z</time>
      </trkpt>
      <trkpt lat="45.8272" lon="4.82794">
        <ele>369</ele>
        <time>2011-11-25T08:38:07Z</time>
      </trkpt>
      <trkpt lat="45.82726" lon="4.82794">
        <ele>369</ele>
        <time>2011-11-25T08:38:09Z</time>
      </trkpt>
      <trkpt lat="45.82734" lon="4.82797">
        <ele>370</ele>
        <time>2011-11-25T08:38:13Z</time>
      </trkpt>
      <trkpt lat="45.82739" lon="4.82798">
        <ele>370</ele>
        <time>2011-11-25T08:38:16Z</time>
      </trkpt>
      <trkpt lat="45.82741" lon="4.82798">
        <ele>370</ele>
        <time>2011-11-25T08:38:17Z</time>
      </trkpt>
      <trkpt lat="45.82745" lon="4.82798">
        <ele>370</ele>
        <time>2011-11-25T08:38:19Z</time>
      </trkpt>
      <trkpt lat="45.82747" lon="4.82801">
        <ele>370</ele>
        <time>2011-11-25T08:38:21Z</time>
      </trkpt>
      <trkpt lat="45.82748" lon="4.82803">
        <ele>370</ele>
        <time>2011-11-25T08:38:22Z</time>
      </trkpt>
      <trkpt lat="45.82753" lon="4.82807">
        <ele>377</ele>
        <time>2011-11-25T08:38:24Z</time>
      </trkpt>
      <trkpt lat="45.82756" lon="4.82809">
        <ele>377</ele>
        <time>2011-11-25T08:38:26Z</time>
      </trkpt>
      <trkpt lat="45.8276" lon="4.82812">
        <ele>376</ele>
        <time>2011-11-25T08:38:29Z</time>
      </trkpt>
      <trkpt lat="45.82761" lon="4.82812">
        <ele>376</ele>
        <time>2011-11-25T08:38:30Z</time>
      </trkpt>
      <trkpt lat="45.82766" lon="4.82815">
        <ele>376</ele>
        <time>2011-11-25T08:38:34Z</time>
      </trkpt>
      <trkpt lat="45.82765" lon="4.82816">
        <ele>376</ele>
        <time>2011-11-25T08:38:35Z</time>
      </trkpt>
      <trkpt lat="45.82766" lon="4.82818">
        <ele>376</ele>
        <time>2011-11-25T08:38:37Z</time>
      </trkpt>
      <trkpt lat="45.82767" lon="4.82823">
        <ele>375</ele>
        <time>2011-11-25T08:38:39Z</time>
      </trkpt>
      <trkpt lat="45.82765" lon="4.82835">
        <ele>364</ele>
        <time>2011-11-25T08:38:44Z</time>
      </trkpt>
      <trkpt lat="45.82763" lon="4.82838">
        <ele>364</ele>
        <time>2011-11-25T08:38:47Z</time>
      </trkpt>
      <trkpt lat="45.82759" lon="4.82848">
        <ele>363</ele>
        <time>2011-11-25T08:38:59Z</time>
      </trkpt>
      <trkpt lat="45.82758" lon="4.8285">
        <ele>363</ele>
        <time>2011-11-25T08:39:00Z</time>
      </trkpt>
      <trkpt lat="45.82758" lon="4.82854">
        <ele>362</ele>
        <time>2011-11-25T08:39:04Z</time>
      </trkpt>
      <trkpt lat="45.82755" lon="4.82858">
        <ele>362</ele>
        <time>2011-11-25T08:39:13Z</time>
      </trkpt>
      <trkpt lat="45.82755" lon="4.8286">
        <ele>361</ele>
        <time>2011-11-25T08:39:15Z</time>
      </trkpt>
      <trkpt lat="45.82755" lon="4.82862">
        <ele>361</ele>
        <time>2011-11-25T08:39:16Z</time>
      </trkpt>
      <trkpt lat="45.82751" lon="4.82871">
        <ele>360</ele>
        <time>2011-11-25T08:39:22Z</time>
      </trkpt>
      <trkpt lat="45.82748" lon="4.82871">
        <ele>354</ele>
        <time>2011-11-25T08:39:23Z</time>
      </trkpt>
      <trkpt lat="45.82745" lon="4.8287">
        <ele>355</ele>
        <time>2011-11-25T08:39:25Z</time>
      </trkpt>
      <trkpt lat="45.82741" lon="4.82871">
        <ele>354</ele>
        <time>2011-11-25T08:39:27Z</time>
      </trkpt>
      <trkpt lat="45.82739" lon="4.82873">
        <ele>354</ele>
        <time>2011-11-25T08:39:28Z</time>
      </trkpt>
      <trkpt lat="45.82732" lon="4.82875">
        <ele>353</ele>
        <time>2011-11-25T08:39:32Z</time>
      </trkpt>
      <trkpt lat="45.82731" lon="4.82875">
        <ele>353</ele>
        <time>2011-11-25T08:39:33Z</time>
      </trkpt>
      <trkpt lat="45.82727" lon="4.82879">
        <ele>352</ele>
        <time>2011-11-25T08:39:36Z</time>
      </trkpt>
      <trkpt lat="45.82727" lon="4.8288">
        <ele>352</ele>
        <time>2011-11-25T08:39:37Z</time>
      </trkpt>
      <trkpt lat="45.82729" lon="4.82883">
        <ele>352</ele>
        <time>2011-11-25T08:39:38Z</time>
      </trkpt>
      <trkpt lat="45.82736" lon="4.82884">
        <ele>352</ele>
        <time>2011-11-25T08:39:40Z</time>
      </trkpt>
      <trkpt lat="45.82744" lon="4.8289">
        <ele>352</ele>
        <time>2011-11-25T08:39:44Z</time>
      </trkpt>
      <trkpt lat="45.82747" lon="4.8289">
        <ele>352</ele>
        <time>2011-11-25T08:39:45Z</time>
      </trkpt>
      <trkpt lat="45.82761" lon="4.8289">
        <ele>357</ele>
        <time>2011-11-25T08:39:49Z</time>
      </trkpt>
      <trkpt lat="45.82767" lon="4.8289">
        <ele>357</ele>
        <time>2011-11-25T08:39:51Z</time>
      </trkpt>
      <trkpt lat="45.82775" lon="4.8289">
        <ele>357</ele>
        <time>2011-11-25T08:39:53Z</time>
      </trkpt>
      <trkpt lat="45.82787" lon="4.82892">
        <ele>357</ele>
        <time>2011-11-25T08:39:58Z</time>
      </trkpt>
      <trkpt lat="45.82793" lon="4.82887">
        <ele>358</ele>
        <time>2011-11-25T08:40:02Z</time>
      </trkpt>
      <trkpt lat="45.82788" lon="4.82882">
        <ele>359</ele>
        <time>2011-11-25T08:40:07Z</time>
      </trkpt>
      <trkpt lat="45.82785" lon="4.82879">
        <ele>359</ele>
        <time>2011-11-25T08:40:09Z</time>
      </trkpt>
      <trkpt lat="45.82781" lon="4.82871">
        <ele>360</ele>
        <time>2011-11-25T08:40:13Z</time>
      </trkpt>
      <trkpt lat="45.82779" lon="4.82862">
        <ele>361</ele>
        <time>2011-11-25T08:40:20Z</time>
      </trkpt>
      <trkpt lat="45.82778" lon="4.8286">
        <ele>361</ele>
        <time>2011-11-25T08:40:21Z</time>
      </trkpt>
      <trkpt lat="45.82779" lon="4.82859">
        <ele>361</ele>
        <time>2011-11-25T08:40:24Z</time>
      </trkpt>
      <trkpt lat="45.8278" lon="4.82859">
        <ele>361</ele>
        <time>2011-11-25T08:40:25Z</time>
      </trkpt>
      <trkpt lat="45.82782" lon="4.82857">
        <ele>361</ele>
        <time>2011-11-25T08:40:27Z</time>
      </trkpt>
      <trkpt lat="45.82787" lon="4.82855">
        <ele>362</ele>
        <time>2011-11-25T08:40:30Z</time>
      </trkpt>
      <trkpt lat="45.82788" lon="4.82853">
        <ele>362</ele>
        <time>2011-11-25T08:40:31Z</time>
      </trkpt>
      <trkpt lat="45.82792" lon="4.82851">
        <ele>362</ele>
        <time>2011-11-25T08:40:33Z</time>
      </trkpt>
      <trkpt lat="45.82796" lon="4.82848">
        <ele>363</ele>
        <time>2011-11-25T08:40:36Z</time>
      </trkpt>
      <trkpt lat="45.82797" lon="4.82846">
        <ele>363</ele>
        <time>2011-11-25T08:40:43Z</time>
      </trkpt>
      <trkpt lat="45.82798" lon="4.82846">
        <ele>363</ele>
        <time>2011-11-25T08:40:46Z</time>
      </trkpt>
      <trkpt lat="45.828" lon="4.82848">
        <ele>363</ele>
        <time>2011-11-25T08:40:49Z</time>
      </trkpt>
      <trkpt lat="45.82802" lon="4.8285">
        <ele>363</ele>
        <time>2011-11-25T08:40:51Z</time>
      </trkpt>
      <trkpt lat="45.82805" lon="4.82848">
        <ele>363</ele>
        <time>2011-11-25T08:40:55Z</time>
      </trkpt>
      <trkpt lat="45.82811" lon="4.82844">
        <ele>365</ele>
        <time>2011-11-25T08:41:01Z</time>
      </trkpt>
      <trkpt lat="45.82813" lon="4.82844">
        <ele>365</ele>
        <time>2011-11-25T08:41:02Z</time>
      </trkpt>
      <trkpt lat="45.82815" lon="4.8284">
        <ele>366</ele>
        <time>2011-11-25T08:41:06Z</time>
      </trkpt>
      <trkpt lat="45.82818" lon="4.82839">
        <ele>367</ele>
        <time>2011-11-25T08:41:11Z</time>
      </trkpt>
      <trkpt lat="45.82821" lon="4.82834">
        <ele>368</ele>
        <time>2011-11-25T08:41:23Z</time>
      </trkpt>
      <trkpt lat="45.82817" lon="4.8283">
        <ele>377</ele>
        <time>2011-11-25T08:41:27Z</time>
      </trkpt>
      <trkpt lat="45.82816" lon="4.8283">
        <ele>377</ele>
        <time>2011-11-25T08:41:28Z</time>
      </trkpt>
      <trkpt lat="45.82813" lon="4.8283">
        <ele>377</ele>
        <time>2011-11-25T08:41:31Z</time>
      </trkpt>
      <trkpt lat="45.82812" lon="4.82829">
        <ele>377</ele>
        <time>2011-11-25T08:41:32Z</time>
      </trkpt>
      <trkpt lat="45.8281" lon="4.82829">
        <ele>377</ele>
        <time>2011-11-25T08:41:33Z</time>
      </trkpt>
      <trkpt lat="45.8281" lon="4.82826">
        <ele>378</ele>
        <time>2011-11-25T08:41:36Z</time>
      </trkpt>
      <trkpt lat="45.82811" lon="4.82824">
        <ele>378</ele>
        <time>2011-11-25T08:41:39Z</time>
      </trkpt>
      <trkpt lat="45.82813" lon="4.8282">
        <ele>378</ele>
        <time>2011-11-25T08:41:43Z</time>
      </trkpt>
      <trkpt lat="45.82811" lon="4.82817">
        <ele>379</ele>
        <time>2011-11-25T08:41:48Z</time>
      </trkpt>
      <trkpt lat="45.82809" lon="4.82814">
        <ele>379</ele>
        <time>2011-11-25T08:41:52Z</time>
      </trkpt>
      <trkpt lat="45.82806" lon="4.82815">
        <ele>379</ele>
        <time>2011-11-25T08:41:54Z</time>
      </trkpt>
      <trkpt lat="45.82804" lon="4.82815">
        <ele>379</ele>
        <time>2011-11-25T08:41:57Z</time>
      </trkpt>
      <trkpt lat="45.82803" lon="4.82814">
        <ele>379</ele>
        <time>2011-11-25T08:41:59Z</time>
      </trkpt>
      <trkpt lat="45.82798" lon="4.82814">
        <ele>379</ele>
        <time>2011-11-25T08:42:03Z</time>
      </trkpt>
      <trkpt lat="45.828" lon="4.82808">
        <ele>380</ele>
        <time>2011-11-25T08:42:10Z</time>
      </trkpt>
      <trkpt lat="45.82804" lon="4.82806">
        <ele>380</ele>
        <time>2011-11-25T08:42:12Z</time>
      </trkpt>
      <trkpt lat="45.82805" lon="4.82804">
        <ele>380</ele>
        <time>2011-11-25T08:42:14Z</time>
      </trkpt>
      <trkpt lat="45.82805" lon="4.82804">
        <ele>380</ele>
        <time>2011-11-25T08:42:15Z</time>
      </trkpt>
      <trkpt lat="45.82804" lon="4.82799">
        <ele>381</ele>
        <time>2011-11-25T08:42:18Z</time>
      </trkpt>
      <trkpt lat="45.82802" lon="4.82797">
        <ele>381</ele>
        <time>2011-11-25T08:42:21Z</time>
      </trkpt>
      <trkpt lat="45.82801" lon="4.82796">
        <ele>382</ele>
        <time>2011-11-25T08:42:22Z</time>
      </trkpt>
      <trkpt lat="45.82799" lon="4.82795">
        <ele>382</ele>
        <time>2011-11-25T08:42:24Z</time>
      </trkpt>
      <trkpt lat="45.828" lon="4.82794">
        <ele>382</ele>
        <time>2011-11-25T08:42:25Z</time>
      </trkpt>
      <trkpt lat="45.828" lon="4.82791">
        <ele>382</ele>
        <time>2011-11-25T08:42:27Z</time>
      </trkpt>
      <trkpt lat="45.828" lon="4.82785">
        <ele>383</ele>
        <time>2011-11-25T08:42:37Z</time>
      </trkpt>
      <trkpt lat="45.82798" lon="4.82783">
        <ele>383</ele>
        <time>2011-11-25T08:42:40Z</time>
      </trkpt>
      <trkpt lat="45.82795" lon="4.82782">
        <ele>383</ele>
        <time>2011-11-25T08:42:45Z</time>
      </trkpt>
      <trkpt lat="45.82794" lon="4.82778">
        <ele>384</ele>
        <time>2011-11-25T08:42:50Z</time>
      </trkpt>
      <trkpt lat="45.82795" lon="4.82775">
        <ele>384</ele>
        <time>2011-11-25T08:42:52Z</time>
      </trkpt>
      <trkpt lat="45.82796" lon="4.82772">
        <ele>385</ele>
        <time>2011-11-25T08:42:55Z</time>
      </trkpt>
      <trkpt lat="45.82796" lon="4.82771">
        <ele>385</ele>
        <time>2011-11-25T08:42:56Z</time>
      </trkpt>
      <trkpt lat="45.82794" lon="4.82763">
        <ele>386</ele>
        <time>2011-11-25T08:43:03Z</time>
      </trkpt>
      <trkpt lat="45.82791" lon="4.8276">
        <ele>386</ele>
        <time>2011-11-25T08:43:06Z</time>
      </trkpt>
      <trkpt lat="45.82792" lon="4.82756">
        <ele>386</ele>
        <time>2011-11-25T08:43:10Z</time>
      </trkpt>
      <trkpt lat="45.82792" lon="4.82752">
        <ele>386</ele>
        <time>2011-11-25T08:43:16Z</time>
      </trkpt>
      <trkpt lat="45.82793" lon="4.82749">
        <ele>399</ele>
        <time>2011-11-25T08:43:18Z</time>
      </trkpt>
      <trkpt lat="45.82791" lon="4.82743">
        <ele>399</ele>
        <time>2011-11-25T08:43:23Z</time>
      </trkpt>
      <trkpt lat="45.82788" lon="4.82737">
        <ele>399</ele>
        <time>2011-11-25T08:43:27Z</time>
      </trkpt>
      <trkpt lat="45.82786" lon="4.82735">
        <ele>399</ele>
        <time>2011-11-25T08:43:30Z</time>
      </trkpt>
      <trkpt lat="45.82785" lon="4.82735">
        <ele>399</ele>
        <time>2011-11-25T08:43:31Z</time>
      </trkpt>
      <trkpt lat="45.82784" lon="4.82734">
        <ele>399</ele>
        <time>2011-11-25T08:43:32Z</time>
      </trkpt>
      <trkpt lat="45.82782" lon="4.82732">
        <ele>399</ele>
        <time>2011-11-25T08:43:34Z</time>
      </trkpt>
      <trkpt lat="45.82781" lon="4.82731">
        <ele>399</ele>
        <time>2011-11-25T08:43:35Z</time>
      </trkpt>
      <trkpt lat="45.8278" lon="4.82729">
        <ele>399</ele>
        <time>2011-11-25T08:43:37Z</time>
      </trkpt>
      <trkpt lat="45.8278" lon="4.82726">
        <ele>399</ele>
        <time>2011-11-25T08:43:41Z</time>
      </trkpt>
      <trkpt lat="45.82783" lon="4.82723">
        <ele>400</ele>
        <time>2011-11-25T08:43:45Z</time>
      </trkpt>
      <trkpt lat="45.82788" lon="4.82718">
        <ele>401</ele>
        <time>2011-11-25T08:43:52Z</time>
      </trkpt>
      <trkpt lat="45.8279" lon="4.82716">
        <ele>401</ele>
        <time>2011-11-25T08:43:55Z</time>
      </trkpt>
      <trkpt lat="45.82793" lon="4.82712">
        <ele>402</ele>
        <time>2011-11-25T08:43:58Z</time>
      </trkpt>
      <trkpt lat="45.82795" lon="4.82709">
        <ele>402</ele>
        <time>2011-11-25T08:44:01Z</time>
      </trkpt>
      <trkpt lat="45.82796" lon="4.82706">
        <ele>402</ele>
        <time>2011-11-25T08:44:03Z</time>
      </trkpt>
      <trkpt lat="45.82797" lon="4.82703">
        <ele>403</ele>
        <time>2011-11-25T08:44:05Z</time>
      </trkpt>
      <trkpt lat="45.82798" lon="4.82696">
        <ele>404</ele>
        <time>2011-11-25T08:44:10Z</time>
      </trkpt>
      <trkpt lat="45.82799" lon="4.82693">
        <ele>404</ele>
        <time>2011-11-25T08:44:12Z</time>
      </trkpt>
      <trkpt lat="45.828" lon="4.82689">
        <ele>404</ele>
        <time>2011-11-25T08:44:17Z</time>
      </trkpt>
      <trkpt lat="45.828" lon="4.82685">
        <ele>405</ele>
        <time>2011-11-25T08:44:20Z</time>
      </trkpt>
      <trkpt lat="45.82802" lon="4.82682">
        <ele>405</ele>
        <time>2011-11-25T08:44:22Z</time>
      </trkpt>
      <trkpt lat="45.82804" lon="4.82681">
        <ele>406</ele>
        <time>2011-11-25T08:44:25Z</time>
      </trkpt>
      <trkpt lat="45.82805" lon="4.82681">
        <ele>406</ele>
        <time>2011-11-25T08:44:28Z</time>
      </trkpt>
      <trkpt lat="45.82803" lon="4.82676">
        <ele>406</ele>
        <time>2011-11-25T08:44:41Z</time>
      </trkpt>
      <trkpt lat="45.82806" lon="4.82677">
        <ele>406</ele>
        <time>2011-11-25T08:44:51Z</time>
      </trkpt>
      <trkpt lat="45.82807" lon="4.82676">
        <ele>406</ele>
        <time>2011-11-25T08:44:53Z</time>
      </trkpt>
      <trkpt lat="45.82808" lon="4.82674">
        <ele>406</ele>
        <time>2011-11-25T08:44:54Z</time>
      </trkpt>
      <trkpt lat="45.82811" lon="4.82673">
        <ele>407</ele>
        <time>2011-11-25T08:44:57Z</time>
      </trkpt>
      <trkpt lat="45.82818" lon="4.82664">
        <ele>415</ele>
        <time>2011-11-25T08:45:03Z</time>
      </trkpt>
      <trkpt lat="45.82822" lon="4.82659">
        <ele>415</ele>
        <time>2011-11-25T08:45:07Z</time>
      </trkpt>
      <trkpt lat="45.82826" lon="4.82655">
        <ele>415</ele>
        <time>2011-11-25T08:45:10Z</time>
      </trkpt>
      <trkpt lat="45.82834" lon="4.82645">
        <ele>417</ele>
        <time>2011-11-25T08:45:17Z</time>
      </trkpt>
      <trkpt lat="45.82837" lon="4.82644">
        <ele>417</ele>
        <time>2011-11-25T08:45:19Z</time>
      </trkpt>
      <trkpt lat="45.82843" lon="4.82637">
        <ele>417</ele>
        <time>2011-11-25T08:45:24Z</time>
      </trkpt>
      <trkpt lat="45.8285" lon="4.82631">
        <ele>418</ele>
        <time>2011-11-25T08:45:30Z</time>
      </trkpt>
      <trkpt lat="45.82853" lon="4.82629">
        <ele>418</ele>
        <time>2011-11-25T08:45:32Z</time>
      </trkpt>
      <trkpt lat="45.82859" lon="4.82623">
        <ele>418</ele>
        <time>2011-11-25T08:45:36Z</time>
      </trkpt>
      <trkpt lat="45.82867" lon="4.82612">
        <ele>419</ele>
        <time>2011-11-25T08:45:42Z</time>
      </trkpt>
      <trkpt lat="45.82876" lon="4.82604">
        <ele>419</ele>
        <time>2011-11-25T08:45:48Z</time>
      </trkpt>
      <trkpt lat="45.82878" lon="4.82603">
        <ele>419</ele>
        <time>2011-11-25T08:45:49Z</time>
      </trkpt>
      <trkpt lat="45.82883" lon="4.826">
        <ele>420</ele>
        <time>2011-11-25T08:45:53Z</time>
      </trkpt>
      <trkpt lat="45.82896" lon="4.82596">
        <ele>420</ele>
        <time>2011-11-25T08:45:59Z</time>
      </trkpt>
      <trkpt lat="45.82902" lon="4.8259">
        <ele>421</ele>
        <time>2011-11-25T08:46:03Z</time>
      </trkpt>
      <trkpt lat="45.82903" lon="4.82589">
        <ele>421</ele>
        <time>2011-11-25T08:46:04Z</time>
      </trkpt>
      <trkpt lat="45.82908" lon="4.82588">
        <ele>421</ele>
        <time>2011-11-25T08:46:08Z</time>
      </trkpt>
      <trkpt lat="45.82908" lon="4.82589">
        <ele>421</ele>
        <time>2011-11-25T08:46:09Z</time>
      </trkpt>
      <trkpt lat="45.82909" lon="4.82594">
        <ele>421</ele>
        <time>2011-11-25T08:46:15Z</time>
      </trkpt>
      <trkpt lat="45.82912" lon="4.82597">
        <ele>421</ele>
        <time>2011-11-25T08:46:18Z</time>
      </trkpt>
      <trkpt lat="45.82914" lon="4.82602">
        <ele>420</ele>
        <time>2011-11-25T08:46:22Z</time>
      </trkpt>
      <trkpt lat="45.82914" lon="4.82604">
        <ele>420</ele>
        <time>2011-11-25T08:46:23Z</time>
      </trkpt>
      <trkpt lat="45.82916" lon="4.82609">
        <ele>419</ele>
        <time>2011-11-25T08:46:29Z</time>
      </trkpt>
      <trkpt lat="45.8292" lon="4.82609">
        <ele>413</ele>
        <time>2011-11-25T08:46:32Z</time>
      </trkpt>
      <trkpt lat="45.82921" lon="4.82609">
        <ele>412</ele>
        <time>2011-11-25T08:46:36Z</time>
      </trkpt>
      <trkpt lat="45.82925" lon="4.82609">
        <ele>412</ele>
        <time>2011-11-25T08:46:41Z</time>
      </trkpt>
      <trkpt lat="45.82927" lon="4.82607">
        <ele>412</ele>
        <time>2011-11-25T08:46:47Z</time>
      </trkpt>
      <trkpt lat="45.82925" lon="4.82607">
        <ele>412</ele>
        <time>2011-11-25T08:46:51Z</time>
      </trkpt>
      <trkpt lat="45.82924" lon="4.82607">
        <ele>413</ele>
        <time>2011-11-25T08:46:55Z</time>
      </trkpt>
      <trkpt lat="45.82922" lon="4.82607">
        <ele>413</ele>
        <time>2011-11-25T08:46:56Z</time>
      </trkpt>
      <trkpt lat="45.8292" lon="4.82607">
        <ele>413</ele>
        <time>2011-11-25T08:46:58Z</time>
      </trkpt>
      <trkpt lat="45.82915" lon="4.82605">
        <ele>420</ele>
        <time>2011-11-25T08:47:01Z</time>
      </trkpt>
      <trkpt lat="45.82912" lon="4.82603">
        <ele>420</ele>
        <time>2011-11-25T08:47:04Z</time>
      </trkpt>
      <trkpt lat="45.82912" lon="4.82602">
        <ele>420</ele>
        <time>2011-11-25T08:47:05Z</time>
      </trkpt>
      <trkpt lat="45.82907" lon="4.82596">
        <ele>421</ele>
        <time>2011-11-25T08:47:10Z</time>
      </trkpt>
      <trkpt lat="45.82906" lon="4.82593">
        <ele>421</ele>
        <time>2011-11-25T08:47:12Z</time>
      </trkpt>
      <trkpt lat="45.82909" lon="4.8259">
        <ele>421</ele>
        <time>2011-11-25T08:47:14Z</time>
      </trkpt>
      <trkpt lat="45.82919" lon="4.82585">
        <ele>421</ele>
        <time>2011-11-25T08:47:21Z</time>
      </trkpt>
      <trkpt lat="45.82923" lon="4.82582">
        <ele>422</ele>
        <time>2011-11-25T08:47:24Z</time>
      </trkpt>
      <trkpt lat="45.82926" lon="4.82579">
        <ele>422</ele>
        <time>2011-11-25T08:47:26Z</time>
      </trkpt>
      <trkpt lat="45.82934" lon="4.8257">
        <ele>421</ele>
        <time>2011-11-25T08:47:30Z</time>
      </trkpt>
      <trkpt lat="45.82935" lon="4.82567">
        <ele>421</ele>
        <time>2011-11-25T08:47:31Z</time>
      </trkpt>
      <trkpt lat="45.82936" lon="4.82565">
        <ele>421</ele>
        <time>2011-11-25T08:47:32Z</time>
      </trkpt>
      <trkpt lat="45.82944" lon="4.82555">
        <ele>421</ele>
        <time>2011-11-25T08:47:37Z</time>
      </trkpt>
      <trkpt lat="45.82951" lon="4.82548">
        <ele>420</ele>
        <time>2011-11-25T08:47:41Z</time>
      </trkpt>
      <trkpt lat="45.82955" lon="4.82542">
        <ele>420</ele>
        <time>2011-11-25T08:47:44Z</time>
      </trkpt>
      <trkpt lat="45.82964" lon="4.82532">
        <ele>420</ele>
        <time>2011-11-25T08:47:49Z</time>
      </trkpt>
      <trkpt lat="45.82966" lon="4.82529">
        <ele>420</ele>
        <time>2011-11-25T08:47:50Z</time>
      </trkpt>
      <trkpt lat="45.82974" lon="4.82519">
        <ele>421</ele>
        <time>2011-11-25T08:47:55Z</time>
      </trkpt>
      <trkpt lat="45.8298" lon="4.8251">
        <ele>421</ele>
        <time>2011-11-25T08:47:59Z</time>
      </trkpt>
      <trkpt lat="45.82981" lon="4.82503">
        <ele>421</ele>
        <time>2011-11-25T08:48:01Z</time>
      </trkpt>
      <trkpt lat="45.82981" lon="4.825">
        <ele>421</ele>
        <time>2011-11-25T08:48:02Z</time>
      </trkpt>
      <trkpt lat="45.82978" lon="4.8249">
        <ele>425</ele>
        <time>2011-11-25T08:48:06Z</time>
      </trkpt>
      <trkpt lat="45.82978" lon="4.82484">
        <ele>425</ele>
        <time>2011-11-25T08:48:08Z</time>
      </trkpt>
      <trkpt lat="45.82977" lon="4.82481">
        <ele>426</ele>
        <time>2011-11-25T08:48:10Z</time>
      </trkpt>
      <trkpt lat="45.82976" lon="4.82476">
        <ele>426</ele>
        <time>2011-11-25T08:48:12Z</time>
      </trkpt>
      <trkpt lat="45.82975" lon="4.82466">
        <ele>426</ele>
        <time>2011-11-25T08:48:16Z</time>
      </trkpt>
      <trkpt lat="45.82975" lon="4.82456">
        <ele>427</ele>
        <time>2011-11-25T08:48:19Z</time>
      </trkpt>
      <trkpt lat="45.82975" lon="4.82453">
        <ele>427</ele>
        <time>2011-11-25T08:48:20Z</time>
      </trkpt>
      <trkpt lat="45.82974" lon="4.8245">
        <ele>427</ele>
        <time>2011-11-25T08:48:21Z</time>
      </trkpt>
      <trkpt lat="45.82971" lon="4.82441">
        <ele>427</ele>
        <time>2011-11-25T08:48:24Z</time>
      </trkpt>
      <trkpt lat="45.82969" lon="4.8243">
        <ele>427</ele>
        <time>2011-11-25T08:48:28Z</time>
      </trkpt>
      <trkpt lat="45.82968" lon="4.82423">
        <ele>427</ele>
        <time>2011-11-25T08:48:30Z</time>
      </trkpt>
      <trkpt lat="45.82966" lon="4.8241">
        <ele>428</ele>
        <time>2011-11-25T08:48:35Z</time>
      </trkpt>
      <trkpt lat="45.82965" lon="4.82403">
        <ele>428</ele>
        <time>2011-11-25T08:48:37Z</time>
      </trkpt>
      <trkpt lat="45.82963" lon="4.82389">
        <ele>429</ele>
        <time>2011-11-25T08:48:41Z</time>
      </trkpt>
      <trkpt lat="45.82961" lon="4.82376">
        <ele>429</ele>
        <time>2011-11-25T08:48:45Z</time>
      </trkpt>
      <trkpt lat="45.8296" lon="4.82373">
        <ele>429</ele>
        <time>2011-11-25T08:48:46Z</time>
      </trkpt>
      <trkpt lat="45.8296" lon="4.82361">
        <ele>428</ele>
        <time>2011-11-25T08:48:49Z</time>
      </trkpt>
      <trkpt lat="45.82961" lon="4.82354">
        <ele>428</ele>
        <time>2011-11-25T08:48:51Z</time>
      </trkpt>
      <trkpt lat="45.82961" lon="4.82351">
        <ele>428</ele>
        <time>2011-11-25T08:48:52Z</time>
      </trkpt>
      <trkpt lat="45.82963" lon="4.82345">
        <ele>428</ele>
        <time>2011-11-25T08:48:54Z</time>
      </trkpt>
      <trkpt lat="45.82965" lon="4.82339">
        <ele>428</ele>
        <time>2011-11-25T08:48:56Z</time>
      </trkpt>
      <trkpt lat="45.82966" lon="4.82334">
        <ele>428</ele>
        <time>2011-11-25T08:48:57Z</time>
      </trkpt>
      <trkpt lat="45.82967" lon="4.82326">
        <ele>425</ele>
        <time>2011-11-25T08:49:00Z</time>
      </trkpt>
      <trkpt lat="45.82963" lon="4.82313">
        <ele>425</ele>
        <time>2011-11-25T08:49:05Z</time>
      </trkpt>
      <trkpt lat="45.82958" lon="4.82303">
        <ele>425</ele>
        <time>2011-11-25T08:49:09Z</time>
      </trkpt>
      <trkpt lat="45.82955" lon="4.82299">
        <ele>425</ele>
        <time>2011-11-25T08:49:11Z</time>
      </trkpt>
      <trkpt lat="45.82944" lon="4.82283">
        <ele>425</ele>
        <time>2011-11-25T08:49:18Z</time>
      </trkpt>
      <trkpt lat="45.82938" lon="4.82272">
        <ele>425</ele>
        <time>2011-11-25T08:49:22Z</time>
      </trkpt>
      <trkpt lat="45.82935" lon="4.82259">
        <ele>425</ele>
        <time>2011-11-25T08:49:26Z</time>
      </trkpt>
      <trkpt lat="45.82935" lon="4.82255">
        <ele>425</ele>
        <time>2011-11-25T08:49:27Z</time>
      </trkpt>
      <trkpt lat="45.82932" lon="4.8224">
        <ele>420</ele>
        <time>2011-11-25T08:49:32Z</time>
      </trkpt>
      <trkpt lat="45.8293" lon="4.82238">
        <ele>420</ele>
        <time>2011-11-25T08:49:33Z</time>
      </trkpt>
      <trkpt lat="45.82927" lon="4.82234">
        <ele>420</ele>
        <time>2011-11-25T08:49:35Z</time>
      </trkpt>
      <trkpt lat="45.82925" lon="4.82226">
        <ele>418</ele>
        <time>2011-11-25T08:49:38Z</time>
      </trkpt>
      <trkpt lat="45.82923" lon="4.82219">
        <ele>417</ele>
        <time>2011-11-25T08:49:41Z</time>
      </trkpt>
      <trkpt lat="45.8292" lon="4.82213">
        <ele>416</ele>
        <time>2011-11-25T08:49:43Z</time>
      </trkpt>
      <trkpt lat="45.82919" lon="4.82211">
        <ele>416</ele>
        <time>2011-11-25T08:49:44Z</time>
      </trkpt>
      <trkpt lat="45.82913" lon="4.82205">
        <ele>424</ele>
        <time>2011-11-25T08:49:48Z</time>
      </trkpt>
      <trkpt lat="45.82915" lon="4.82203">
        <ele>424</ele>
        <time>2011-11-25T08:49:53Z</time>
      </trkpt>
      <trkpt lat="45.82921" lon="4.82197">
        <ele>414</ele>
        <time>2011-11-25T08:49:58Z</time>
      </trkpt>
      <trkpt lat="45.82922" lon="4.82193">
        <ele>414</ele>
        <time>2011-11-25T08:50:00Z</time>
      </trkpt>
      <trkpt lat="45.82927" lon="4.82185">
        <ele>413</ele>
        <time>2011-11-25T08:50:05Z</time>
      </trkpt>
      <trkpt lat="45.82928" lon="4.82182">
        <ele>413</ele>
        <time>2011-11-25T08:50:06Z</time>
      </trkpt>
      <trkpt lat="45.82934" lon="4.82173">
        <ele>413</ele>
        <time>2011-11-25T08:50:11Z</time>
      </trkpt>
      <trkpt lat="45.82938" lon="4.82165">
        <ele>406</ele>
        <time>2011-11-25T08:50:15Z</time>
      </trkpt>
      <trkpt lat="45.82939" lon="4.82163">
        <ele>406</ele>
        <time>2011-11-25T08:50:16Z</time>
      </trkpt>
      <trkpt lat="45.82946" lon="4.82152">
        <ele>404</ele>
        <time>2011-11-25T08:50:21Z</time>
      </trkpt>
      <trkpt lat="45.82946" lon="4.8215">
        <ele>404</ele>
        <time>2011-11-25T08:50:22Z</time>
      </trkpt>
      <trkpt lat="45.82953" lon="4.82143">
        <ele>403</ele>
        <time>2011-11-25T08:50:27Z</time>
      </trkpt>
      <trkpt lat="45.82957" lon="4.82131">
        <ele>402</ele>
        <time>2011-11-25T08:50:33Z</time>
      </trkpt>
      <trkpt lat="45.82963" lon="4.82116">
        <ele>400</ele>
        <time>2011-11-25T08:50:40Z</time>
      </trkpt>
      <trkpt lat="45.82967" lon="4.82108">
        <ele>399</ele>
        <time>2011-11-25T08:50:44Z</time>
      </trkpt>
      <trkpt lat="45.82969" lon="4.82103">
        <ele>399</ele>
        <time>2011-11-25T08:50:46Z</time>
      </trkpt>
      <trkpt lat="45.82971" lon="4.82096">
        <ele>398</ele>
        <time>2011-11-25T08:50:51Z</time>
      </trkpt>
      <trkpt lat="45.82978" lon="4.821">
        <ele>398</ele>
        <time>2011-11-25T08:51:04Z</time>
      </trkpt>
      <trkpt lat="45.82987" lon="4.82106">
        <ele>397</ele>
        <time>2011-11-25T08:51:09Z</time>
      </trkpt>
      <trkpt lat="45.82995" lon="4.82107">
        <ele>397</ele>
        <time>2011-11-25T08:51:14Z</time>
      </trkpt>
      <trkpt lat="45.82996" lon="4.82107">
        <ele>397</ele>
        <time>2011-11-25T08:51:15Z</time>
      </trkpt>
      <trkpt lat="45.82999" lon="4.82108">
        <ele>397</ele>
        <time>2011-11-25T08:51:17Z</time>
      </trkpt>
      <trkpt lat="45.83004" lon="4.82114">
        <ele>385</ele>
        <time>2011-11-25T08:51:21Z</time>
      </trkpt>
      <trkpt lat="45.83009" lon="4.82111">
        <ele>385</ele>
        <time>2011-11-25T08:51:25Z</time>
      </trkpt>
      <trkpt lat="45.83011" lon="4.82109">
        <ele>385</ele>
        <time>2011-11-25T08:51:27Z</time>
      </trkpt>
      <trkpt lat="45.83012" lon="4.82109">
        <ele>385</ele>
        <time>2011-11-25T08:51:28Z</time>
      </trkpt>
      <trkpt lat="45.83015" lon="4.82109">
        <ele>384</ele>
        <time>2011-11-25T08:51:31Z</time>
      </trkpt>
      <trkpt lat="45.8302" lon="4.82104">
        <ele>383</ele>
        <time>2011-11-25T08:51:38Z</time>
      </trkpt>
      <trkpt lat="45.83027" lon="4.82114">
        <ele>383</ele>
        <time>2011-11-25T08:51:42Z</time>
      </trkpt>
      <trkpt lat="45.83027" lon="4.8212">
        <ele>383</ele>
        <time>2011-11-25T08:51:44Z</time>
      </trkpt>
      <trkpt lat="45.83028" lon="4.82122">
        <ele>383</ele>
        <time>2011-11-25T08:51:45Z</time>
      </trkpt>
      <trkpt lat="45.8303" lon="4.82122">
        <ele>382</ele>
        <time>2011-11-25T08:51:46Z</time>
      </trkpt>
      <trkpt lat="45.83039" lon="4.82122">
        <ele>381</ele>
        <time>2011-11-25T08:51:51Z</time>
      </trkpt>
      <trkpt lat="45.83041" lon="4.82122">
        <ele>381</ele>
        <time>2011-11-25T08:51:57Z</time>
      </trkpt>
      <trkpt lat="45.83048" lon="4.82126">
        <ele>380</ele>
        <time>2011-11-25T08:52:06Z</time>
      </trkpt>
      <trkpt lat="45.83048" lon="4.82127">
        <ele>380</ele>
        <time>2011-11-25T08:52:07Z</time>
      </trkpt>
      <trkpt lat="45.83051" lon="4.82129">
        <ele>380</ele>
        <time>2011-11-25T08:52:11Z</time>
      </trkpt>
      <trkpt lat="45.83055" lon="4.82133">
        <ele>379</ele>
        <time>2011-11-25T08:52:14Z</time>
      </trkpt>
      <trkpt lat="45.8306" lon="4.82135">
        <ele>379</ele>
        <time>2011-11-25T08:52:16Z</time>
      </trkpt>
      <trkpt lat="45.83068" lon="4.82144">
        <ele>378</ele>
        <time>2011-11-25T08:52:21Z</time>
      </trkpt>
      <trkpt lat="45.83072" lon="4.82148">
        <ele>378</ele>
        <time>2011-11-25T08:52:23Z</time>
      </trkpt>
      <trkpt lat="45.83077" lon="4.82152">
        <ele>378</ele>
        <time>2011-11-25T08:52:26Z</time>
      </trkpt>
      <trkpt lat="45.83085" lon="4.8216">
        <ele>368</ele>
        <time>2011-11-25T08:52:30Z</time>
      </trkpt>
      <trkpt lat="45.83087" lon="4.82162">
        <ele>369</ele>
        <time>2011-11-25T08:52:31Z</time>
      </trkpt>
      <trkpt lat="45.83093" lon="4.82169">
        <ele>370</ele>
        <time>2011-11-25T08:52:35Z</time>
      </trkpt>
      <trkpt lat="45.83095" lon="4.82171">
        <ele>369</ele>
        <time>2011-11-25T08:52:36Z</time>
      </trkpt>
      <trkpt lat="45.83099" lon="4.8218">
        <ele>365</ele>
        <time>2011-11-25T08:52:39Z</time>
      </trkpt>
      <trkpt lat="45.831" lon="4.82183">
        <ele>365</ele>
        <time>2011-11-25T08:52:40Z</time>
      </trkpt>
      <trkpt lat="45.83106" lon="4.82192">
        <ele>362</ele>
        <time>2011-11-25T08:52:44Z</time>
      </trkpt>
      <trkpt lat="45.83106" lon="4.8219">
        <ele>362</ele>
        <time>2011-11-25T08:52:47Z</time>
      </trkpt>
      <trkpt lat="45.83101" lon="4.82186">
        <ele>364</ele>
        <time>2011-11-25T08:52:49Z</time>
      </trkpt>
      <trkpt lat="45.831" lon="4.82183">
        <ele>365</ele>
        <time>2011-11-25T08:52:50Z</time>
      </trkpt>
      <trkpt lat="45.83099" lon="4.8218">
        <ele>365</ele>
        <time>2011-11-25T08:52:51Z</time>
      </trkpt>
      <trkpt lat="45.83093" lon="4.82167">
        <ele>370</ele>
        <time>2011-11-25T08:52:56Z</time>
      </trkpt>
      <trkpt lat="45.8309" lon="4.82161">
        <ele>366</ele>
        <time>2011-11-25T08:52:58Z</time>
      </trkpt>
      <trkpt lat="45.83086" lon="4.82154">
        <ele>363</ele>
        <time>2011-11-25T08:53:01Z</time>
      </trkpt>
      <trkpt lat="45.83081" lon="4.82147">
        <ele>377</ele>
        <time>2011-11-25T08:53:04Z</time>
      </trkpt>
      <trkpt lat="45.83078" lon="4.82142">
        <ele>377</ele>
        <time>2011-11-25T08:53:06Z</time>
      </trkpt>
      <trkpt lat="45.83071" lon="4.82131">
        <ele>377</ele>
        <time>2011-11-25T08:53:11Z</time>
      </trkpt>
      <trkpt lat="45.83065" lon="4.82122">
        <ele>377</ele>
        <time>2011-11-25T08:53:16Z</time>
      </trkpt>
      <trkpt lat="45.83063" lon="4.82121">
        <ele>377</ele>
        <time>2011-11-25T08:53:17Z</time>
      </trkpt>
      <trkpt lat="45.83057" lon="4.82112">
        <ele>376</ele>
        <time>2011-11-25T08:53:21Z</time>
      </trkpt>
      <trkpt lat="45.83055" lon="4.82109">
        <ele>376</ele>
        <time>2011-11-25T08:53:23Z</time>
      </trkpt>
      <trkpt lat="45.83052" lon="4.82104">
        <ele>376</ele>
        <time>2011-11-25T08:53:26Z</time>
      </trkpt>
      <trkpt lat="45.83051" lon="4.82102">
        <ele>376</ele>
        <time>2011-11-25T08:53:27Z</time>
      </trkpt>
      <trkpt lat="45.83049" lon="4.82099">
        <ele>377</ele>
        <time>2011-11-25T08:53:29Z</time>
      </trkpt>
      <trkpt lat="45.83041" lon="4.82088">
        <ele>378</ele>
        <time>2011-11-25T08:53:34Z</time>
      </trkpt>
      <trkpt lat="45.83037" lon="4.82081">
        <ele>372</ele>
        <time>2011-11-25T08:53:37Z</time>
      </trkpt>
      <trkpt lat="45.83034" lon="4.82076">
        <ele>373</ele>
        <time>2011-11-25T08:53:39Z</time>
      </trkpt>
      <trkpt lat="45.83032" lon="4.82073">
        <ele>374</ele>
        <time>2011-11-25T08:53:41Z</time>
      </trkpt>
      <trkpt lat="45.83023" lon="4.82066">
        <ele>376</ele>
        <time>2011-11-25T08:53:46Z</time>
      </trkpt>
      <trkpt lat="45.83013" lon="4.82058">
        <ele>377</ele>
        <time>2011-11-25T08:53:52Z</time>
      </trkpt>
      <trkpt lat="45.83007" lon="4.82053">
        <ele>377</ele>
        <time>2011-11-25T08:53:55Z</time>
      </trkpt>
      <trkpt lat="45.83005" lon="4.82048">
        <ele>377</ele>
        <time>2011-11-25T08:53:57Z</time>
      </trkpt>
      <trkpt lat="45.83001" lon="4.82044">
        <ele>377</ele>
        <time>2011-11-25T08:54:01Z</time>
      </trkpt>
      <trkpt lat="45.82998" lon="4.82035">
        <ele>392</ele>
        <time>2011-11-25T08:54:06Z</time>
      </trkpt>
      <trkpt lat="45.82997" lon="4.82032">
        <ele>392</ele>
        <time>2011-11-25T08:54:08Z</time>
      </trkpt>
      <trkpt lat="45.82997" lon="4.82032">
        <ele>392</ele>
        <time>2011-11-25T08:54:09Z</time>
      </trkpt>
      <trkpt lat="45.82996" lon="4.82031">
        <ele>392</ele>
        <time>2011-11-25T08:54:10Z</time>
      </trkpt>
      <trkpt lat="45.82996" lon="4.8203">
        <ele>392</ele>
        <time>2011-11-25T08:54:11Z</time>
      </trkpt>
      <trkpt lat="45.82993" lon="4.8203">
        <ele>392</ele>
        <time>2011-11-25T08:54:14Z</time>
      </trkpt>
      <trkpt lat="45.8299" lon="4.82032">
        <ele>393</ele>
        <time>2011-11-25T08:54:17Z</time>
      </trkpt>
      <trkpt lat="45.82994" lon="4.82034">
        <ele>392</ele>
        <time>2011-11-25T08:54:31Z</time>
      </trkpt>
      <trkpt lat="45.82993" lon="4.82038">
        <ele>393</ele>
        <time>2011-11-25T08:54:36Z</time>
      </trkpt>
      <trkpt lat="45.82991" lon="4.82043">
        <ele>393</ele>
        <time>2011-11-25T08:54:41Z</time>
      </trkpt>
      <trkpt lat="45.82989" lon="4.82045">
        <ele>393</ele>
        <time>2011-11-25T08:54:42Z</time>
      </trkpt>
      <trkpt lat="45.82988" lon="4.82048">
        <ele>393</ele>
        <time>2011-11-25T08:54:45Z</time>
      </trkpt>
      <trkpt lat="45.82986" lon="4.8205">
        <ele>393</ele>
        <time>2011-11-25T08:54:47Z</time>
      </trkpt>
      <trkpt lat="45.82986" lon="4.82052">
        <ele>393</ele>
        <time>2011-11-25T08:54:48Z</time>
      </trkpt>
      <trkpt lat="45.82985" lon="4.82058">
        <ele>393</ele>
        <time>2011-11-25T08:54:53Z</time>
      </trkpt>
      <trkpt lat="45.82985" lon="4.82063">
        <ele>393</ele>
        <time>2011-11-25T08:54:57Z</time>
      </trkpt>
      <trkpt lat="45.82985" lon="4.82065">
        <ele>393</ele>
        <time>2011-11-25T08:54:59Z</time>
      </trkpt>
      <trkpt lat="45.82984" lon="4.82068">
        <ele>393</ele>
        <time>2011-11-25T08:55:02Z</time>
      </trkpt>
      <trkpt lat="45.82983" lon="4.82069">
        <ele>393</ele>
        <time>2011-11-25T08:55:03Z</time>
      </trkpt>
      <trkpt lat="45.82982" lon="4.8207">
        <ele>393</ele>
        <time>2011-11-25T08:55:04Z</time>
      </trkpt>
      <trkpt lat="45.82981" lon="4.82073">
        <ele>393</ele>
        <time>2011-11-25T08:55:07Z</time>
      </trkpt>
      <trkpt lat="45.82981" lon="4.82074">
        <ele>393</ele>
        <time>2011-11-25T08:55:08Z</time>
      </trkpt>
      <trkpt lat="45.82981" lon="4.82077">
        <ele>393</ele>
        <time>2011-11-25T08:55:10Z</time>
      </trkpt>
      <trkpt lat="45.82979" lon="4.82083">
        <ele>393</ele>
        <time>2011-11-25T08:55:17Z</time>
      </trkpt>
      <trkpt lat="45.82979" lon="4.82085">
        <ele>396</ele>
        <time>2011-11-25T08:55:18Z</time>
      </trkpt>
      <trkpt lat="45.82978" lon="4.8209">
        <ele>397</ele>
        <time>2011-11-25T08:55:22Z</time>
      </trkpt>
      <trkpt lat="45.82976" lon="4.82091">
        <ele>397</ele>
        <time>2011-11-25T08:55:23Z</time>
      </trkpt>
      <trkpt lat="45.82974" lon="4.82096">
        <ele>398</ele>
        <time>2011-11-25T08:55:27Z</time>
      </trkpt>
      <trkpt lat="45.82974" lon="4.82097">
        <ele>398</ele>
        <time>2011-11-25T08:55:28Z</time>
      </trkpt>
      <trkpt lat="45.82974" lon="4.82099">
        <ele>398</ele>
        <time>2011-11-25T08:55:32Z</time>
      </trkpt>
      <trkpt lat="45.82974" lon="4.82102">
        <ele>398</ele>
        <time>2011-11-25T08:55:35Z</time>
      </trkpt>
      <trkpt lat="45.82972" lon="4.82105">
        <ele>399</ele>
        <time>2011-11-25T08:55:39Z</time>
      </trkpt>
      <trkpt lat="45.82968" lon="4.82107">
        <ele>399</ele>
        <time>2011-11-25T08:55:43Z</time>
      </trkpt>
      <trkpt lat="45.82965" lon="4.82109">
        <ele>400</ele>
        <time>2011-11-25T08:55:45Z</time>
      </trkpt>
      <trkpt lat="45.82963" lon="4.82115">
        <ele>400</ele>
        <time>2011-11-25T08:55:50Z</time>
      </trkpt>
      <trkpt lat="45.82962" lon="4.82117">
        <ele>400</ele>
        <time>2011-11-25T08:55:52Z</time>
      </trkpt>
      <trkpt lat="45.82961" lon="4.82122">
        <ele>401</ele>
        <time>2011-11-25T08:55:57Z</time>
      </trkpt>
      <trkpt lat="45.82961" lon="4.82125">
        <ele>401</ele>
        <time>2011-11-25T08:55:59Z</time>
      </trkpt>
      <trkpt lat="45.82962" lon="4.82128">
        <ele>401</ele>
        <time>2011-11-25T08:56:02Z</time>
      </trkpt>
      <trkpt lat="45.8296" lon="4.82129">
        <ele>401</ele>
        <time>2011-11-25T08:56:03Z</time>
      </trkpt>
      <trkpt lat="45.82959" lon="4.82133">
        <ele>402</ele>
        <time>2011-11-25T08:56:06Z</time>
      </trkpt>
      <trkpt lat="45.82961" lon="4.82136">
        <ele>402</ele>
        <time>2011-11-25T08:56:09Z</time>
      </trkpt>
      <trkpt lat="45.82961" lon="4.8214">
        <ele>402</ele>
        <time>2011-11-25T08:56:11Z</time>
      </trkpt>
      <trkpt lat="45.8296" lon="4.82141">
        <ele>402</ele>
        <time>2011-11-25T08:56:12Z</time>
      </trkpt>
      <trkpt lat="45.82957" lon="4.82144">
        <ele>402</ele>
        <time>2011-11-25T08:56:15Z</time>
      </trkpt>
      <trkpt lat="45.82955" lon="4.82148">
        <ele>403</ele>
        <time>2011-11-25T08:56:19Z</time>
      </trkpt>
      <trkpt lat="45.82954" lon="4.82149">
        <ele>403</ele>
        <time>2011-11-25T08:56:20Z</time>
      </trkpt>
      <trkpt lat="45.82951" lon="4.82151">
        <ele>403</ele>
        <time>2011-11-25T08:56:22Z</time>
      </trkpt>
      <trkpt lat="45.82951" lon="4.82152">
        <ele>404</ele>
        <time>2011-11-25T08:56:23Z</time>
      </trkpt>
      <trkpt lat="45.82951" lon="4.82152">
        <ele>404</ele>
        <time>2011-11-25T08:56:24Z</time>
      </trkpt>
      <trkpt lat="45.82948" lon="4.82155">
        <ele>404</ele>
        <time>2011-11-25T08:56:28Z</time>
      </trkpt>
      <trkpt lat="45.82945" lon="4.82159">
        <ele>405</ele>
        <time>2011-11-25T08:56:32Z</time>
      </trkpt>
      <trkpt lat="45.8294" lon="4.82165">
        <ele>406</ele>
        <time>2011-11-25T08:56:39Z</time>
      </trkpt>
      <trkpt lat="45.82939" lon="4.82169">
        <ele>412</ele>
        <time>2011-11-25T08:56:42Z</time>
      </trkpt>
      <trkpt lat="45.82939" lon="4.82172">
        <ele>413</ele>
        <time>2011-11-25T08:56:44Z</time>
      </trkpt>
      <trkpt lat="45.82939" lon="4.82173">
        <ele>413</ele>
        <time>2011-11-25T08:56:45Z</time>
      </trkpt>
      <trkpt lat="45.82935" lon="4.82181">
        <ele>413</ele>
        <time>2011-11-25T08:56:51Z</time>
      </trkpt>
      <trkpt lat="45.82933" lon="4.82187">
        <ele>413</ele>
        <time>2011-11-25T08:56:57Z</time>
      </trkpt>
      <trkpt lat="45.82931" lon="4.82191">
        <ele>414</ele>
        <time>2011-11-25T08:57:02Z</time>
      </trkpt>
      <trkpt lat="45.8293" lon="4.82192">
        <ele>414</ele>
        <time>2011-11-25T08:57:03Z</time>
      </trkpt>
      <trkpt lat="45.82928" lon="4.82195">
        <ele>414</ele>
        <time>2011-11-25T08:57:07Z</time>
      </trkpt>
      <trkpt lat="45.82927" lon="4.82198">
        <ele>414</ele>
        <time>2011-11-25T08:57:09Z</time>
      </trkpt>
      <trkpt lat="45.82927" lon="4.82199">
        <ele>414</ele>
        <time>2011-11-25T08:57:10Z</time>
      </trkpt>
      <trkpt lat="45.82925" lon="4.82202">
        <ele>415</ele>
        <time>2011-11-25T08:57:13Z</time>
      </trkpt>
      <trkpt lat="45.82924" lon="4.82203">
        <ele>415</ele>
        <time>2011-11-25T08:57:15Z</time>
      </trkpt>
      <trkpt lat="45.82916" lon="4.82208">
        <ele>424</ele>
        <time>2011-11-25T08:57:21Z</time>
      </trkpt>
      <trkpt lat="45.82915" lon="4.82208">
        <ele>424</ele>
        <time>2011-11-25T08:57:22Z</time>
      </trkpt>
      <trkpt lat="45.82914" lon="4.82204">
        <ele>424</ele>
        <time>2011-11-25T08:57:26Z</time>
      </trkpt>
      <trkpt lat="45.82912" lon="4.82202">
        <ele>424</ele>
        <time>2011-11-25T08:57:41Z</time>
      </trkpt>
      <trkpt lat="45.8291" lon="4.82201">
        <ele>424</ele>
        <time>2011-11-25T08:57:46Z</time>
      </trkpt>
      <trkpt lat="45.82906" lon="4.82198">
        <ele>424</ele>
        <time>2011-11-25T08:57:52Z</time>
      </trkpt>
      <trkpt lat="45.82901" lon="4.82194">
        <ele>423</ele>
        <time>2011-11-25T08:57:57Z</time>
      </trkpt>
      <trkpt lat="45.82899" lon="4.82192">
        <ele>423</ele>
        <time>2011-11-25T08:57:59Z</time>
      </trkpt>
      <trkpt lat="45.82895" lon="4.82189">
        <ele>423</ele>
        <time>2011-11-25T08:58:03Z</time>
      </trkpt>
      <trkpt lat="45.82888" lon="4.82186">
        <ele>424</ele>
        <time>2011-11-25T08:58:10Z</time>
      </trkpt>
      <trkpt lat="45.82885" lon="4.82182">
        <ele>424</ele>
        <time>2011-11-25T08:58:14Z</time>
      </trkpt>
      <trkpt lat="45.82882" lon="4.82179">
        <ele>424</ele>
        <time>2011-11-25T08:58:17Z</time>
      </trkpt>
      <trkpt lat="45.82877" lon="4.82176">
        <ele>425</ele>
        <time>2011-11-25T08:58:22Z</time>
      </trkpt>
      <trkpt lat="45.82876" lon="4.82176">
        <ele>425</ele>
        <time>2011-11-25T08:58:23Z</time>
      </trkpt>
      <trkpt lat="45.82874" lon="4.82174">
        <ele>425</ele>
        <time>2011-11-25T08:58:25Z</time>
      </trkpt>
      <trkpt lat="45.82871" lon="4.82173">
        <ele>426</ele>
        <time>2011-11-25T08:58:28Z</time>
      </trkpt>
      <trkpt lat="45.82869" lon="4.82172">
        <ele>426</ele>
        <time>2011-11-25T08:58:30Z</time>
      </trkpt>
      <trkpt lat="45.82868" lon="4.82172">
        <ele>426</ele>
        <time>2011-11-25T08:58:31Z</time>
      </trkpt>
      <trkpt lat="45.82864" lon="4.82172">
        <ele>426</ele>
        <time>2011-11-25T08:58:35Z</time>
      </trkpt>
      <trkpt lat="45.82862" lon="4.82172">
        <ele>427</ele>
        <time>2011-11-25T08:58:37Z</time>
      </trkpt>
      <trkpt lat="45.82859" lon="4.82172">
        <ele>427</ele>
        <time>2011-11-25T08:58:42Z</time>
      </trkpt>
      <trkpt lat="45.82854" lon="4.82173">
        <ele>427</ele>
        <time>2011-11-25T08:58:46Z</time>
      </trkpt>
      <trkpt lat="45.8285" lon="4.82174">
        <ele>428</ele>
        <time>2011-11-25T08:58:49Z</time>
      </trkpt>
      <trkpt lat="45.82849" lon="4.82174">
        <ele>428</ele>
        <time>2011-11-25T08:58:50Z</time>
      </trkpt>
      <trkpt lat="45.82846" lon="4.82177">
        <ele>428</ele>
        <time>2011-11-25T08:58:52Z</time>
      </trkpt>
      <trkpt lat="45.82843" lon="4.82178">
        <ele>428</ele>
        <time>2011-11-25T08:58:56Z</time>
      </trkpt>
      <trkpt lat="45.82842" lon="4.82176">
        <ele>428</ele>
        <time>2011-11-25T08:58:57Z</time>
      </trkpt>
      <trkpt lat="45.82839" lon="4.82165">
        <ele>426</ele>
        <time>2011-11-25T08:59:02Z</time>
      </trkpt>
      <trkpt lat="45.82837" lon="4.82156">
        <ele>424</ele>
        <time>2011-11-25T08:59:06Z</time>
      </trkpt>
      <trkpt lat="45.82836" lon="4.8215">
        <ele>422</ele>
        <time>2011-11-25T08:59:08Z</time>
      </trkpt>
      <trkpt lat="45.82835" lon="4.82147">
        <ele>422</ele>
        <time>2011-11-25T08:59:09Z</time>
      </trkpt>
      <trkpt lat="45.82836" lon="4.8214">
        <ele>420</ele>
        <time>2011-11-25T08:59:13Z</time>
      </trkpt>
      <trkpt lat="45.82837" lon="4.82136">
        <ele>420</ele>
        <time>2011-11-25T08:59:15Z</time>
      </trkpt>
      <trkpt lat="45.82842" lon="4.82135">
        <ele>419</ele>
        <time>2011-11-25T08:59:18Z</time>
      </trkpt>
      <trkpt lat="45.82846" lon="4.82133">
        <ele>419</ele>
        <time>2011-11-25T08:59:21Z</time>
      </trkpt>
      <trkpt lat="45.82849" lon="4.82132">
        <ele>418</ele>
        <time>2011-11-25T08:59:23Z</time>
      </trkpt>
      <trkpt lat="45.82853" lon="4.82128">
        <ele>417</ele>
        <time>2011-11-25T08:59:25Z</time>
      </trkpt>
      <trkpt lat="45.8286" lon="4.82121">
        <ele>416</ele>
        <time>2011-11-25T08:59:29Z</time>
      </trkpt>
      <trkpt lat="45.82869" lon="4.82119">
        <ele>415</ele>
        <time>2011-11-25T08:59:34Z</time>
      </trkpt>
      <trkpt lat="45.82875" lon="4.82116">
        <ele>415</ele>
        <time>2011-11-25T08:59:37Z</time>
      </trkpt>
      <trkpt lat="45.82879" lon="4.82114">
        <ele>414</ele>
        <time>2011-11-25T08:59:39Z</time>
      </trkpt>
      <trkpt lat="45.82886" lon="4.82112">
        <ele>413</ele>
        <time>2011-11-25T08:59:43Z</time>
      </trkpt>
      <trkpt lat="45.82887" lon="4.82109">
        <ele>413</ele>
        <time>2011-11-25T08:59:44Z</time>
      </trkpt>
      <trkpt lat="45.82894" lon="4.82103">
        <ele>411</ele>
        <time>2011-11-25T08:59:49Z</time>
      </trkpt>
      <trkpt lat="45.829" lon="4.82097">
        <ele>410</ele>
        <time>2011-11-25T08:59:53Z</time>
      </trkpt>
      <trkpt lat="45.829" lon="4.82095">
        <ele>409</ele>
        <time>2011-11-25T08:59:54Z</time>
      </trkpt>
      <trkpt lat="45.82902" lon="4.82092">
        <ele>409</ele>
        <time>2011-11-25T08:59:59Z</time>
      </trkpt>
      <trkpt lat="45.82904" lon="4.82086">
        <ele>407</ele>
        <time>2011-11-25T09:00:02Z</time>
      </trkpt>
      <trkpt lat="45.82904" lon="4.82085">
        <ele>407</ele>
        <time>2011-11-25T09:00:03Z</time>
      </trkpt>
      <trkpt lat="45.82906" lon="4.82072">
        <ele>405</ele>
        <time>2011-11-25T09:00:08Z</time>
      </trkpt>
      <trkpt lat="45.8291" lon="4.82058">
        <ele>406</ele>
        <time>2011-11-25T09:00:13Z</time>
      </trkpt>
      <trkpt lat="45.8291" lon="4.82056">
        <ele>406</ele>
        <time>2011-11-25T09:00:14Z</time>
      </trkpt>
      <trkpt lat="45.82915" lon="4.82051">
        <ele>406</ele>
        <time>2011-11-25T09:00:17Z</time>
      </trkpt>
      <trkpt lat="45.82918" lon="4.82046">
        <ele>397</ele>
        <time>2011-11-25T09:00:19Z</time>
      </trkpt>
      <trkpt lat="45.82927" lon="4.82037">
        <ele>397</ele>
        <time>2011-11-25T09:00:24Z</time>
      </trkpt>
      <trkpt lat="45.82931" lon="4.82035">
        <ele>396</ele>
        <time>2011-11-25T09:00:26Z</time>
      </trkpt>
      <trkpt lat="45.82938" lon="4.82031">
        <ele>396</ele>
        <time>2011-11-25T09:00:29Z</time>
      </trkpt>
      <trkpt lat="45.8295" lon="4.82027">
        <ele>395</ele>
        <time>2011-11-25T09:00:34Z</time>
      </trkpt>
      <trkpt lat="45.82961" lon="4.82025">
        <ele>394</ele>
        <time>2011-11-25T09:00:38Z</time>
      </trkpt>
      <trkpt lat="45.8297" lon="4.82023">
        <ele>394</ele>
        <time>2011-11-25T09:00:41Z</time>
      </trkpt>
      <trkpt lat="45.82976" lon="4.82023">
        <ele>393</ele>
        <time>2011-11-25T09:00:43Z</time>
      </trkpt>
      <trkpt lat="45.82988" lon="4.82023">
        <ele>392</ele>
        <time>2011-11-25T09:00:48Z</time>
      </trkpt>
      <trkpt lat="45.82989" lon="4.82024">
        <ele>392</ele>
        <time>2011-11-25T09:00:49Z</time>
      </trkpt>
      <trkpt lat="45.82991" lon="4.82023">
        <ele>392</ele>
        <time>2011-11-25T09:00:50Z</time>
      </trkpt>
      <trkpt lat="45.82991" lon="4.82019">
        <ele>392</ele>
        <time>2011-11-25T09:00:52Z</time>
      </trkpt>
      <trkpt lat="45.82982" lon="4.82008">
        <ele>392</ele>
        <time>2011-11-25T09:00:57Z</time>
      </trkpt>
      <trkpt lat="45.8298" lon="4.82006">
        <ele>392</ele>
        <time>2011-11-25T09:00:58Z</time>
      </trkpt>
      <trkpt lat="45.82976" lon="4.82002">
        <ele>392</ele>
        <time>2011-11-25T09:01:00Z</time>
      </trkpt>
      <trkpt lat="45.82968" lon="4.81994">
        <ele>393</ele>
        <time>2011-11-25T09:01:04Z</time>
      </trkpt>
      <trkpt lat="45.82962" lon="4.81996">
        <ele>394</ele>
        <time>2011-11-25T09:01:07Z</time>
      </trkpt>
      <trkpt lat="45.82961" lon="4.81997">
        <ele>394</ele>
        <time>2011-11-25T09:01:08Z</time>
      </trkpt>
      <trkpt lat="45.82957" lon="4.81999">
        <ele>394</ele>
        <time>2011-11-25T09:01:10Z</time>
      </trkpt>
      <trkpt lat="45.82953" lon="4.82002">
        <ele>395</ele>
        <time>2011-11-25T09:01:12Z</time>
      </trkpt>
      <trkpt lat="45.82948" lon="4.82003">
        <ele>395</ele>
        <time>2011-11-25T09:01:15Z</time>
      </trkpt>
      <trkpt lat="45.82947" lon="4.82004">
        <ele>395</ele>
        <time>2011-11-25T09:01:16Z</time>
      </trkpt>
      <trkpt lat="45.82946" lon="4.82009">
        <ele>395</ele>
        <time>2011-11-25T09:01:19Z</time>
      </trkpt>
      <trkpt lat="45.82945" lon="4.82012">
        <ele>396</ele>
        <time>2011-11-25T09:01:21Z</time>
      </trkpt>
      <trkpt lat="45.82935" lon="4.82017">
        <ele>396</ele>
        <time>2011-11-25T09:01:26Z</time>
      </trkpt>
      <trkpt lat="45.82933" lon="4.82016">
        <ele>396</ele>
        <time>2011-11-25T09:01:27Z</time>
      </trkpt>
      <trkpt lat="45.8293" lon="4.82017">
        <ele>397</ele>
        <time>2011-11-25T09:01:29Z</time>
      </trkpt>
      <trkpt lat="45.82924" lon="4.82023">
        <ele>397</ele>
        <time>2011-11-25T09:01:33Z</time>
      </trkpt>
      <trkpt lat="45.82917" lon="4.82026">
        <ele>397</ele>
        <time>2011-11-25T09:01:37Z</time>
      </trkpt>
      <trkpt lat="45.82915" lon="4.82025">
        <ele>404</ele>
        <time>2011-11-25T09:01:39Z</time>
      </trkpt>
      <trkpt lat="45.82912" lon="4.82026">
        <ele>405</ele>
        <time>2011-11-25T09:01:41Z</time>
      </trkpt>
      <trkpt lat="45.82909" lon="4.82026">
        <ele>405</ele>
        <time>2011-11-25T09:01:42Z</time>
      </trkpt>
      <trkpt lat="45.82907" lon="4.82026">
        <ele>405</ele>
        <time>2011-11-25T09:01:43Z</time>
      </trkpt>
      <trkpt lat="45.82905" lon="4.82027">
        <ele>405</ele>
        <time>2011-11-25T09:01:45Z</time>
      </trkpt>
      <trkpt lat="45.82903" lon="4.82027">
        <ele>405</ele>
        <time>2011-11-25T09:01:47Z</time>
      </trkpt>
      <trkpt lat="45.82898" lon="4.82028">
        <ele>406</ele>
        <time>2011-11-25T09:01:50Z</time>
      </trkpt>
      <trkpt lat="45.82898" lon="4.82026">
        <ele>406</ele>
        <time>2011-11-25T09:01:53Z</time>
      </trkpt>
      <trkpt lat="45.82895" lon="4.82025">
        <ele>406</ele>
        <time>2011-11-25T09:01:55Z</time>
      </trkpt>
      <trkpt lat="45.82887" lon="4.82027">
        <ele>407</ele>
        <time>2011-11-25T09:01:58Z</time>
      </trkpt>
      <trkpt lat="45.82884" lon="4.82029">
        <ele>407</ele>
        <time>2011-11-25T09:02:02Z</time>
      </trkpt>
      <trkpt lat="45.82883" lon="4.8203">
        <ele>408</ele>
        <time>2011-11-25T09:02:03Z</time>
      </trkpt>
      <trkpt lat="45.82878" lon="4.82031">
        <ele>408</ele>
        <time>2011-11-25T09:02:08Z</time>
      </trkpt>
      <trkpt lat="45.82876" lon="4.82031">
        <ele>408</ele>
        <time>2011-11-25T09:02:09Z</time>
      </trkpt>
      <trkpt lat="45.82873" lon="4.8203">
        <ele>409</ele>
        <time>2011-11-25T09:02:11Z</time>
      </trkpt>
      <trkpt lat="45.82865" lon="4.8203">
        <ele>409</ele>
        <time>2011-11-25T09:02:16Z</time>
      </trkpt>
      <trkpt lat="45.82862" lon="4.82027">
        <ele>410</ele>
        <time>2011-11-25T09:02:19Z</time>
      </trkpt>
      <trkpt lat="45.82862" lon="4.82027">
        <ele>410</ele>
        <time>2011-11-25T09:02:20Z</time>
      </trkpt>
      <trkpt lat="45.82859" lon="4.82026">
        <ele>410</ele>
        <time>2011-11-25T09:02:22Z</time>
      </trkpt>
      <trkpt lat="45.82858" lon="4.82026">
        <ele>410</ele>
        <time>2011-11-25T09:02:23Z</time>
      </trkpt>
      <trkpt lat="45.82851" lon="4.82028">
        <ele>411</ele>
        <time>2011-11-25T09:02:26Z</time>
      </trkpt>
      <trkpt lat="45.82841" lon="4.82029">
        <ele>411</ele>
        <time>2011-11-25T09:02:31Z</time>
      </trkpt>
      <trkpt lat="45.82839" lon="4.8203">
        <ele>412</ele>
        <time>2011-11-25T09:02:32Z</time>
      </trkpt>
      <trkpt lat="45.82834" lon="4.82032">
        <ele>412</ele>
        <time>2011-11-25T09:02:36Z</time>
      </trkpt>
      <trkpt lat="45.82834" lon="4.82034">
        <ele>412</ele>
        <time>2011-11-25T09:02:37Z</time>
      </trkpt>
      <trkpt lat="45.82834" lon="4.82036">
        <ele>412</ele>
        <time>2011-11-25T09:02:40Z</time>
      </trkpt>
      <trkpt lat="45.82833" lon="4.82036">
        <ele>421</ele>
        <time>2011-11-25T09:02:41Z</time>
      </trkpt>
      <trkpt lat="45.82833" lon="4.82032">
        <ele>412</ele>
        <time>2011-11-25T09:02:44Z</time>
      </trkpt>
      <trkpt lat="45.8283" lon="4.82024">
        <ele>420</ele>
        <time>2011-11-25T09:02:48Z</time>
      </trkpt>
      <trkpt lat="45.82826" lon="4.82023">
        <ele>420</ele>
        <time>2011-11-25T09:02:50Z</time>
      </trkpt>
      <trkpt lat="45.82822" lon="4.8202">
        <ele>420</ele>
        <time>2011-11-25T09:02:53Z</time>
      </trkpt>
      <trkpt lat="45.8282" lon="4.82014">
        <ele>420</ele>
        <time>2011-11-25T09:02:59Z</time>
      </trkpt>
      <trkpt lat="45.82815" lon="4.82014">
        <ele>421</ele>
        <time>2011-11-25T09:03:04Z</time>
      </trkpt>
      <trkpt lat="45.8281" lon="4.82015">
        <ele>421</ele>
        <time>2011-11-25T09:03:08Z</time>
      </trkpt>
      <trkpt lat="45.82807" lon="4.82013">
        <ele>422</ele>
        <time>2011-11-25T09:03:11Z</time>
      </trkpt>
      <trkpt lat="45.82803" lon="4.82012">
        <ele>422</ele>
        <time>2011-11-25T09:03:16Z</time>
      </trkpt>
      <trkpt lat="45.82801" lon="4.82013">
        <ele>422</ele>
        <time>2011-11-25T09:03:18Z</time>
      </trkpt>
      <trkpt lat="45.82799" lon="4.82014">
        <ele>423</ele>
        <time>2011-11-25T09:03:20Z</time>
      </trkpt>
      <trkpt lat="45.82796" lon="4.82013">
        <ele>423</ele>
        <time>2011-11-25T09:03:22Z</time>
      </trkpt>
      <trkpt lat="45.82792" lon="4.82011">
        <ele>424</ele>
        <time>2011-11-25T09:03:25Z</time>
      </trkpt>
      <trkpt lat="45.82791" lon="4.8201">
        <ele>424</ele>
        <time>2011-11-25T09:03:26Z</time>
      </trkpt>
      <trkpt lat="45.82788" lon="4.82004">
        <ele>424</ele>
        <time>2011-11-25T09:03:32Z</time>
      </trkpt>
      <trkpt lat="45.82789" lon="4.82007">
        <ele>424</ele>
        <time>2011-11-25T09:03:36Z</time>
      </trkpt>
      <trkpt lat="45.82788" lon="4.8201">
        <ele>424</ele>
        <time>2011-11-25T09:03:38Z</time>
      </trkpt>
      <trkpt lat="45.82785" lon="4.82015">
        <ele>424</ele>
        <time>2011-11-25T09:03:41Z</time>
      </trkpt>
      <trkpt lat="45.82784" lon="4.82019">
        <ele>425</ele>
        <time>2011-11-25T09:03:44Z</time>
      </trkpt>
      <trkpt lat="45.82783" lon="4.8202">
        <ele>425</ele>
        <time>2011-11-25T09:03:46Z</time>
      </trkpt>
      <trkpt lat="45.82779" lon="4.82019">
        <ele>425</ele>
        <time>2011-11-25T09:03:50Z</time>
      </trkpt>
      <trkpt lat="45.82781" lon="4.8202">
        <ele>425</ele>
        <time>2011-11-25T09:03:55Z</time>
      </trkpt>
      <trkpt lat="45.8278" lon="4.8203">
        <ele>425</ele>
        <time>2011-11-25T09:04:04Z</time>
      </trkpt>
      <trkpt lat="45.82777" lon="4.82032">
        <ele>425</ele>
        <time>2011-11-25T09:04:08Z</time>
      </trkpt>
      <trkpt lat="45.82776" lon="4.82032">
        <ele>425</ele>
        <time>2011-11-25T09:04:12Z</time>
      </trkpt>
      <trkpt lat="45.82774" lon="4.82032">
        <ele>425</ele>
        <time>2011-11-25T09:04:14Z</time>
      </trkpt>
      <trkpt lat="45.82771" lon="4.82031">
        <ele>425</ele>
        <time>2011-11-25T09:04:18Z</time>
      </trkpt>
      <trkpt lat="45.82766" lon="4.82031">
        <ele>426</ele>
        <time>2011-11-25T09:04:21Z</time>
      </trkpt>
      <trkpt lat="45.82761" lon="4.82032">
        <ele>426</ele>
        <time>2011-11-25T09:04:24Z</time>
      </trkpt>
      <trkpt lat="45.82759" lon="4.82032">
        <ele>426</ele>
        <time>2011-11-25T09:04:25Z</time>
      </trkpt>
      <trkpt lat="45.82758" lon="4.82027">
        <ele>427</ele>
        <time>2011-11-25T09:04:30Z</time>
      </trkpt>
      <trkpt lat="45.82758" lon="4.82025">
        <ele>427</ele>
        <time>2011-11-25T09:04:31Z</time>
      </trkpt>
      <trkpt lat="45.82752" lon="4.82023">
        <ele>427</ele>
        <time>2011-11-25T09:04:38Z</time>
      </trkpt>
      <trkpt lat="45.82751" lon="4.82023">
        <ele>427</ele>
        <time>2011-11-25T09:04:39Z</time>
      </trkpt>
      <trkpt lat="45.82745" lon="4.82022">
        <ele>436</ele>
        <time>2011-11-25T09:04:44Z</time>
      </trkpt>
      <trkpt lat="45.82743" lon="4.82021">
        <ele>436</ele>
        <time>2011-11-25T09:04:46Z</time>
      </trkpt>
      <trkpt lat="45.8274" lon="4.8202">
        <ele>436</ele>
        <time>2011-11-25T09:04:49Z</time>
      </trkpt>
      <trkpt lat="45.82737" lon="4.8202">
        <ele>437</ele>
        <time>2011-11-25T09:04:52Z</time>
      </trkpt>
      <trkpt lat="45.82733" lon="4.82019">
        <ele>437</ele>
        <time>2011-11-25T09:04:55Z</time>
      </trkpt>
      <trkpt lat="45.8273" lon="4.82019">
        <ele>437</ele>
        <time>2011-11-25T09:04:59Z</time>
      </trkpt>
      <trkpt lat="45.82732" lon="4.82023">
        <ele>437</ele>
        <time>2011-11-25T09:05:02Z</time>
      </trkpt>
      <trkpt lat="45.82731" lon="4.82025">
        <ele>437</ele>
        <time>2011-11-25T09:05:04Z</time>
      </trkpt>
      <trkpt lat="45.82731" lon="4.82025">
        <ele>437</ele>
        <time>2011-11-25T09:05:06Z</time>
      </trkpt>
      <trkpt lat="45.82726" lon="4.82027">
        <ele>438</ele>
        <time>2011-11-25T09:05:09Z</time>
      </trkpt>
      <trkpt lat="45.82723" lon="4.82027">
        <ele>438</ele>
        <time>2011-11-25T09:05:13Z</time>
      </trkpt>
      <trkpt lat="45.82719" lon="4.82031">
        <ele>439</ele>
        <time>2011-11-25T09:05:19Z</time>
      </trkpt>
      <trkpt lat="45.82717" lon="4.82033">
        <ele>439</ele>
        <time>2011-11-25T09:05:22Z</time>
      </trkpt>
      <trkpt lat="45.82715" lon="4.82034">
        <ele>439</ele>
        <time>2011-11-25T09:05:26Z</time>
      </trkpt>
      <trkpt lat="45.82712" lon="4.82035">
        <ele>440</ele>
        <time>2011-11-25T09:05:32Z</time>
      </trkpt>
      <trkpt lat="45.82708" lon="4.82035">
        <ele>440</ele>
        <time>2011-11-25T09:05:33Z</time>
      </trkpt>
      <trkpt lat="45.82698" lon="4.82036">
        <ele>441</ele>
        <time>2011-11-25T09:05:38Z</time>
      </trkpt>
      <trkpt lat="45.82693" lon="4.82034">
        <ele>442</ele>
        <time>2011-11-25T09:05:43Z</time>
      </trkpt>
      <trkpt lat="45.82693" lon="4.82034">
        <ele>442</ele>
        <time>2011-11-25T09:05:44Z</time>
      </trkpt>
      <trkpt lat="45.82692" lon="4.82035">
        <ele>442</ele>
        <time>2011-11-25T09:05:46Z</time>
      </trkpt>
      <trkpt lat="45.8269" lon="4.82036">
        <ele>442</ele>
        <time>2011-11-25T09:05:49Z</time>
      </trkpt>
      <trkpt lat="45.82688" lon="4.82037">
        <ele>442</ele>
        <time>2011-11-25T09:05:51Z</time>
      </trkpt>
      <trkpt lat="45.82683" lon="4.82037">
        <ele>443</ele>
        <time>2011-11-25T09:05:58Z</time>
      </trkpt>
      <trkpt lat="45.82681" lon="4.8204">
        <ele>443</ele>
        <time>2011-11-25T09:06:02Z</time>
      </trkpt>
      <trkpt lat="45.82679" lon="4.82039">
        <ele>443</ele>
        <time>2011-11-25T09:06:04Z</time>
      </trkpt>
      <trkpt lat="45.82673" lon="4.82034">
        <ele>444</ele>
        <time>2011-11-25T09:06:11Z</time>
      </trkpt>
      <trkpt lat="45.82671" lon="4.82034">
        <ele>444</ele>
        <time>2011-11-25T09:06:12Z</time>
      </trkpt>
      <trkpt lat="45.82667" lon="4.82033">
        <ele>444</ele>
        <time>2011-11-25T09:06:17Z</time>
      </trkpt>
      <trkpt lat="45.82665" lon="4.82032">
        <ele>453</ele>
        <time>2011-11-25T09:06:18Z</time>
      </trkpt>
      <trkpt lat="45.82661" lon="4.82031">
        <ele>453</ele>
        <time>2011-11-25T09:06:22Z</time>
      </trkpt>
      <trkpt lat="45.82661" lon="4.8203">
        <ele>453</ele>
        <time>2011-11-25T09:06:23Z</time>
      </trkpt>
      <trkpt lat="45.82659" lon="4.8203">
        <ele>453</ele>
        <time>2011-11-25T09:06:24Z</time>
      </trkpt>
      <trkpt lat="45.82654" lon="4.82027">
        <ele>454</ele>
        <time>2011-11-25T09:06:29Z</time>
      </trkpt>
      <trkpt lat="45.82653" lon="4.82029">
        <ele>454</ele>
        <time>2011-11-25T09:06:32Z</time>
      </trkpt>
      <trkpt lat="45.82652" lon="4.82028">
        <ele>454</ele>
        <time>2011-11-25T09:06:33Z</time>
      </trkpt>
      <trkpt lat="45.82649" lon="4.82027">
        <ele>454</ele>
        <time>2011-11-25T09:06:37Z</time>
      </trkpt>
      <trkpt lat="45.82648" lon="4.82028">
        <ele>454</ele>
        <time>2011-11-25T09:06:38Z</time>
      </trkpt>
      <trkpt lat="45.82642" lon="4.82029">
        <ele>454</ele>
        <time>2011-11-25T09:06:43Z</time>
      </trkpt>
      <trkpt lat="45.82641" lon="4.82027">
        <ele>454</ele>
        <time>2011-11-25T09:06:45Z</time>
      </trkpt>
      <trkpt lat="45.82639" lon="4.82023">
        <ele>454</ele>
        <time>2011-11-25T09:06:49Z</time>
      </trkpt>
      <trkpt lat="45.82637" lon="4.8202">
        <ele>455</ele>
        <time>2011-11-25T09:06:52Z</time>
      </trkpt>
      <trkpt lat="45.82631" lon="4.8202">
        <ele>455</ele>
        <time>2011-11-25T09:06:58Z</time>
      </trkpt>
      <trkpt lat="45.82627" lon="4.82021">
        <ele>455</ele>
        <time>2011-11-25T09:07:04Z</time>
      </trkpt>
      <trkpt lat="45.82622" lon="4.8202">
        <ele>456</ele>
        <time>2011-11-25T09:07:10Z</time>
      </trkpt>
      <trkpt lat="45.82622" lon="4.82019">
        <ele>456</ele>
        <time>2011-11-25T09:07:11Z</time>
      </trkpt>
      <trkpt lat="45.82616" lon="4.82021">
        <ele>456</ele>
        <time>2011-11-25T09:07:32Z</time>
      </trkpt>
      <trkpt lat="45.82611" lon="4.82018">
        <ele>457</ele>
        <time>2011-11-25T09:07:39Z</time>
      </trkpt>
      <trkpt lat="45.82612" lon="4.82017">
        <ele>456</ele>
        <time>2011-11-25T09:07:47Z</time>
      </trkpt>
      <trkpt lat="45.82616" lon="4.82016">
        <ele>456</ele>
        <time>2011-11-25T09:07:53Z</time>
      </trkpt>
      <trkpt lat="45.82617" lon="4.82017">
        <ele>456</ele>
        <time>2011-11-25T09:07:54Z</time>
      </trkpt>
      <trkpt lat="45.82617" lon="4.82017">
        <ele>456</ele>
        <time>2011-11-25T09:07:55Z</time>
      </trkpt>
      <trkpt lat="45.82622" lon="4.82019">
        <ele>456</ele>
        <time>2011-11-25T09:08:02Z</time>
      </trkpt>
      <trkpt lat="45.82628" lon="4.82018">
        <ele>455</ele>
        <time>2011-11-25T09:08:06Z</time>
      </trkpt>
      <trkpt lat="45.82629" lon="4.82017">
        <ele>455</ele>
        <time>2011-11-25T09:08:07Z</time>
      </trkpt>
      <trkpt lat="45.82635" lon="4.82019">
        <ele>455</ele>
        <time>2011-11-25T09:08:11Z</time>
      </trkpt>
      <trkpt lat="45.82636" lon="4.8202">
        <ele>455</ele>
        <time>2011-11-25T09:08:12Z</time>
      </trkpt>
      <trkpt lat="45.82638" lon="4.82027">
        <ele>454</ele>
        <time>2011-11-25T09:08:15Z</time>
      </trkpt>
      <trkpt lat="45.82644" lon="4.82027">
        <ele>454</ele>
        <time>2011-11-25T09:08:18Z</time>
      </trkpt>
      <trkpt lat="45.82646" lon="4.82026">
        <ele>454</ele>
        <time>2011-11-25T09:08:20Z</time>
      </trkpt>
      <trkpt lat="45.82648" lon="4.82027">
        <ele>454</ele>
        <time>2011-11-25T09:08:22Z</time>
      </trkpt>
      <trkpt lat="45.82649" lon="4.82027">
        <ele>454</ele>
        <time>2011-11-25T09:08:23Z</time>
      </trkpt>
      <trkpt lat="45.8265" lon="4.82028">
        <ele>454</ele>
        <time>2011-11-25T09:08:24Z</time>
      </trkpt>
      <trkpt lat="45.82657" lon="4.82028">
        <ele>453</ele>
        <time>2011-11-25T09:08:27Z</time>
      </trkpt>
      <trkpt lat="45.82658" lon="4.82028">
        <ele>453</ele>
        <time>2011-11-25T09:08:28Z</time>
      </trkpt>
      <trkpt lat="45.82659" lon="4.82027">
        <ele>453</ele>
        <time>2011-11-25T09:08:29Z</time>
      </trkpt>
      <trkpt lat="45.82664" lon="4.82022">
        <ele>453</ele>
        <time>2011-11-25T09:08:32Z</time>
      </trkpt>
      <trkpt lat="45.82666" lon="4.82021">
        <ele>453</ele>
        <time>2011-11-25T09:08:33Z</time>
      </trkpt>
      <trkpt lat="45.82667" lon="4.82019">
        <ele>446</ele>
        <time>2011-11-25T09:08:34Z</time>
      </trkpt>
      <trkpt lat="45.82673" lon="4.82013">
        <ele>447</ele>
        <time>2011-11-25T09:08:38Z</time>
      </trkpt>
      <trkpt lat="45.82679" lon="4.82">
        <ele>447</ele>
        <time>2011-11-25T09:08:43Z</time>
      </trkpt>
      <trkpt lat="45.82688" lon="4.81992">
        <ele>447</ele>
        <time>2011-11-25T09:08:48Z</time>
      </trkpt>
      <trkpt lat="45.82691" lon="4.81994">
        <ele>447</ele>
        <time>2011-11-25T09:08:50Z</time>
      </trkpt>
      <trkpt lat="45.82695" lon="4.81993">
        <ele>446</ele>
        <time>2011-11-25T09:08:52Z</time>
      </trkpt>
      <trkpt lat="45.82701" lon="4.81992">
        <ele>445</ele>
        <time>2011-11-25T09:08:55Z</time>
      </trkpt>
      <trkpt lat="45.82706" lon="4.81991">
        <ele>444</ele>
        <time>2011-11-25T09:08:57Z</time>
      </trkpt>
      <trkpt lat="45.8271" lon="4.81988">
        <ele>444</ele>
        <time>2011-11-25T09:08:59Z</time>
      </trkpt>
      <trkpt lat="45.82712" lon="4.81988">
        <ele>443</ele>
        <time>2011-11-25T09:09:00Z</time>
      </trkpt>
      <trkpt lat="45.82716" lon="4.81987">
        <ele>443</ele>
        <time>2011-11-25T09:09:01Z</time>
      </trkpt>
      <trkpt lat="45.82728" lon="4.81986">
        <ele>441</ele>
        <time>2011-11-25T09:09:06Z</time>
      </trkpt>
      <trkpt lat="45.82732" lon="4.81987">
        <ele>440</ele>
        <time>2011-11-25T09:09:08Z</time>
      </trkpt>
      <trkpt lat="45.82742" lon="4.81991">
        <ele>437</ele>
        <time>2011-11-25T09:09:11Z</time>
      </trkpt>
      <trkpt lat="45.82744" lon="4.8199">
        <ele>437</ele>
        <time>2011-11-25T09:09:12Z</time>
      </trkpt>
      <trkpt lat="45.8275" lon="4.81987">
        <ele>437</ele>
        <time>2011-11-25T09:09:15Z</time>
      </trkpt>
      <trkpt lat="45.82751" lon="4.81987">
        <ele>431</ele>
        <time>2011-11-25T09:09:16Z</time>
      </trkpt>
      <trkpt lat="45.82754" lon="4.81986">
        <ele>431</ele>
        <time>2011-11-25T09:09:18Z</time>
      </trkpt>
      <trkpt lat="45.82757" lon="4.81987">
        <ele>430</ele>
        <time>2011-11-25T09:09:21Z</time>
      </trkpt>
      <trkpt lat="45.82762" lon="4.8199">
        <ele>430</ele>
        <time>2011-11-25T09:09:26Z</time>
      </trkpt>
      <trkpt lat="45.82767" lon="4.81994">
        <ele>430</ele>
        <time>2011-11-25T09:09:29Z</time>
      </trkpt>
      <trkpt lat="45.82768" lon="4.81994">
        <ele>430</ele>
        <time>2011-11-25T09:09:30Z</time>
      </trkpt>
      <trkpt lat="45.8277" lon="4.81993">
        <ele>429</ele>
        <time>2011-11-25T09:09:31Z</time>
      </trkpt>
      <trkpt lat="45.82782" lon="4.81992">
        <ele>428</ele>
        <time>2011-11-25T09:09:37Z</time>
      </trkpt>
      <trkpt lat="45.82785" lon="4.81992">
        <ele>428</ele>
        <time>2011-11-25T09:09:38Z</time>
      </trkpt>
      <trkpt lat="45.82792" lon="4.81988">
        <ele>427</ele>
        <time>2011-11-25T09:09:41Z</time>
      </trkpt>
      <trkpt lat="45.82798" lon="4.8199">
        <ele>426</ele>
        <time>2011-11-25T09:09:44Z</time>
      </trkpt>
      <trkpt lat="45.82803" lon="4.81995">
        <ele>425</ele>
        <time>2011-11-25T09:09:46Z</time>
      </trkpt>
      <trkpt lat="45.82815" lon="4.81997">
        <ele>422</ele>
        <time>2011-11-25T09:09:51Z</time>
      </trkpt>
      <trkpt lat="45.8282" lon="4.82">
        <ele>421</ele>
        <time>2011-11-25T09:09:54Z</time>
      </trkpt>
      <trkpt lat="45.82822" lon="4.81999">
        <ele>420</ele>
        <time>2011-11-25T09:09:55Z</time>
      </trkpt>
      <trkpt lat="45.82829" lon="4.82005">
        <ele>418</ele>
        <time>2011-11-25T09:09:59Z</time>
      </trkpt>
      <trkpt lat="45.82831" lon="4.82006">
        <ele>418</ele>
        <time>2011-11-25T09:10:00Z</time>
      </trkpt>
      <trkpt lat="45.82836" lon="4.82004">
        <ele>415</ele>
        <time>2011-11-25T09:10:02Z</time>
      </trkpt>
      <trkpt lat="45.82838" lon="4.82003">
        <ele>414</ele>
        <time>2011-11-25T09:10:03Z</time>
      </trkpt>
      <trkpt lat="45.82851" lon="4.82005">
        <ele>412</ele>
        <time>2011-11-25T09:10:07Z</time>
      </trkpt>
      <trkpt lat="45.82853" lon="4.82005">
        <ele>412</ele>
        <time>2011-11-25T09:10:08Z</time>
      </trkpt>
      <trkpt lat="45.82855" lon="4.82005">
        <ele>411</ele>
        <time>2011-11-25T09:10:09Z</time>
      </trkpt>
      <trkpt lat="45.8286" lon="4.82007">
        <ele>410</ele>
        <time>2011-11-25T09:10:11Z</time>
      </trkpt>
      <trkpt lat="45.82862" lon="4.82008">
        <ele>410</ele>
        <time>2011-11-25T09:10:12Z</time>
      </trkpt>
      <trkpt lat="45.82871" lon="4.82008">
        <ele>409</ele>
        <time>2011-11-25T09:10:15Z</time>
      </trkpt>
      <trkpt lat="45.82874" lon="4.82007">
        <ele>408</ele>
        <time>2011-11-25T09:10:16Z</time>
      </trkpt>
      <trkpt lat="45.82892" lon="4.82004">
        <ele>405</ele>
        <time>2011-11-25T09:10:20Z</time>
      </trkpt>
      <trkpt lat="45.82895" lon="4.82002">
        <ele>405</ele>
        <time>2011-11-25T09:10:21Z</time>
      </trkpt>
      <trkpt lat="45.82896" lon="4.82003">
        <ele>405</ele>
        <time>2011-11-25T09:10:22Z</time>
      </trkpt>
      <trkpt lat="45.82901" lon="4.82003">
        <ele>404</ele>
        <time>2011-11-25T09:10:25Z</time>
      </trkpt>
      <trkpt lat="45.82907" lon="4.81995">
        <ele>403</ele>
        <time>2011-11-25T09:10:29Z</time>
      </trkpt>
      <trkpt lat="45.82909" lon="4.81995">
        <ele>403</ele>
        <time>2011-11-25T09:10:30Z</time>
      </trkpt>
      <trkpt lat="45.82919" lon="4.81998">
        <ele>398</ele>
        <time>2011-11-25T09:10:34Z</time>
      </trkpt>
      <trkpt lat="45.82926" lon="4.82">
        <ele>398</ele>
        <time>2011-11-25T09:10:36Z</time>
      </trkpt>
      <trkpt lat="45.82934" lon="4.81997">
        <ele>397</ele>
        <time>2011-11-25T09:10:39Z</time>
      </trkpt>
      <trkpt lat="45.82938" lon="4.81996">
        <ele>396</ele>
        <time>2011-11-25T09:10:41Z</time>
      </trkpt>
      <trkpt lat="45.8294" lon="4.81992">
        <ele>396</ele>
        <time>2011-11-25T09:10:43Z</time>
      </trkpt>
      <trkpt lat="45.82944" lon="4.81989">
        <ele>396</ele>
        <time>2011-11-25T09:10:45Z</time>
      </trkpt>
      <trkpt lat="45.82951" lon="4.81985">
        <ele>395</ele>
        <time>2011-11-25T09:10:48Z</time>
      </trkpt>
      <trkpt lat="45.8296" lon="4.8198">
        <ele>394</ele>
        <time>2011-11-25T09:10:54Z</time>
      </trkpt>
      <trkpt lat="45.82962" lon="4.8198">
        <ele>394</ele>
        <time>2011-11-25T09:10:56Z</time>
      </trkpt>
      <trkpt lat="45.82961" lon="4.8198">
        <ele>394</ele>
        <time>2011-11-25T09:10:57Z</time>
      </trkpt>
      <trkpt lat="45.8296" lon="4.81981">
        <ele>394</ele>
        <time>2011-11-25T09:10:58Z</time>
      </trkpt>
      <trkpt lat="45.82956" lon="4.81979">
        <ele>394</ele>
        <time>2011-11-25T09:11:02Z</time>
      </trkpt>
      <trkpt lat="45.82955" lon="4.81977">
        <ele>395</ele>
        <time>2011-11-25T09:11:04Z</time>
      </trkpt>
      <trkpt lat="45.82951" lon="4.8197">
        <ele>395</ele>
        <time>2011-11-25T09:11:08Z</time>
      </trkpt>
      <trkpt lat="45.82949" lon="4.81965">
        <ele>395</ele>
        <time>2011-11-25T09:11:10Z</time>
      </trkpt>
      <trkpt lat="45.82947" lon="4.81962">
        <ele>395</ele>
        <time>2011-11-25T09:11:12Z</time>
      </trkpt>
      <trkpt lat="45.82945" lon="4.81957">
        <ele>396</ele>
        <time>2011-11-25T09:11:15Z</time>
      </trkpt>
      <trkpt lat="45.82943" lon="4.81955">
        <ele>396</ele>
        <time>2011-11-25T09:11:18Z</time>
      </trkpt>
      <trkpt lat="45.82943" lon="4.81952">
        <ele>396</ele>
        <time>2011-11-25T09:11:19Z</time>
      </trkpt>
      <trkpt lat="45.82942" lon="4.8195">
        <ele>396</ele>
        <time>2011-11-25T09:11:21Z</time>
      </trkpt>
      <trkpt lat="45.82937" lon="4.81947">
        <ele>397</ele>
        <time>2011-11-25T09:11:26Z</time>
      </trkpt>
      <trkpt lat="45.82936" lon="4.81946">
        <ele>397</ele>
        <time>2011-11-25T09:11:27Z</time>
      </trkpt>
      <trkpt lat="45.82937" lon="4.81943">
        <ele>397</ele>
        <time>2011-11-25T09:11:31Z</time>
      </trkpt>
      <trkpt lat="45.82938" lon="4.81936">
        <ele>398</ele>
        <time>2011-11-25T09:11:37Z</time>
      </trkpt>
      <trkpt lat="45.82936" lon="4.81936">
        <ele>398</ele>
        <time>2011-11-25T09:11:38Z</time>
      </trkpt>
      <trkpt lat="45.82934" lon="4.81931">
        <ele>399</ele>
        <time>2011-11-25T09:11:44Z</time>
      </trkpt>
      <trkpt lat="45.82931" lon="4.8193">
        <ele>399</ele>
        <time>2011-11-25T09:11:46Z</time>
      </trkpt>
      <trkpt lat="45.82927" lon="4.81931">
        <ele>400</ele>
        <time>2011-11-25T09:11:49Z</time>
      </trkpt>
      <trkpt lat="45.82922" lon="4.81932">
        <ele>400</ele>
        <time>2011-11-25T09:11:51Z</time>
      </trkpt>
      <trkpt lat="45.82921" lon="4.8193">
        <ele>400</ele>
        <time>2011-11-25T09:11:52Z</time>
      </trkpt>
      <trkpt lat="45.8292" lon="4.81926">
        <ele>402</ele>
        <time>2011-11-25T09:11:56Z</time>
      </trkpt>
      <trkpt lat="45.82918" lon="4.81924">
        <ele>402</ele>
        <time>2011-11-25T09:11:58Z</time>
      </trkpt>
      <trkpt lat="45.82915" lon="4.81922">
        <ele>406</ele>
        <time>2011-11-25T09:12:02Z</time>
      </trkpt>
      <trkpt lat="45.82914" lon="4.81922">
        <ele>406</ele>
        <time>2011-11-25T09:12:03Z</time>
      </trkpt>
      <trkpt lat="45.82911" lon="4.81919">
        <ele>406</ele>
        <time>2011-11-25T09:12:06Z</time>
      </trkpt>
      <trkpt lat="45.82909" lon="4.81917">
        <ele>408</ele>
        <time>2011-11-25T09:12:09Z</time>
      </trkpt>
      <trkpt lat="45.82908" lon="4.81917">
        <ele>407</ele>
        <time>2011-11-25T09:12:10Z</time>
      </trkpt>
      <trkpt lat="45.82908" lon="4.81915">
        <ele>408</ele>
        <time>2011-11-25T09:12:12Z</time>
      </trkpt>
      <trkpt lat="45.82907" lon="4.81915">
        <ele>409</ele>
        <time>2011-11-25T09:12:13Z</time>
      </trkpt>
      <trkpt lat="45.82907" lon="4.81912">
        <ele>409</ele>
        <time>2011-11-25T09:12:15Z</time>
      </trkpt>
      <trkpt lat="45.82907" lon="4.81908">
        <ele>410</ele>
        <time>2011-11-25T09:12:18Z</time>
      </trkpt>
      <trkpt lat="45.82906" lon="4.81908">
        <ele>410</ele>
        <time>2011-11-25T09:12:19Z</time>
      </trkpt>
      <trkpt lat="45.82905" lon="4.81903">
        <ele>411</ele>
        <time>2011-11-25T09:12:25Z</time>
      </trkpt>
      <trkpt lat="45.82904" lon="4.81902">
        <ele>411</ele>
        <time>2011-11-25T09:12:26Z</time>
      </trkpt>
      <trkpt lat="45.82901" lon="4.819">
        <ele>412</ele>
        <time>2011-11-25T09:12:28Z</time>
      </trkpt>
      <trkpt lat="45.82899" lon="4.81898">
        <ele>413</ele>
        <time>2011-11-25T09:12:30Z</time>
      </trkpt>
      <trkpt lat="45.82896" lon="4.81897">
        <ele>413</ele>
        <time>2011-11-25T09:12:34Z</time>
      </trkpt>
      <trkpt lat="45.82893" lon="4.81895">
        <ele>414</ele>
        <time>2011-11-25T09:12:41Z</time>
      </trkpt>
      <trkpt lat="45.8289" lon="4.8189">
        <ele>414</ele>
        <time>2011-11-25T09:12:47Z</time>
      </trkpt>
      <trkpt lat="45.82886" lon="4.81889">
        <ele>415</ele>
        <time>2011-11-25T09:12:49Z</time>
      </trkpt>
      <trkpt lat="45.82885" lon="4.8189">
        <ele>415</ele>
        <time>2011-11-25T09:12:51Z</time>
      </trkpt>
      <trkpt lat="45.82884" lon="4.81889">
        <ele>415</ele>
        <time>2011-11-25T09:12:52Z</time>
      </trkpt>
      <trkpt lat="45.82883" lon="4.81888">
        <ele>415</ele>
        <time>2011-11-25T09:12:53Z</time>
      </trkpt>
      <trkpt lat="45.82883" lon="4.81889">
        <ele>415</ele>
        <time>2011-11-25T09:12:54Z</time>
      </trkpt>
      <trkpt lat="45.82882" lon="4.81885">
        <ele>415</ele>
        <time>2011-11-25T09:12:57Z</time>
      </trkpt>
      <trkpt lat="45.82881" lon="4.81874">
        <ele>416</ele>
        <time>2011-11-25T09:13:03Z</time>
      </trkpt>
      <trkpt lat="45.82879" lon="4.81871">
        <ele>416</ele>
        <time>2011-11-25T09:13:08Z</time>
      </trkpt>
      <trkpt lat="45.82878" lon="4.8187">
        <ele>416</ele>
        <time>2011-11-25T09:13:09Z</time>
      </trkpt>
      <trkpt lat="45.82877" lon="4.81868">
        <ele>416</ele>
        <time>2011-11-25T09:13:10Z</time>
      </trkpt>
      <trkpt lat="45.82872" lon="4.81863">
        <ele>417</ele>
        <time>2011-11-25T09:13:15Z</time>
      </trkpt>
      <trkpt lat="45.8287" lon="4.81861">
        <ele>417</ele>
        <time>2011-11-25T09:13:17Z</time>
      </trkpt>
      <trkpt lat="45.82868" lon="4.81861">
        <ele>418</ele>
        <time>2011-11-25T09:13:19Z</time>
      </trkpt>
      <trkpt lat="45.82866" lon="4.81859">
        <ele>418</ele>
        <time>2011-11-25T09:13:21Z</time>
      </trkpt>
      <trkpt lat="45.82861" lon="4.81853">
        <ele>419</ele>
        <time>2011-11-25T09:13:27Z</time>
      </trkpt>
      <trkpt lat="45.82857" lon="4.81849">
        <ele>420</ele>
        <time>2011-11-25T09:13:33Z</time>
      </trkpt>
      <trkpt lat="45.82856" lon="4.81849">
        <ele>420</ele>
        <time>2011-11-25T09:13:35Z</time>
      </trkpt>
      <trkpt lat="45.82852" lon="4.81845">
        <ele>421</ele>
        <time>2011-11-25T09:13:40Z</time>
      </trkpt>
      <trkpt lat="45.82849" lon="4.81846">
        <ele>421</ele>
        <time>2011-11-25T09:13:44Z</time>
      </trkpt>
      <trkpt lat="45.82844" lon="4.81847">
        <ele>422</ele>
        <time>2011-11-25T09:13:48Z</time>
      </trkpt>
      <trkpt lat="45.82842" lon="4.81849">
        <ele>422</ele>
        <time>2011-11-25T09:13:49Z</time>
      </trkpt>
      <trkpt lat="45.8284" lon="4.81849">
        <ele>422</ele>
        <time>2011-11-25T09:13:52Z</time>
      </trkpt>
      <trkpt lat="45.82838" lon="4.81851">
        <ele>422</ele>
        <time>2011-11-25T09:13:54Z</time>
      </trkpt>
      <trkpt lat="45.82834" lon="4.81854">
        <ele>422</ele>
        <time>2011-11-25T09:14:00Z</time>
      </trkpt>
      <trkpt lat="45.82833" lon="4.81856">
        <ele>430</ele>
        <time>2011-11-25T09:14:07Z</time>
      </trkpt>
      <trkpt lat="45.8283" lon="4.81858">
        <ele>430</ele>
        <time>2011-11-25T09:14:14Z</time>
      </trkpt>
      <trkpt lat="45.82826" lon="4.81856">
        <ele>430</ele>
        <time>2011-11-25T09:14:17Z</time>
      </trkpt>
      <trkpt lat="45.82825" lon="4.81859">
        <ele>430</ele>
        <time>2011-11-25T09:14:19Z</time>
      </trkpt>
      <trkpt lat="45.82822" lon="4.81871">
        <ele>430</ele>
        <time>2011-11-25T09:14:26Z</time>
      </trkpt>
      <trkpt lat="45.82819" lon="4.81881">
        <ele>430</ele>
        <time>2011-11-25T09:14:33Z</time>
      </trkpt>
      <trkpt lat="45.82819" lon="4.81883">
        <ele>430</ele>
        <time>2011-11-25T09:14:35Z</time>
      </trkpt>
      <trkpt lat="45.82818" lon="4.81884">
        <ele>430</ele>
        <time>2011-11-25T09:14:36Z</time>
      </trkpt>
      <trkpt lat="45.82818" lon="4.81887">
        <ele>430</ele>
        <time>2011-11-25T09:14:39Z</time>
      </trkpt>
      <trkpt lat="45.82816" lon="4.81885">
        <ele>431</ele>
        <time>2011-11-25T09:14:42Z</time>
      </trkpt>
      <trkpt lat="45.82813" lon="4.81886">
        <ele>431</ele>
        <time>2011-11-25T09:14:44Z</time>
      </trkpt>
      <trkpt lat="45.82809" lon="4.81892">
        <ele>431</ele>
        <time>2011-11-25T09:14:50Z</time>
      </trkpt>
      <trkpt lat="45.82806" lon="4.81894">
        <ele>431</ele>
        <time>2011-11-25T09:14:55Z</time>
      </trkpt>
      <trkpt lat="45.82806" lon="4.81895">
        <ele>431</ele>
        <time>2011-11-25T09:14:56Z</time>
      </trkpt>
      <trkpt lat="45.82802" lon="4.81898">
        <ele>431</ele>
        <time>2011-11-25T09:14:59Z</time>
      </trkpt>
      <trkpt lat="45.828" lon="4.819">
        <ele>432</ele>
        <time>2011-11-25T09:15:01Z</time>
      </trkpt>
      <trkpt lat="45.828" lon="4.819">
        <ele>432</ele>
        <time>2011-11-25T09:15:02Z</time>
      </trkpt>
      <trkpt lat="45.82789" lon="4.81903">
        <ele>433</ele>
        <time>2011-11-25T09:15:09Z</time>
      </trkpt>
      <trkpt lat="45.82788" lon="4.81904">
        <ele>433</ele>
        <time>2011-11-25T09:15:10Z</time>
      </trkpt>
      <trkpt lat="45.82786" lon="4.81908">
        <ele>434</ele>
        <time>2011-11-25T09:15:14Z</time>
      </trkpt>
      <trkpt lat="45.8278" lon="4.81913">
        <ele>434</ele>
        <time>2011-11-25T09:15:21Z</time>
      </trkpt>
      <trkpt lat="45.82774" lon="4.81917">
        <ele>433</ele>
        <time>2011-11-25T09:15:26Z</time>
      </trkpt>
      <trkpt lat="45.82769" lon="4.8192">
        <ele>434</ele>
        <time>2011-11-25T09:15:30Z</time>
      </trkpt>
      <trkpt lat="45.82768" lon="4.81919">
        <ele>434</ele>
        <time>2011-11-25T09:15:32Z</time>
      </trkpt>
      <trkpt lat="45.82766" lon="4.81917">
        <ele>435</ele>
        <time>2011-11-25T09:15:33Z</time>
      </trkpt>
      <trkpt lat="45.82764" lon="4.81915">
        <ele>437</ele>
        <time>2011-11-25T09:15:36Z</time>
      </trkpt>
      <trkpt lat="45.82763" lon="4.81913">
        <ele>437</ele>
        <time>2011-11-25T09:15:38Z</time>
      </trkpt>
      <trkpt lat="45.82762" lon="4.81904">
        <ele>437</ele>
        <time>2011-11-25T09:15:43Z</time>
      </trkpt>
      <trkpt lat="45.82761" lon="4.81902">
        <ele>437</ele>
        <time>2011-11-25T09:15:44Z</time>
      </trkpt>
      <trkpt lat="45.8276" lon="4.81892">
        <ele>436</ele>
        <time>2011-11-25T09:15:49Z</time>
      </trkpt>
      <trkpt lat="45.82759" lon="4.81891">
        <ele>436</ele>
        <time>2011-11-25T09:15:50Z</time>
      </trkpt>
      <trkpt lat="45.82757" lon="4.81886">
        <ele>436</ele>
        <time>2011-11-25T09:15:55Z</time>
      </trkpt>
      <trkpt lat="45.82757" lon="4.81885">
        <ele>436</ele>
        <time>2011-11-25T09:15:57Z</time>
      </trkpt>
      <trkpt lat="45.8276" lon="4.81879">
        <ele>435</ele>
        <time>2011-11-25T09:16:07Z</time>
      </trkpt>
      <trkpt lat="45.82761" lon="4.81879">
        <ele>435</ele>
        <time>2011-11-25T09:16:08Z</time>
      </trkpt>
      <trkpt lat="45.82762" lon="4.81878">
        <ele>435</ele>
        <time>2011-11-25T09:16:09Z</time>
      </trkpt>
      <trkpt lat="45.82763" lon="4.81873">
        <ele>435</ele>
        <time>2011-11-25T09:16:13Z</time>
      </trkpt>
      <trkpt lat="45.82764" lon="4.81868">
        <ele>435</ele>
        <time>2011-11-25T09:16:18Z</time>
      </trkpt>
      <trkpt lat="45.82764" lon="4.81866">
        <ele>435</ele>
        <time>2011-11-25T09:16:19Z</time>
      </trkpt>
      <trkpt lat="45.82766" lon="4.81862">
        <ele>435</ele>
        <time>2011-11-25T09:16:23Z</time>
      </trkpt>
      <trkpt lat="45.82766" lon="4.8186">
        <ele>435</ele>
        <time>2011-11-25T09:16:25Z</time>
      </trkpt>
      <trkpt lat="45.82766" lon="4.81857">
        <ele>435</ele>
        <time>2011-11-25T09:16:26Z</time>
      </trkpt>
      <trkpt lat="45.82766" lon="4.81855">
        <ele>435</ele>
        <time>2011-11-25T09:16:27Z</time>
      </trkpt>
      <trkpt lat="45.82767" lon="4.81852">
        <ele>435</ele>
        <time>2011-11-25T09:16:29Z</time>
      </trkpt>
      <trkpt lat="45.82768" lon="4.81848">
        <ele>435</ele>
        <time>2011-11-25T09:16:32Z</time>
      </trkpt>
      <trkpt lat="45.82768" lon="4.81842">
        <ele>435</ele>
        <time>2011-11-25T09:16:35Z</time>
      </trkpt>
      <trkpt lat="45.82769" lon="4.8184">
        <ele>436</ele>
        <time>2011-11-25T09:16:36Z</time>
      </trkpt>
      <trkpt lat="45.8277" lon="4.81834">
        <ele>435</ele>
        <time>2011-11-25T09:16:39Z</time>
      </trkpt>
      <trkpt lat="45.82771" lon="4.81832">
        <ele>436</ele>
        <time>2011-11-25T09:16:41Z</time>
      </trkpt>
      <trkpt lat="45.82771" lon="4.81829">
        <ele>436</ele>
        <time>2011-11-25T09:16:43Z</time>
      </trkpt>
      <trkpt lat="45.82772" lon="4.81822">
        <ele>436</ele>
        <time>2011-11-25T09:16:47Z</time>
      </trkpt>
      <trkpt lat="45.82773" lon="4.8182">
        <ele>435</ele>
        <time>2011-11-25T09:16:49Z</time>
      </trkpt>
      <trkpt lat="45.82773" lon="4.81816">
        <ele>435</ele>
        <time>2011-11-25T09:16:51Z</time>
      </trkpt>
      <trkpt lat="45.82772" lon="4.81806">
        <ele>435</ele>
        <time>2011-11-25T09:16:57Z</time>
      </trkpt>
      <trkpt lat="45.82772" lon="4.81801">
        <ele>435</ele>
        <time>2011-11-25T09:16:59Z</time>
      </trkpt>
      <trkpt lat="45.82773" lon="4.81797">
        <ele>435</ele>
        <time>2011-11-25T09:17:01Z</time>
      </trkpt>
      <trkpt lat="45.82773" lon="4.81795">
        <ele>435</ele>
        <time>2011-11-25T09:17:02Z</time>
      </trkpt>
      <trkpt lat="45.82774" lon="4.81786">
        <ele>435</ele>
        <time>2011-11-25T09:17:07Z</time>
      </trkpt>
      <trkpt lat="45.82776" lon="4.81784">
        <ele>435</ele>
        <time>2011-11-25T09:17:12Z</time>
      </trkpt>
      <trkpt lat="45.82778" lon="4.81783">
        <ele>435</ele>
        <time>2011-11-25T09:17:16Z</time>
      </trkpt>
      <trkpt lat="45.8278" lon="4.81777">
        <ele>435</ele>
        <time>2011-11-25T09:17:20Z</time>
      </trkpt>
      <trkpt lat="45.82782" lon="4.81775">
        <ele>435</ele>
        <time>2011-11-25T09:17:22Z</time>
      </trkpt>
      <trkpt lat="45.82784" lon="4.81773">
        <ele>435</ele>
        <time>2011-11-25T09:17:25Z</time>
      </trkpt>
      <trkpt lat="45.82784" lon="4.81771">
        <ele>435</ele>
        <time>2011-11-25T09:17:26Z</time>
      </trkpt>
      <trkpt lat="45.82781" lon="4.81765">
        <ele>435</ele>
        <time>2011-11-25T09:17:32Z</time>
      </trkpt>
      <trkpt lat="45.82781" lon="4.81762">
        <ele>435</ele>
        <time>2011-11-25T09:17:34Z</time>
      </trkpt>
      <trkpt lat="45.82782" lon="4.81759">
        <ele>435</ele>
        <time>2011-11-25T09:17:36Z</time>
      </trkpt>
      <trkpt lat="45.82783" lon="4.81756">
        <ele>435</ele>
        <time>2011-11-25T09:17:37Z</time>
      </trkpt>
      <trkpt lat="45.82786" lon="4.81746">
        <ele>433</ele>
        <time>2011-11-25T09:17:41Z</time>
      </trkpt>
      <trkpt lat="45.82784" lon="4.81732">
        <ele>433</ele>
        <time>2011-11-25T09:17:46Z</time>
      </trkpt>
      <trkpt lat="45.82783" lon="4.81723">
        <ele>433</ele>
        <time>2011-11-25T09:17:49Z</time>
      </trkpt>
      <trkpt lat="45.82783" lon="4.81721">
        <ele>433</ele>
        <time>2011-11-25T09:17:50Z</time>
      </trkpt>
      <trkpt lat="45.82781" lon="4.81711">
        <ele>433</ele>
        <time>2011-11-25T09:17:54Z</time>
      </trkpt>
      <trkpt lat="45.82781" lon="4.8171">
        <ele>433</ele>
        <time>2011-11-25T09:17:55Z</time>
      </trkpt>
      <trkpt lat="45.82782" lon="4.81709">
        <ele>432</ele>
        <time>2011-11-25T09:17:56Z</time>
      </trkpt>
      <trkpt lat="45.82784" lon="4.81708">
        <ele>432</ele>
        <time>2011-11-25T09:17:58Z</time>
      </trkpt>
      <trkpt lat="45.82785" lon="4.81709">
        <ele>432</ele>
        <time>2011-11-25T09:17:59Z</time>
      </trkpt>
      <trkpt lat="45.82788" lon="4.81701">
        <ele>432</ele>
        <time>2011-11-25T09:18:04Z</time>
      </trkpt>
      <trkpt lat="45.82787" lon="4.81692">
        <ele>432</ele>
        <time>2011-11-25T09:18:08Z</time>
      </trkpt>
      <trkpt lat="45.82787" lon="4.81691">
        <ele>432</ele>
        <time>2011-11-25T09:18:09Z</time>
      </trkpt>
      <trkpt lat="45.82789" lon="4.81693">
        <ele>431</ele>
        <time>2011-11-25T09:18:23Z</time>
      </trkpt>
      <trkpt lat="45.8279" lon="4.81693">
        <ele>431</ele>
        <time>2011-11-25T09:18:24Z</time>
      </trkpt>
      <trkpt lat="45.82797" lon="4.81699">
        <ele>431</ele>
        <time>2011-11-25T09:18:28Z</time>
      </trkpt>
      <trkpt lat="45.82807" lon="4.81708">
        <ele>431</ele>
        <time>2011-11-25T09:18:33Z</time>
      </trkpt>
      <trkpt lat="45.82812" lon="4.81712">
        <ele>431</ele>
        <time>2011-11-25T09:18:35Z</time>
      </trkpt>
      <trkpt lat="45.82823" lon="4.81722">
        <ele>431</ele>
        <time>2011-11-25T09:18:40Z</time>
      </trkpt>
      <trkpt lat="45.82835" lon="4.8173">
        <ele>420</ele>
        <time>2011-11-25T09:18:45Z</time>
      </trkpt>
      <trkpt lat="45.8284" lon="4.81733">
        <ele>421</ele>
        <time>2011-11-25T09:18:47Z</time>
      </trkpt>
      <trkpt lat="45.82847" lon="4.81739">
        <ele>421</ele>
        <time>2011-11-25T09:18:51Z</time>
      </trkpt>
      <trkpt lat="45.82848" lon="4.8174">
        <ele>421</ele>
        <time>2011-11-25T09:18:52Z</time>
      </trkpt>
      <trkpt lat="45.82852" lon="4.81747">
        <ele>420</ele>
        <time>2011-11-25T09:18:56Z</time>
      </trkpt>
      <trkpt lat="45.82853" lon="4.81749">
        <ele>420</ele>
        <time>2011-11-25T09:18:57Z</time>
      </trkpt>
      <trkpt lat="45.82857" lon="4.81753">
        <ele>423</ele>
        <time>2011-11-25T09:18:59Z</time>
      </trkpt>
      <trkpt lat="45.82858" lon="4.81755">
        <ele>422</ele>
        <time>2011-11-25T09:19:00Z</time>
      </trkpt>
      <trkpt lat="45.82865" lon="4.81764">
        <ele>420</ele>
        <time>2011-11-25T09:19:04Z</time>
      </trkpt>
      <trkpt lat="45.82867" lon="4.81766">
        <ele>420</ele>
        <time>2011-11-25T09:19:05Z</time>
      </trkpt>
      <trkpt lat="45.82877" lon="4.81779">
        <ele>418</ele>
        <time>2011-11-25T09:19:10Z</time>
      </trkpt>
      <trkpt lat="45.82879" lon="4.81781">
        <ele>418</ele>
        <time>2011-11-25T09:19:11Z</time>
      </trkpt>
      <trkpt lat="45.82882" lon="4.81783">
        <ele>417</ele>
        <time>2011-11-25T09:19:12Z</time>
      </trkpt>
      <trkpt lat="45.82888" lon="4.81785">
        <ele>416</ele>
        <time>2011-11-25T09:19:14Z</time>
      </trkpt>
      <trkpt lat="45.82892" lon="4.8179">
        <ele>416</ele>
        <time>2011-11-25T09:19:16Z</time>
      </trkpt>
      <trkpt lat="45.82897" lon="4.81794">
        <ele>416</ele>
        <time>2011-11-25T09:19:18Z</time>
      </trkpt>
      <trkpt lat="45.829" lon="4.81796">
        <ele>415</ele>
        <time>2011-11-25T09:19:19Z</time>
      </trkpt>
      <trkpt lat="45.8291" lon="4.81803">
        <ele>415</ele>
        <time>2011-11-25T09:19:23Z</time>
      </trkpt>
      <trkpt lat="45.82916" lon="4.8181">
        <ele>414</ele>
        <time>2011-11-25T09:19:26Z</time>
      </trkpt>
      <trkpt lat="45.82918" lon="4.81812">
        <ele>399</ele>
        <time>2011-11-25T09:19:27Z</time>
      </trkpt>
      <trkpt lat="45.82926" lon="4.81823">
        <ele>402</ele>
        <time>2011-11-25T09:19:32Z</time>
      </trkpt>
      <trkpt lat="45.82927" lon="4.81826">
        <ele>402</ele>
        <time>2011-11-25T09:19:33Z</time>
      </trkpt>
      <trkpt lat="45.82929" lon="4.81829">
        <ele>402</ele>
        <time>2011-11-25T09:19:35Z</time>
      </trkpt>
      <trkpt lat="45.82932" lon="4.81832">
        <ele>401</ele>
        <time>2011-11-25T09:19:37Z</time>
      </trkpt>
      <trkpt lat="45.82941" lon="4.81845">
        <ele>399</ele>
        <time>2011-11-25T09:19:42Z</time>
      </trkpt>
      <trkpt lat="45.82943" lon="4.81848">
        <ele>398</ele>
        <time>2011-11-25T09:19:43Z</time>
      </trkpt>
      <trkpt lat="45.82946" lon="4.81851">
        <ele>397</ele>
        <time>2011-11-25T09:19:45Z</time>
      </trkpt>
      <trkpt lat="45.82949" lon="4.81855">
        <ele>396</ele>
        <time>2011-11-25T09:19:47Z</time>
      </trkpt>
      <trkpt lat="45.82954" lon="4.81865">
        <ele>395</ele>
        <time>2011-11-25T09:19:50Z</time>
      </trkpt>
      <trkpt lat="45.82955" lon="4.81869">
        <ele>395</ele>
        <time>2011-11-25T09:19:51Z</time>
      </trkpt>
      <trkpt lat="45.82956" lon="4.81872">
        <ele>395</ele>
        <time>2011-11-25T09:19:52Z</time>
      </trkpt>
      <trkpt lat="45.82957" lon="4.81874">
        <ele>395</ele>
        <time>2011-11-25T09:19:53Z</time>
      </trkpt>
      <trkpt lat="45.82965" lon="4.8188">
        <ele>394</ele>
        <time>2011-11-25T09:19:57Z</time>
      </trkpt>
      <trkpt lat="45.82971" lon="4.81887">
        <ele>393</ele>
        <time>2011-11-25T09:20:00Z</time>
      </trkpt>
      <trkpt lat="45.82973" lon="4.81892">
        <ele>392</ele>
        <time>2011-11-25T09:20:02Z</time>
      </trkpt>
      <trkpt lat="45.82978" lon="4.81903">
        <ele>392</ele>
        <time>2011-11-25T09:20:07Z</time>
      </trkpt>
      <trkpt lat="45.82984" lon="4.81906">
        <ele>390</ele>
        <time>2011-11-25T09:20:11Z</time>
      </trkpt>
      <trkpt lat="45.8299" lon="4.81913">
        <ele>389</ele>
        <time>2011-11-25T09:20:15Z</time>
      </trkpt>
      <trkpt lat="45.83" lon="4.81919">
        <ele>387</ele>
        <time>2011-11-25T09:20:20Z</time>
      </trkpt>
      <trkpt lat="45.83002" lon="4.8192">
        <ele>383</ele>
        <time>2011-11-25T09:20:21Z</time>
      </trkpt>
      <trkpt lat="45.83009" lon="4.81924">
        <ele>378</ele>
        <time>2011-11-25T09:20:25Z</time>
      </trkpt>
      <trkpt lat="45.83012" lon="4.81927">
        <ele>376</ele>
        <time>2011-11-25T09:20:29Z</time>
      </trkpt>
      <trkpt lat="45.83012" lon="4.81923">
        <ele>377</ele>
        <time>2011-11-25T09:20:31Z</time>
      </trkpt>
      <trkpt lat="45.83014" lon="4.81916">
        <ele>374</ele>
        <time>2011-11-25T09:20:34Z</time>
      </trkpt>
      <trkpt lat="45.83015" lon="4.81909">
        <ele>372</ele>
        <time>2011-11-25T09:20:36Z</time>
      </trkpt>
      <trkpt lat="45.83017" lon="4.81903">
        <ele>369</ele>
        <time>2011-11-25T09:20:38Z</time>
      </trkpt>
      <trkpt lat="45.83017" lon="4.81896">
        <ele>367</ele>
        <time>2011-11-25T09:20:41Z</time>
      </trkpt>
      <trkpt lat="45.83017" lon="4.81891">
        <ele>366</ele>
        <time>2011-11-25T09:20:43Z</time>
      </trkpt>
      <trkpt lat="45.83017" lon="4.81887">
        <ele>365</ele>
        <time>2011-11-25T09:20:44Z</time>
      </trkpt>
      <trkpt lat="45.83017" lon="4.81884">
        <ele>365</ele>
        <time>2011-11-25T09:20:45Z</time>
      </trkpt>
      <trkpt lat="45.83012" lon="4.81875">
        <ele>365</ele>
        <time>2011-11-25T09:20:48Z</time>
      </trkpt>
      <trkpt lat="45.8301" lon="4.81872">
        <ele>365</ele>
        <time>2011-11-25T09:20:49Z</time>
      </trkpt>
      <trkpt lat="45.83007" lon="4.81863">
        <ele>365</ele>
        <time>2011-11-25T09:20:52Z</time>
      </trkpt>
      <trkpt lat="45.83002" lon="4.81851">
        <ele>368</ele>
        <time>2011-11-25T09:20:56Z</time>
      </trkpt>
      <trkpt lat="45.83" lon="4.81848">
        <ele>369</ele>
        <time>2011-11-25T09:20:57Z</time>
      </trkpt>
      <trkpt lat="45.82997" lon="4.81835">
        <ele>380</ele>
        <time>2011-11-25T09:21:01Z</time>
      </trkpt>
      <trkpt lat="45.82995" lon="4.81833">
        <ele>380</ele>
        <time>2011-11-25T09:21:02Z</time>
      </trkpt>
      <trkpt lat="45.82994" lon="4.81824">
        <ele>381</ele>
        <time>2011-11-25T09:21:06Z</time>
      </trkpt>
      <trkpt lat="45.82994" lon="4.81822">
        <ele>382</ele>
        <time>2011-11-25T09:21:07Z</time>
      </trkpt>
      <trkpt lat="45.82992" lon="4.8182">
        <ele>382</ele>
        <time>2011-11-25T09:21:08Z</time>
      </trkpt>
      <trkpt lat="45.82988" lon="4.81812">
        <ele>384</ele>
        <time>2011-11-25T09:21:12Z</time>
      </trkpt>
      <trkpt lat="45.82988" lon="4.8181">
        <ele>384</ele>
        <time>2011-11-25T09:21:13Z</time>
      </trkpt>
      <trkpt lat="45.82985" lon="4.81804">
        <ele>385</ele>
        <time>2011-11-25T09:21:17Z</time>
      </trkpt>
      <trkpt lat="45.82984" lon="4.81802">
        <ele>385</ele>
        <time>2011-11-25T09:21:18Z</time>
      </trkpt>
      <trkpt lat="45.82984" lon="4.81801">
        <ele>385</ele>
        <time>2011-11-25T09:21:19Z</time>
      </trkpt>
      <trkpt lat="45.82982" lon="4.818">
        <ele>385</ele>
        <time>2011-11-25T09:21:20Z</time>
      </trkpt>
      <trkpt lat="45.82977" lon="4.81797">
        <ele>386</ele>
        <time>2011-11-25T09:21:22Z</time>
      </trkpt>
      <trkpt lat="45.82967" lon="4.8179">
        <ele>387</ele>
        <time>2011-11-25T09:21:27Z</time>
      </trkpt>
      <trkpt lat="45.82966" lon="4.81788">
        <ele>388</ele>
        <time>2011-11-25T09:21:28Z</time>
      </trkpt>
      <trkpt lat="45.82964" lon="4.81781">
        <ele>388</ele>
        <time>2011-11-25T09:21:33Z</time>
      </trkpt>
      <trkpt lat="45.82957" lon="4.81774">
        <ele>389</ele>
        <time>2011-11-25T09:21:38Z</time>
      </trkpt>
      <trkpt lat="45.82954" lon="4.81772">
        <ele>390</ele>
        <time>2011-11-25T09:21:39Z</time>
      </trkpt>
      <trkpt lat="45.82948" lon="4.81767">
        <ele>391</ele>
        <time>2011-11-25T09:21:44Z</time>
      </trkpt>
      <trkpt lat="45.82939" lon="4.81761">
        <ele>394</ele>
        <time>2011-11-25T09:21:51Z</time>
      </trkpt>
      <trkpt lat="45.82937" lon="4.8176">
        <ele>395</ele>
        <time>2011-11-25T09:21:52Z</time>
      </trkpt>
      <trkpt lat="45.82933" lon="4.8176">
        <ele>396</ele>
        <time>2011-11-25T09:21:56Z</time>
      </trkpt>
      <trkpt lat="45.82932" lon="4.81762">
        <ele>396</ele>
        <time>2011-11-25T09:21:58Z</time>
      </trkpt>
      <trkpt lat="45.82932" lon="4.81768">
        <ele>396</ele>
        <time>2011-11-25T09:22:05Z</time>
      </trkpt>
      <trkpt lat="45.82936" lon="4.81774">
        <ele>394</ele>
        <time>2011-11-25T09:22:11Z</time>
      </trkpt>
      <trkpt lat="45.82936" lon="4.81775">
        <ele>394</ele>
        <time>2011-11-25T09:22:12Z</time>
      </trkpt>
      <trkpt lat="45.82937" lon="4.81776">
        <ele>394</ele>
        <time>2011-11-25T09:22:13Z</time>
      </trkpt>
      <trkpt lat="45.82941" lon="4.81778">
        <ele>393</ele>
        <time>2011-11-25T09:22:16Z</time>
      </trkpt>
      <trkpt lat="45.82941" lon="4.81779">
        <ele>393</ele>
        <time>2011-11-25T09:22:18Z</time>
      </trkpt>
      <trkpt lat="45.82943" lon="4.81784">
        <ele>392</ele>
        <time>2011-11-25T09:22:23Z</time>
      </trkpt>
      <trkpt lat="45.82943" lon="4.81785">
        <ele>393</ele>
        <time>2011-11-25T09:22:24Z</time>
      </trkpt>
      <trkpt lat="45.82943" lon="4.81787">
        <ele>393</ele>
        <time>2011-11-25T09:22:26Z</time>
      </trkpt>
      <trkpt lat="45.82945" lon="4.81792">
        <ele>392</ele>
        <time>2011-11-25T09:22:31Z</time>
      </trkpt>
      <trkpt lat="45.82944" lon="4.81796">
        <ele>393</ele>
        <time>2011-11-25T09:22:34Z</time>
      </trkpt>
      <trkpt lat="45.82944" lon="4.81798">
        <ele>393</ele>
        <time>2011-11-25T09:22:36Z</time>
      </trkpt>
      <trkpt lat="45.82944" lon="4.81799">
        <ele>393</ele>
        <time>2011-11-25T09:22:37Z</time>
      </trkpt>
      <trkpt lat="45.82944" lon="4.81803">
        <ele>393</ele>
        <time>2011-11-25T09:22:40Z</time>
      </trkpt>
      <trkpt lat="45.82946" lon="4.81808">
        <ele>393</ele>
        <time>2011-11-25T09:22:43Z</time>
      </trkpt>
      <trkpt lat="45.82948" lon="4.81814">
        <ele>393</ele>
        <time>2011-11-25T09:22:47Z</time>
      </trkpt>
      <trkpt lat="45.82947" lon="4.81817">
        <ele>394</ele>
        <time>2011-11-25T09:22:49Z</time>
      </trkpt>
      <trkpt lat="45.82945" lon="4.81819">
        <ele>395</ele>
        <time>2011-11-25T09:22:52Z</time>
      </trkpt>
      <trkpt lat="45.82945" lon="4.81821">
        <ele>395</ele>
        <time>2011-11-25T09:22:54Z</time>
      </trkpt>
      <trkpt lat="45.82945" lon="4.81824">
        <ele>395</ele>
        <time>2011-11-25T09:22:56Z</time>
      </trkpt>
      <trkpt lat="45.82944" lon="4.81825">
        <ele>395</ele>
        <time>2011-11-25T09:22:58Z</time>
      </trkpt>
      <trkpt lat="45.82943" lon="4.81825">
        <ele>396</ele>
        <time>2011-11-25T09:23:00Z</time>
      </trkpt>
      <trkpt lat="45.82932" lon="4.81822">
        <ele>399</ele>
        <time>2011-11-25T09:23:11Z</time>
      </trkpt>
      <trkpt lat="45.82929" lon="4.81821">
        <ele>400</ele>
        <time>2011-11-25T09:23:14Z</time>
      </trkpt>
      <trkpt lat="45.82927" lon="4.8182">
        <ele>400</ele>
        <time>2011-11-25T09:23:16Z</time>
      </trkpt>
      <trkpt lat="45.82926" lon="4.81819">
        <ele>400</ele>
        <time>2011-11-25T09:23:17Z</time>
      </trkpt>
      <trkpt lat="45.82926" lon="4.81818">
        <ele>400</ele>
        <time>2011-11-25T09:23:18Z</time>
      </trkpt>
      <trkpt lat="45.82924" lon="4.81817">
        <ele>400</ele>
        <time>2011-11-25T09:23:20Z</time>
      </trkpt>
      <trkpt lat="45.82923" lon="4.81816">
        <ele>400</ele>
        <time>2011-11-25T09:23:21Z</time>
      </trkpt>
      <trkpt lat="45.82919" lon="4.81812">
        <ele>399</ele>
        <time>2011-11-25T09:23:24Z</time>
      </trkpt>
      <trkpt lat="45.82916" lon="4.81808">
        <ele>414</ele>
        <time>2011-11-25T09:23:28Z</time>
      </trkpt>
      <trkpt lat="45.82915" lon="4.81806">
        <ele>414</ele>
        <time>2011-11-25T09:23:31Z</time>
      </trkpt>
      <trkpt lat="45.82913" lon="4.81805">
        <ele>414</ele>
        <time>2011-11-25T09:23:33Z</time>
      </trkpt>
      <trkpt lat="45.82911" lon="4.81803">
        <ele>415</ele>
        <time>2011-11-25T09:23:36Z</time>
      </trkpt>
      <trkpt lat="45.82911" lon="4.81802">
        <ele>415</ele>
        <time>2011-11-25T09:23:37Z</time>
      </trkpt>
      <trkpt lat="45.82909" lon="4.818">
        <ele>415</ele>
        <time>2011-11-25T09:23:41Z</time>
      </trkpt>
      <trkpt lat="45.82908" lon="4.81798">
        <ele>415</ele>
        <time>2011-11-25T09:23:42Z</time>
      </trkpt>
      <trkpt lat="45.82905" lon="4.81797">
        <ele>415</ele>
        <time>2011-11-25T09:23:45Z</time>
      </trkpt>
      <trkpt lat="45.82903" lon="4.81796">
        <ele>415</ele>
        <time>2011-11-25T09:23:47Z</time>
      </trkpt>
      <trkpt lat="45.82903" lon="4.81795">
        <ele>415</ele>
        <time>2011-11-25T09:23:48Z</time>
      </trkpt>
      <trkpt lat="45.82901" lon="4.81794">
        <ele>415</ele>
        <time>2011-11-25T09:23:51Z</time>
      </trkpt>
      <trkpt lat="45.82899" lon="4.81792">
        <ele>415</ele>
        <time>2011-11-25T09:23:53Z</time>
      </trkpt>
      <trkpt lat="45.82897" lon="4.8179">
        <ele>416</ele>
        <time>2011-11-25T09:23:56Z</time>
      </trkpt>
      <trkpt lat="45.82896" lon="4.81788">
        <ele>416</ele>
        <time>2011-11-25T09:23:57Z</time>
      </trkpt>
      <trkpt lat="45.82896" lon="4.81787">
        <ele>416</ele>
        <time>2011-11-25T09:24:00Z</time>
      </trkpt>
      <trkpt lat="45.82891" lon="4.81782">
        <ele>416</ele>
        <time>2011-11-25T09:24:06Z</time>
      </trkpt>
      <trkpt lat="45.82888" lon="4.81777">
        <ele>416</ele>
        <time>2011-11-25T09:24:10Z</time>
      </trkpt>
      <trkpt lat="45.82884" lon="4.81774">
        <ele>417</ele>
        <time>2011-11-25T09:24:13Z</time>
      </trkpt>
      <trkpt lat="45.82882" lon="4.81773">
        <ele>417</ele>
        <time>2011-11-25T09:24:14Z</time>
      </trkpt>
      <trkpt lat="45.8288" lon="4.81772">
        <ele>417</ele>
        <time>2011-11-25T09:24:16Z</time>
      </trkpt>
      <trkpt lat="45.82871" lon="4.81768">
        <ele>419</ele>
        <time>2011-11-25T09:24:22Z</time>
      </trkpt>
      <trkpt lat="45.82868" lon="4.81764">
        <ele>420</ele>
        <time>2011-11-25T09:24:25Z</time>
      </trkpt>
      <trkpt lat="45.82866" lon="4.81761">
        <ele>420</ele>
        <time>2011-11-25T09:24:27Z</time>
      </trkpt>
      <trkpt lat="45.82859" lon="4.81754">
        <ele>422</ele>
        <time>2011-11-25T09:24:32Z</time>
      </trkpt>
      <trkpt lat="45.82855" lon="4.81749">
        <ele>419</ele>
        <time>2011-11-25T09:24:36Z</time>
      </trkpt>
      <trkpt lat="45.82851" lon="4.81746">
        <ele>420</ele>
        <time>2011-11-25T09:24:37Z</time>
      </trkpt>
      <trkpt lat="45.82845" lon="4.81741">
        <ele>422</ele>
        <time>2011-11-25T09:24:41Z</time>
      </trkpt>
      <trkpt lat="45.82844" lon="4.8174">
        <ele>422</ele>
        <time>2011-11-25T09:24:42Z</time>
      </trkpt>
      <trkpt lat="45.82837" lon="4.81736">
        <ele>422</ele>
        <time>2011-11-25T09:24:46Z</time>
      </trkpt>
      <trkpt lat="45.82835" lon="4.81736">
        <ele>423</ele>
        <time>2011-11-25T09:24:47Z</time>
      </trkpt>
      <trkpt lat="45.82827" lon="4.8173">
        <ele>431</ele>
        <time>2011-11-25T09:24:52Z</time>
      </trkpt>
      <trkpt lat="45.82819" lon="4.81723">
        <ele>431</ele>
        <time>2011-11-25T09:24:57Z</time>
      </trkpt>
      <trkpt lat="45.82817" lon="4.81722">
        <ele>431</ele>
        <time>2011-11-25T09:24:58Z</time>
      </trkpt>
      <trkpt lat="45.82812" lon="4.81717">
        <ele>431</ele>
        <time>2011-11-25T09:25:01Z</time>
      </trkpt>
      <trkpt lat="45.82806" lon="4.81712">
        <ele>431</ele>
        <time>2011-11-25T09:25:05Z</time>
      </trkpt>
      <trkpt lat="45.82803" lon="4.81708">
        <ele>431</ele>
        <time>2011-11-25T09:25:07Z</time>
      </trkpt>
      <trkpt lat="45.82795" lon="4.817">
        <ele>431</ele>
        <time>2011-11-25T09:25:11Z</time>
      </trkpt>
      <trkpt lat="45.82787" lon="4.81692">
        <ele>432</ele>
        <time>2011-11-25T09:25:16Z</time>
      </trkpt>
      <trkpt lat="45.82782" lon="4.81683">
        <ele>432</ele>
        <time>2011-11-25T09:25:19Z</time>
      </trkpt>
      <trkpt lat="45.82778" lon="4.81672">
        <ele>432</ele>
        <time>2011-11-25T09:25:22Z</time>
      </trkpt>
      <trkpt lat="45.82777" lon="4.81665">
        <ele>429</ele>
        <time>2011-11-25T09:25:24Z</time>
      </trkpt>
      <trkpt lat="45.82771" lon="4.8165">
        <ele>429</ele>
        <time>2011-11-25T09:25:30Z</time>
      </trkpt>
      <trkpt lat="45.82771" lon="4.81649">
        <ele>429</ele>
        <time>2011-11-25T09:25:31Z</time>
      </trkpt>
      <trkpt lat="45.8277" lon="4.81645">
        <ele>429</ele>
        <time>2011-11-25T09:25:32Z</time>
      </trkpt>
      <trkpt lat="45.82769" lon="4.81636">
        <ele>428</ele>
        <time>2011-11-25T09:25:36Z</time>
      </trkpt>
      <trkpt lat="45.82767" lon="4.81627">
        <ele>428</ele>
        <time>2011-11-25T09:25:38Z</time>
      </trkpt>
      <trkpt lat="45.82765" lon="4.81623">
        <ele>428</ele>
        <time>2011-11-25T09:25:40Z</time>
      </trkpt>
      <trkpt lat="45.82764" lon="4.81619">
        <ele>428</ele>
        <time>2011-11-25T09:25:42Z</time>
      </trkpt>
      <trkpt lat="45.82763" lon="4.81609">
        <ele>429</ele>
        <time>2011-11-25T09:25:46Z</time>
      </trkpt>
      <trkpt lat="45.82758" lon="4.81593">
        <ele>431</ele>
        <time>2011-11-25T09:25:51Z</time>
      </trkpt>
      <trkpt lat="45.82756" lon="4.81588">
        <ele>433</ele>
        <time>2011-11-25T09:25:53Z</time>
      </trkpt>
      <trkpt lat="45.82752" lon="4.81571">
        <ele>429</ele>
        <time>2011-11-25T09:25:59Z</time>
      </trkpt>
      <trkpt lat="45.82751" lon="4.81568">
        <ele>428</ele>
        <time>2011-11-25T09:26:00Z</time>
      </trkpt>
      <trkpt lat="45.8275" lon="4.8155">
        <ele>424</ele>
        <time>2011-11-25T09:26:06Z</time>
      </trkpt>
      <trkpt lat="45.82749" lon="4.8154">
        <ele>435</ele>
        <time>2011-11-25T09:26:09Z</time>
      </trkpt>
      <trkpt lat="45.82748" lon="4.81533">
        <ele>435</ele>
        <time>2011-11-25T09:26:11Z</time>
      </trkpt>
      <trkpt lat="45.82746" lon="4.81522">
        <ele>434</ele>
        <time>2011-11-25T09:26:16Z</time>
      </trkpt>
      <trkpt lat="45.82743" lon="4.81522">
        <ele>434</ele>
        <time>2011-11-25T09:26:20Z</time>
      </trkpt>
      <trkpt lat="45.82741" lon="4.81524">
        <ele>434</ele>
        <time>2011-11-25T09:26:22Z</time>
      </trkpt>
      <trkpt lat="45.82736" lon="4.81526">
        <ele>435</ele>
        <time>2011-11-25T09:26:25Z</time>
      </trkpt>
      <trkpt lat="45.82735" lon="4.81527">
        <ele>435</ele>
        <time>2011-11-25T09:26:26Z</time>
      </trkpt>
      <trkpt lat="45.82727" lon="4.81533">
        <ele>435</ele>
        <time>2011-11-25T09:26:32Z</time>
      </trkpt>
      <trkpt lat="45.82723" lon="4.81536">
        <ele>436</ele>
        <time>2011-11-25T09:26:33Z</time>
      </trkpt>
      <trkpt lat="45.82718" lon="4.81541">
        <ele>436</ele>
        <time>2011-11-25T09:26:37Z</time>
      </trkpt>
      <trkpt lat="45.82717" lon="4.81542">
        <ele>436</ele>
        <time>2011-11-25T09:26:38Z</time>
      </trkpt>
      <trkpt lat="45.82717" lon="4.81551">
        <ele>436</ele>
        <time>2011-11-25T09:26:42Z</time>
      </trkpt>
      <trkpt lat="45.82717" lon="4.81557">
        <ele>436</ele>
        <time>2011-11-25T09:26:44Z</time>
      </trkpt>
      <trkpt lat="45.82718" lon="4.81562">
        <ele>436</ele>
        <time>2011-11-25T09:26:46Z</time>
      </trkpt>
      <trkpt lat="45.82719" lon="4.81568">
        <ele>437</ele>
        <time>2011-11-25T09:26:48Z</time>
      </trkpt>
      <trkpt lat="45.82719" lon="4.81576">
        <ele>437</ele>
        <time>2011-11-25T09:26:51Z</time>
      </trkpt>
      <trkpt lat="45.82716" lon="4.81583">
        <ele>437</ele>
        <time>2011-11-25T09:26:55Z</time>
      </trkpt>
      <trkpt lat="45.82714" lon="4.81585">
        <ele>439</ele>
        <time>2011-11-25T09:26:56Z</time>
      </trkpt>
      <trkpt lat="45.82709" lon="4.816">
        <ele>439</ele>
        <time>2011-11-25T09:27:02Z</time>
      </trkpt>
      <trkpt lat="45.82708" lon="4.81607">
        <ele>439</ele>
        <time>2011-11-25T09:27:04Z</time>
      </trkpt>
      <trkpt lat="45.82705" lon="4.81611">
        <ele>439</ele>
        <time>2011-11-25T09:27:06Z</time>
      </trkpt>
      <trkpt lat="45.82702" lon="4.81625">
        <ele>439</ele>
        <time>2011-11-25T09:27:12Z</time>
      </trkpt>
      <trkpt lat="45.82701" lon="4.81632">
        <ele>439</ele>
        <time>2011-11-25T09:27:16Z</time>
      </trkpt>
      <trkpt lat="45.827" lon="4.81637">
        <ele>439</ele>
        <time>2011-11-25T09:27:18Z</time>
      </trkpt>
      <trkpt lat="45.827" lon="4.81639">
        <ele>439</ele>
        <time>2011-11-25T09:27:19Z</time>
      </trkpt>
      <trkpt lat="45.82698" lon="4.81652">
        <ele>440</ele>
        <time>2011-11-25T09:27:24Z</time>
      </trkpt>
      <trkpt lat="45.82697" lon="4.81659">
        <ele>440</ele>
        <time>2011-11-25T09:27:26Z</time>
      </trkpt>
      <trkpt lat="45.82696" lon="4.81661">
        <ele>440</ele>
        <time>2011-11-25T09:27:27Z</time>
      </trkpt>
      <trkpt lat="45.82695" lon="4.81671">
        <ele>441</ele>
        <time>2011-11-25T09:27:30Z</time>
      </trkpt>
      <trkpt lat="45.82692" lon="4.81679">
        <ele>441</ele>
        <time>2011-11-25T09:27:32Z</time>
      </trkpt>
      <trkpt lat="45.82691" lon="4.81682">
        <ele>441</ele>
        <time>2011-11-25T09:27:33Z</time>
      </trkpt>
      <trkpt lat="45.82689" lon="4.81688">
        <ele>441</ele>
        <time>2011-11-25T09:27:36Z</time>
      </trkpt>
      <trkpt lat="45.82689" lon="4.81704">
        <ele>442</ele>
        <time>2011-11-25T09:27:41Z</time>
      </trkpt>
      <trkpt lat="45.82688" lon="4.8171">
        <ele>442</ele>
        <time>2011-11-25T09:27:43Z</time>
      </trkpt>
      <trkpt lat="45.82686" lon="4.8172">
        <ele>442</ele>
        <time>2011-11-25T09:27:47Z</time>
      </trkpt>
      <trkpt lat="45.82685" lon="4.81732">
        <ele>443</ele>
        <time>2011-11-25T09:27:52Z</time>
      </trkpt>
      <trkpt lat="45.82686" lon="4.81738">
        <ele>443</ele>
        <time>2011-11-25T09:27:54Z</time>
      </trkpt>
      <trkpt lat="45.82684" lon="4.8175">
        <ele>443</ele>
        <time>2011-11-25T09:27:58Z</time>
      </trkpt>
      <trkpt lat="45.82681" lon="4.81764">
        <ele>445</ele>
        <time>2011-11-25T09:28:03Z</time>
      </trkpt>
      <trkpt lat="45.82678" lon="4.81778">
        <ele>445</ele>
        <time>2011-11-25T09:28:08Z</time>
      </trkpt>
      <trkpt lat="45.82678" lon="4.81783">
        <ele>445</ele>
        <time>2011-11-25T09:28:10Z</time>
      </trkpt>
      <trkpt lat="45.82677" lon="4.81789">
        <ele>445</ele>
        <time>2011-11-25T09:28:12Z</time>
      </trkpt>
      <trkpt lat="45.82676" lon="4.81793">
        <ele>445</ele>
        <time>2011-11-25T09:28:13Z</time>
      </trkpt>
      <trkpt lat="45.82676" lon="4.81801">
        <ele>446</ele>
        <time>2011-11-25T09:28:16Z</time>
      </trkpt>
      <trkpt lat="45.82676" lon="4.81804">
        <ele>446</ele>
        <time>2011-11-25T09:28:17Z</time>
      </trkpt>
      <trkpt lat="45.82673" lon="4.81821">
        <ele>448</ele>
        <time>2011-11-25T09:28:23Z</time>
      </trkpt>
      <trkpt lat="45.82673" lon="4.81824">
        <ele>448</ele>
        <time>2011-11-25T09:28:24Z</time>
      </trkpt>
      <trkpt lat="45.82667" lon="4.81845">
        <ele>449</ele>
        <time>2011-11-25T09:28:31Z</time>
      </trkpt>
      <trkpt lat="45.8266" lon="4.81861">
        <ele>453</ele>
        <time>2011-11-25T09:28:37Z</time>
      </trkpt>
      <trkpt lat="45.82657" lon="4.81869">
        <ele>453</ele>
        <time>2011-11-25T09:28:40Z</time>
      </trkpt>
      <trkpt lat="45.82654" lon="4.81876">
        <ele>453</ele>
        <time>2011-11-25T09:28:43Z</time>
      </trkpt>
      <trkpt lat="45.82652" lon="4.81887">
        <ele>454</ele>
        <time>2011-11-25T09:28:47Z</time>
      </trkpt>
      <trkpt lat="45.82652" lon="4.81889">
        <ele>454</ele>
        <time>2011-11-25T09:28:48Z</time>
      </trkpt>
      <trkpt lat="45.82652" lon="4.81893">
        <ele>454</ele>
        <time>2011-11-25T09:28:49Z</time>
      </trkpt>
      <trkpt lat="45.82652" lon="4.81896">
        <ele>454</ele>
        <time>2011-11-25T09:28:50Z</time>
      </trkpt>
      <trkpt lat="45.82648" lon="4.81905">
        <ele>454</ele>
        <time>2011-11-25T09:28:53Z</time>
      </trkpt>
      <trkpt lat="45.82646" lon="4.81911">
        <ele>454</ele>
        <time>2011-11-25T09:28:55Z</time>
      </trkpt>
      <trkpt lat="45.82645" lon="4.81918">
        <ele>455</ele>
        <time>2011-11-25T09:28:57Z</time>
      </trkpt>
      <trkpt lat="45.82644" lon="4.81921">
        <ele>455</ele>
        <time>2011-11-25T09:28:58Z</time>
      </trkpt>
      <trkpt lat="45.82641" lon="4.81933">
        <ele>455</ele>
        <time>2011-11-25T09:29:02Z</time>
      </trkpt>
      <trkpt lat="45.82637" lon="4.81941">
        <ele>455</ele>
        <time>2011-11-25T09:29:05Z</time>
      </trkpt>
      <trkpt lat="45.82634" lon="4.81954">
        <ele>455</ele>
        <time>2011-11-25T09:29:09Z</time>
      </trkpt>
      <trkpt lat="45.82632" lon="4.81968">
        <ele>455</ele>
        <time>2011-11-25T09:29:13Z</time>
      </trkpt>
      <trkpt lat="45.82627" lon="4.81989">
        <ele>456</ele>
        <time>2011-11-25T09:29:19Z</time>
      </trkpt>
      <trkpt lat="45.82627" lon="4.81995">
        <ele>456</ele>
        <time>2011-11-25T09:29:21Z</time>
      </trkpt>
      <trkpt lat="45.82626" lon="4.82005">
        <ele>455</ele>
        <time>2011-11-25T09:29:24Z</time>
      </trkpt>
      <trkpt lat="45.82624" lon="4.82015">
        <ele>456</ele>
        <time>2011-11-25T09:29:27Z</time>
      </trkpt>
      <trkpt lat="45.82623" lon="4.8202">
        <ele>455</ele>
        <time>2011-11-25T09:29:28Z</time>
      </trkpt>
      <trkpt lat="45.8262" lon="4.82035">
        <ele>455</ele>
        <time>2011-11-25T09:29:32Z</time>
      </trkpt>
      <trkpt lat="45.82618" lon="4.82046">
        <ele>455</ele>
        <time>2011-11-25T09:29:35Z</time>
      </trkpt>
      <trkpt lat="45.82616" lon="4.82052">
        <ele>456</ele>
        <time>2011-11-25T09:29:37Z</time>
      </trkpt>
      <trkpt lat="45.82617" lon="4.82071">
        <ele>455</ele>
        <time>2011-11-25T09:29:42Z</time>
      </trkpt>
      <trkpt lat="45.82618" lon="4.82074">
        <ele>455</ele>
        <time>2011-11-25T09:29:43Z</time>
      </trkpt>
      <trkpt lat="45.8262" lon="4.82078">
        <ele>455</ele>
        <time>2011-11-25T09:29:44Z</time>
      </trkpt>
      <trkpt lat="45.82625" lon="4.82085">
        <ele>455</ele>
        <time>2011-11-25T09:29:46Z</time>
      </trkpt>
      <trkpt lat="45.82631" lon="4.82095">
        <ele>454</ele>
        <time>2011-11-25T09:29:49Z</time>
      </trkpt>
      <trkpt lat="45.82634" lon="4.82105">
        <ele>454</ele>
        <time>2011-11-25T09:29:51Z</time>
      </trkpt>
      <trkpt lat="45.82637" lon="4.82123">
        <ele>454</ele>
        <time>2011-11-25T09:29:57Z</time>
      </trkpt>
      <trkpt lat="45.82643" lon="4.82145">
        <ele>455</ele>
        <time>2011-11-25T09:30:05Z</time>
      </trkpt>
      <trkpt lat="45.82647" lon="4.82163">
        <ele>454</ele>
        <time>2011-11-25T09:30:11Z</time>
      </trkpt>
      <trkpt lat="45.82649" lon="4.82171">
        <ele>455</ele>
        <time>2011-11-25T09:30:14Z</time>
      </trkpt>
      <trkpt lat="45.82654" lon="4.82182">
        <ele>455</ele>
        <time>2011-11-25T09:30:18Z</time>
      </trkpt>
      <trkpt lat="45.82656" lon="4.82191">
        <ele>456</ele>
        <time>2011-11-25T09:30:21Z</time>
      </trkpt>
      <trkpt lat="45.82656" lon="4.82196">
        <ele>456</ele>
        <time>2011-11-25T09:30:23Z</time>
      </trkpt>
      <trkpt lat="45.82652" lon="4.82198">
        <ele>456</ele>
        <time>2011-11-25T09:30:25Z</time>
      </trkpt>
      <trkpt lat="45.82648" lon="4.82199">
        <ele>456</ele>
        <time>2011-11-25T09:30:28Z</time>
      </trkpt>
      <trkpt lat="45.82638" lon="4.82203">
        <ele>457</ele>
        <time>2011-11-25T09:30:34Z</time>
      </trkpt>
      <trkpt lat="45.8263" lon="4.82206">
        <ele>457</ele>
        <time>2011-11-25T09:30:39Z</time>
      </trkpt>
      <trkpt lat="45.8262" lon="4.82211">
        <ele>457</ele>
        <time>2011-11-25T09:30:44Z</time>
      </trkpt>
      <trkpt lat="45.82607" lon="4.82215">
        <ele>458</ele>
        <time>2011-11-25T09:30:50Z</time>
      </trkpt>
      <trkpt lat="45.82602" lon="4.82217">
        <ele>458</ele>
        <time>2011-11-25T09:30:52Z</time>
      </trkpt>
      <trkpt lat="45.82595" lon="4.82218">
        <ele>458</ele>
        <time>2011-11-25T09:30:56Z</time>
      </trkpt>
      <trkpt lat="45.82589" lon="4.82227">
        <ele>459</ele>
        <time>2011-11-25T09:31:00Z</time>
      </trkpt>
      <trkpt lat="45.82586" lon="4.82229">
        <ele>459</ele>
        <time>2011-11-25T09:31:01Z</time>
      </trkpt>
      <trkpt lat="45.82577" lon="4.82233">
        <ele>461</ele>
        <time>2011-11-25T09:31:05Z</time>
      </trkpt>
      <trkpt lat="45.82568" lon="4.82232">
        <ele>462</ele>
        <time>2011-11-25T09:31:09Z</time>
      </trkpt>
      <trkpt lat="45.82563" lon="4.82232">
        <ele>462</ele>
        <time>2011-11-25T09:31:11Z</time>
      </trkpt>
      <trkpt lat="45.8255" lon="4.82231">
        <ele>462</ele>
        <time>2011-11-25T09:31:17Z</time>
      </trkpt>
      <trkpt lat="45.82548" lon="4.8223">
        <ele>462</ele>
        <time>2011-11-25T09:31:18Z</time>
      </trkpt>
      <trkpt lat="45.82533" lon="4.8223">
        <ele>463</ele>
        <time>2011-11-25T09:31:24Z</time>
      </trkpt>
      <trkpt lat="45.82528" lon="4.82229">
        <ele>463</ele>
        <time>2011-11-25T09:31:26Z</time>
      </trkpt>
      <trkpt lat="45.82521" lon="4.82228">
        <ele>463</ele>
        <time>2011-11-25T09:31:29Z</time>
      </trkpt>
      <trkpt lat="45.82513" lon="4.8222">
        <ele>463</ele>
        <time>2011-11-25T09:31:34Z</time>
      </trkpt>
      <trkpt lat="45.82511" lon="4.82221">
        <ele>463</ele>
        <time>2011-11-25T09:31:38Z</time>
      </trkpt>
      <trkpt lat="45.82511" lon="4.82223">
        <ele>463</ele>
        <time>2011-11-25T09:31:39Z</time>
      </trkpt>
      <trkpt lat="45.82512" lon="4.82235">
        <ele>463</ele>
        <time>2011-11-25T09:31:45Z</time>
      </trkpt>
      <trkpt lat="45.82511" lon="4.82247">
        <ele>463</ele>
        <time>2011-11-25T09:31:49Z</time>
      </trkpt>
      <trkpt lat="45.82507" lon="4.82256">
        <ele>461</ele>
        <time>2011-11-25T09:31:52Z</time>
      </trkpt>
      <trkpt lat="45.825" lon="4.82266">
        <ele>459</ele>
        <time>2011-11-25T09:31:57Z</time>
      </trkpt>
      <trkpt lat="45.82498" lon="4.82268">
        <ele>458</ele>
        <time>2011-11-25T09:31:58Z</time>
      </trkpt>
      <trkpt lat="45.82493" lon="4.82275">
        <ele>457</ele>
        <time>2011-11-25T09:32:02Z</time>
      </trkpt>
      <trkpt lat="45.82482" lon="4.82283">
        <ele>455</ele>
        <time>2011-11-25T09:32:07Z</time>
      </trkpt>
      <trkpt lat="45.82475" lon="4.82288">
        <ele>454</ele>
        <time>2011-11-25T09:32:13Z</time>
      </trkpt>
      <trkpt lat="45.82474" lon="4.82288">
        <ele>454</ele>
        <time>2011-11-25T09:32:21Z</time>
      </trkpt>
      <trkpt lat="45.82474" lon="4.82292">
        <ele>454</ele>
        <time>2011-11-25T09:32:24Z</time>
      </trkpt>
      <trkpt lat="45.82477" lon="4.82298">
        <ele>453</ele>
        <time>2011-11-25T09:32:26Z</time>
      </trkpt>
      <trkpt lat="45.82483" lon="4.8231">
        <ele>452</ele>
        <time>2011-11-25T09:32:30Z</time>
      </trkpt>
      <trkpt lat="45.82486" lon="4.82312">
        <ele>452</ele>
        <time>2011-11-25T09:32:31Z</time>
      </trkpt>
      <trkpt lat="45.8249" lon="4.82316">
        <ele>452</ele>
        <time>2011-11-25T09:32:33Z</time>
      </trkpt>
      <trkpt lat="45.82497" lon="4.82323">
        <ele>451</ele>
        <time>2011-11-25T09:32:36Z</time>
      </trkpt>
      <trkpt lat="45.82504" lon="4.82335">
        <ele>449</ele>
        <time>2011-11-25T09:32:41Z</time>
      </trkpt>
      <trkpt lat="45.82504" lon="4.82337">
        <ele>449</ele>
        <time>2011-11-25T09:32:42Z</time>
      </trkpt>
      <trkpt lat="45.825" lon="4.82337">
        <ele>449</ele>
        <time>2011-11-25T09:32:44Z</time>
      </trkpt>
      <trkpt lat="45.8249" lon="4.82332">
        <ele>451</ele>
        <time>2011-11-25T09:32:48Z</time>
      </trkpt>
      <trkpt lat="45.82487" lon="4.82331">
        <ele>451</ele>
        <time>2011-11-25T09:32:49Z</time>
      </trkpt>
      <trkpt lat="45.82472" lon="4.82322">
        <ele>451</ele>
        <time>2011-11-25T09:32:55Z</time>
      </trkpt>
      <trkpt lat="45.82469" lon="4.82321">
        <ele>451</ele>
        <time>2011-11-25T09:32:56Z</time>
      </trkpt>
      <trkpt lat="45.82463" lon="4.82317">
        <ele>451</ele>
        <time>2011-11-25T09:32:59Z</time>
      </trkpt>
      <trkpt lat="45.82455" lon="4.82311">
        <ele>451</ele>
        <time>2011-11-25T09:33:03Z</time>
      </trkpt>
      <trkpt lat="45.82453" lon="4.8231">
        <ele>451</ele>
        <time>2011-11-25T09:33:04Z</time>
      </trkpt>
      <trkpt lat="45.82442" lon="4.82312">
        <ele>450</ele>
        <time>2011-11-25T09:33:08Z</time>
      </trkpt>
      <trkpt lat="45.82435" lon="4.82315">
        <ele>449</ele>
        <time>2011-11-25T09:33:10Z</time>
      </trkpt>
      <trkpt lat="45.82428" lon="4.82316">
        <ele>448</ele>
        <time>2011-11-25T09:33:13Z</time>
      </trkpt>
      <trkpt lat="45.82415" lon="4.82319">
        <ele>443</ele>
        <time>2011-11-25T09:33:18Z</time>
      </trkpt>
      <trkpt lat="45.82397" lon="4.82322">
        <ele>443</ele>
        <time>2011-11-25T09:33:25Z</time>
      </trkpt>
      <trkpt lat="45.82394" lon="4.82322">
        <ele>443</ele>
        <time>2011-11-25T09:33:26Z</time>
      </trkpt>
      <trkpt lat="45.82378" lon="4.82325">
        <ele>442</ele>
        <time>2011-11-25T09:33:32Z</time>
      </trkpt>
      <trkpt lat="45.82367" lon="4.82332">
        <ele>440</ele>
        <time>2011-11-25T09:33:37Z</time>
      </trkpt>
      <trkpt lat="45.8236" lon="4.82332">
        <ele>439</ele>
        <time>2011-11-25T09:33:40Z</time>
      </trkpt>
      <trkpt lat="45.82355" lon="4.8233">
        <ele>438</ele>
        <time>2011-11-25T09:33:42Z</time>
      </trkpt>
      <trkpt lat="45.82347" lon="4.82328">
        <ele>436</ele>
        <time>2011-11-25T09:33:45Z</time>
      </trkpt>
      <trkpt lat="45.82342" lon="4.82328">
        <ele>435</ele>
        <time>2011-11-25T09:33:47Z</time>
      </trkpt>
      <trkpt lat="45.82339" lon="4.82329">
        <ele>434</ele>
        <time>2011-11-25T09:33:48Z</time>
      </trkpt>
      <trkpt lat="45.82325" lon="4.82326">
        <ele>430</ele>
        <time>2011-11-25T09:33:54Z</time>
      </trkpt>
      <trkpt lat="45.82322" lon="4.82326">
        <ele>430</ele>
        <time>2011-11-25T09:33:55Z</time>
      </trkpt>
      <trkpt lat="45.82312" lon="4.82322">
        <ele>430</ele>
        <time>2011-11-25T09:33:59Z</time>
      </trkpt>
      <trkpt lat="45.82303" lon="4.82318">
        <ele>429</ele>
        <time>2011-11-25T09:34:03Z</time>
      </trkpt>
      <trkpt lat="45.82301" lon="4.82316">
        <ele>429</ele>
        <time>2011-11-25T09:34:04Z</time>
      </trkpt>
      <trkpt lat="45.82286" lon="4.82312">
        <ele>427</ele>
        <time>2011-11-25T09:34:10Z</time>
      </trkpt>
      <trkpt lat="45.82284" lon="4.82311">
        <ele>427</ele>
        <time>2011-11-25T09:34:11Z</time>
      </trkpt>
      <trkpt lat="45.8228" lon="4.82308">
        <ele>427</ele>
        <time>2011-11-25T09:34:13Z</time>
      </trkpt>
      <trkpt lat="45.82276" lon="4.82308">
        <ele>426</ele>
        <time>2011-11-25T09:34:15Z</time>
      </trkpt>
      <trkpt lat="45.82269" lon="4.82313">
        <ele>424</ele>
        <time>2011-11-25T09:34:19Z</time>
      </trkpt>
      <trkpt lat="45.82266" lon="4.82314">
        <ele>424</ele>
        <time>2011-11-25T09:34:20Z</time>
      </trkpt>
      <trkpt lat="45.8225" lon="4.82314">
        <ele>413</ele>
        <time>2011-11-25T09:34:26Z</time>
      </trkpt>
      <trkpt lat="45.82246" lon="4.82313">
        <ele>413</ele>
        <time>2011-11-25T09:34:27Z</time>
      </trkpt>
      <trkpt lat="45.82236" lon="4.82309">
        <ele>414</ele>
        <time>2011-11-25T09:34:31Z</time>
      </trkpt>
      <trkpt lat="45.82228" lon="4.82306">
        <ele>414</ele>
        <time>2011-11-25T09:34:34Z</time>
      </trkpt>
      <trkpt lat="45.82222" lon="4.82305">
        <ele>413</ele>
        <time>2011-11-25T09:34:36Z</time>
      </trkpt>
      <trkpt lat="45.82211" lon="4.82309">
        <ele>412</ele>
        <time>2011-11-25T09:34:40Z</time>
      </trkpt>
      <trkpt lat="45.82208" lon="4.82309">
        <ele>412</ele>
        <time>2011-11-25T09:34:41Z</time>
      </trkpt>
      <trkpt lat="45.82197" lon="4.82314">
        <ele>410</ele>
        <time>2011-11-25T09:34:45Z</time>
      </trkpt>
      <trkpt lat="45.82195" lon="4.82314">
        <ele>409</ele>
        <time>2011-11-25T09:34:46Z</time>
      </trkpt>
      <trkpt lat="45.8219" lon="4.82314">
        <ele>408</ele>
        <time>2011-11-25T09:34:48Z</time>
      </trkpt>
      <trkpt lat="45.82187" lon="4.82314">
        <ele>408</ele>
        <time>2011-11-25T09:34:49Z</time>
      </trkpt>
      <trkpt lat="45.82179" lon="4.82318">
        <ele>406</ele>
        <time>2011-11-25T09:34:52Z</time>
      </trkpt>
      <trkpt lat="45.82174" lon="4.8232">
        <ele>404</ele>
        <time>2011-11-25T09:34:54Z</time>
      </trkpt>
      <trkpt lat="45.82172" lon="4.82321">
        <ele>403</ele>
        <time>2011-11-25T09:34:55Z</time>
      </trkpt>
      <trkpt lat="45.82162" lon="4.82327">
        <ele>396</ele>
        <time>2011-11-25T09:35:00Z</time>
      </trkpt>
      <trkpt lat="45.82155" lon="4.82331">
        <ele>396</ele>
        <time>2011-11-25T09:35:03Z</time>
      </trkpt>
      <trkpt lat="45.8215" lon="4.82335">
        <ele>391</ele>
        <time>2011-11-25T09:35:05Z</time>
      </trkpt>
      <trkpt lat="45.82137" lon="4.82343">
        <ele>389</ele>
        <time>2011-11-25T09:35:11Z</time>
      </trkpt>
      <trkpt lat="45.82122" lon="4.82345">
        <ele>387</ele>
        <time>2011-11-25T09:35:16Z</time>
      </trkpt>
      <trkpt lat="45.82117" lon="4.82343">
        <ele>386</ele>
        <time>2011-11-25T09:35:18Z</time>
      </trkpt>
      <trkpt lat="45.8211" lon="4.82335">
        <ele>386</ele>
        <time>2011-11-25T09:35:21Z</time>
      </trkpt>
      <trkpt lat="45.82102" lon="4.82323">
        <ele>391</ele>
        <time>2011-11-25T09:35:26Z</time>
      </trkpt>
      <trkpt lat="45.82092" lon="4.82307">
        <ele>392</ele>
        <time>2011-11-25T09:35:32Z</time>
      </trkpt>
      <trkpt lat="45.82087" lon="4.82304">
        <ele>393</ele>
        <time>2011-11-25T09:35:34Z</time>
      </trkpt>
      <trkpt lat="45.8208" lon="4.82299">
        <ele>383</ele>
        <time>2011-11-25T09:35:37Z</time>
      </trkpt>
      <trkpt lat="45.8207" lon="4.82294">
        <ele>383</ele>
        <time>2011-11-25T09:35:41Z</time>
      </trkpt>
      <trkpt lat="45.82062" lon="4.82284">
        <ele>383</ele>
        <time>2011-11-25T09:35:45Z</time>
      </trkpt>
      <trkpt lat="45.82056" lon="4.82275">
        <ele>383</ele>
        <time>2011-11-25T09:35:48Z</time>
      </trkpt>
      <trkpt lat="45.82052" lon="4.8227">
        <ele>383</ele>
        <time>2011-11-25T09:35:50Z</time>
      </trkpt>
      <trkpt lat="45.82044" lon="4.82253">
        <ele>383</ele>
        <time>2011-11-25T09:35:56Z</time>
      </trkpt>
      <trkpt lat="45.82041" lon="4.82234">
        <ele>390</ele>
        <time>2011-11-25T09:36:02Z</time>
      </trkpt>
      <trkpt lat="45.82039" lon="4.82227">
        <ele>390</ele>
        <time>2011-11-25T09:36:04Z</time>
      </trkpt>
      <trkpt lat="45.82038" lon="4.82219">
        <ele>391</ele>
        <time>2011-11-25T09:36:07Z</time>
      </trkpt>
      <trkpt lat="45.82037" lon="4.82202">
        <ele>392</ele>
        <time>2011-11-25T09:36:15Z</time>
      </trkpt>
      <trkpt lat="45.82037" lon="4.822">
        <ele>392</ele>
        <time>2011-11-25T09:36:16Z</time>
      </trkpt>
      <trkpt lat="45.82036" lon="4.82192">
        <ele>392</ele>
        <time>2011-11-25T09:36:19Z</time>
      </trkpt>
      <trkpt lat="45.82036" lon="4.82191">
        <ele>393</ele>
        <time>2011-11-25T09:36:20Z</time>
      </trkpt>
      <trkpt lat="45.82036" lon="4.8218">
        <ele>393</ele>
        <time>2011-11-25T09:36:25Z</time>
      </trkpt>
      <trkpt lat="45.82035" lon="4.82178">
        <ele>393</ele>
        <time>2011-11-25T09:36:26Z</time>
      </trkpt>
      <trkpt lat="45.82035" lon="4.82174">
        <ele>393</ele>
        <time>2011-11-25T09:36:28Z</time>
      </trkpt>
      <trkpt lat="45.82034" lon="4.8217">
        <ele>393</ele>
        <time>2011-11-25T09:36:30Z</time>
      </trkpt>
      <trkpt lat="45.82034" lon="4.82168">
        <ele>393</ele>
        <time>2011-11-25T09:36:31Z</time>
      </trkpt>
      <trkpt lat="45.82033" lon="4.82164">
        <ele>400</ele>
        <time>2011-11-25T09:36:33Z</time>
      </trkpt>
      <trkpt lat="45.82033" lon="4.82157">
        <ele>400</ele>
        <time>2011-11-25T09:36:36Z</time>
      </trkpt>
      <trkpt lat="45.82032" lon="4.82148">
        <ele>401</ele>
        <time>2011-11-25T09:36:40Z</time>
      </trkpt>
      <trkpt lat="45.82033" lon="4.82146">
        <ele>401</ele>
        <time>2011-11-25T09:36:41Z</time>
      </trkpt>
      <trkpt lat="45.82034" lon="4.82133">
        <ele>402</ele>
        <time>2011-11-25T09:36:47Z</time>
      </trkpt>
      <trkpt lat="45.82034" lon="4.82124">
        <ele>403</ele>
        <time>2011-11-25T09:36:51Z</time>
      </trkpt>
      <trkpt lat="45.82034" lon="4.82122">
        <ele>403</ele>
        <time>2011-11-25T09:36:52Z</time>
      </trkpt>
      <trkpt lat="45.82035" lon="4.82118">
        <ele>403</ele>
        <time>2011-11-25T09:36:54Z</time>
      </trkpt>
      <trkpt lat="45.82035" lon="4.82113">
        <ele>403</ele>
        <time>2011-11-25T09:36:58Z</time>
      </trkpt>
      <trkpt lat="45.82035" lon="4.82108">
        <ele>404</ele>
        <time>2011-11-25T09:37:00Z</time>
      </trkpt>
      <trkpt lat="45.82035" lon="4.82101">
        <ele>404</ele>
        <time>2011-11-25T09:37:04Z</time>
      </trkpt>
      <trkpt lat="45.82035" lon="4.82098">
        <ele>404</ele>
        <time>2011-11-25T09:37:06Z</time>
      </trkpt>
      <trkpt lat="45.82035" lon="4.82095">
        <ele>404</ele>
        <time>2011-11-25T09:37:08Z</time>
      </trkpt>
      <trkpt lat="45.82036" lon="4.82087">
        <ele>404</ele>
        <time>2011-11-25T09:37:13Z</time>
      </trkpt>
      <trkpt lat="45.82036" lon="4.82075">
        <ele>407</ele>
        <time>2011-11-25T09:37:21Z</time>
      </trkpt>
      <trkpt lat="45.82037" lon="4.82073">
        <ele>407</ele>
        <time>2011-11-25T09:37:22Z</time>
      </trkpt>
      <trkpt lat="45.82037" lon="4.82069">
        <ele>408</ele>
        <time>2011-11-25T09:37:24Z</time>
      </trkpt>
      <trkpt lat="45.82038" lon="4.82067">
        <ele>408</ele>
        <time>2011-11-25T09:37:25Z</time>
      </trkpt>
      <trkpt lat="45.8204" lon="4.82059">
        <ele>408</ele>
        <time>2011-11-25T09:37:29Z</time>
      </trkpt>
      <trkpt lat="45.8204" lon="4.82057">
        <ele>408</ele>
        <time>2011-11-25T09:37:30Z</time>
      </trkpt>
      <trkpt lat="45.82041" lon="4.82052">
        <ele>409</ele>
        <time>2011-11-25T09:37:33Z</time>
      </trkpt>
      <trkpt lat="45.82042" lon="4.82047">
        <ele>409</ele>
        <time>2011-11-25T09:37:36Z</time>
      </trkpt>
      <trkpt lat="45.82044" lon="4.82044">
        <ele>409</ele>
        <time>2011-11-25T09:37:38Z</time>
      </trkpt>
      <trkpt lat="45.82045" lon="4.82038">
        <ele>409</ele>
        <time>2011-11-25T09:37:42Z</time>
      </trkpt>
      <trkpt lat="45.82046" lon="4.82035">
        <ele>410</ele>
        <time>2011-11-25T09:37:44Z</time>
      </trkpt>
      <trkpt lat="45.82048" lon="4.82027">
        <ele>410</ele>
        <time>2011-11-25T09:37:49Z</time>
      </trkpt>
      <trkpt lat="45.8205" lon="4.82019">
        <ele>411</ele>
        <time>2011-11-25T09:37:54Z</time>
      </trkpt>
      <trkpt lat="45.82051" lon="4.82015">
        <ele>411</ele>
        <time>2011-11-25T09:37:57Z</time>
      </trkpt>
      <trkpt lat="45.82053" lon="4.82002">
        <ele>412</ele>
        <time>2011-11-25T09:38:04Z</time>
      </trkpt>
      <trkpt lat="45.82056" lon="4.81995">
        <ele>411</ele>
        <time>2011-11-25T09:38:08Z</time>
      </trkpt>
      <trkpt lat="45.82059" lon="4.81986">
        <ele>411</ele>
        <time>2011-11-25T09:38:13Z</time>
      </trkpt>
      <trkpt lat="45.82063" lon="4.81978">
        <ele>411</ele>
        <time>2011-11-25T09:38:18Z</time>
      </trkpt>
      <trkpt lat="45.82063" lon="4.81976">
        <ele>411</ele>
        <time>2011-11-25T09:38:19Z</time>
      </trkpt>
      <trkpt lat="45.82066" lon="4.81974">
        <ele>411</ele>
        <time>2011-11-25T09:38:22Z</time>
      </trkpt>
      <trkpt lat="45.82069" lon="4.81973">
        <ele>411</ele>
        <time>2011-11-25T09:38:25Z</time>
      </trkpt>
      <trkpt lat="45.82076" lon="4.81969">
        <ele>411</ele>
        <time>2011-11-25T09:38:31Z</time>
      </trkpt>
      <trkpt lat="45.82084" lon="4.81966">
        <ele>428</ele>
        <time>2011-11-25T09:38:37Z</time>
      </trkpt>
      <trkpt lat="45.82093" lon="4.81959">
        <ele>429</ele>
        <time>2011-11-25T09:38:46Z</time>
      </trkpt>
      <trkpt lat="45.82095" lon="4.81959">
        <ele>429</ele>
        <time>2011-11-25T09:38:47Z</time>
      </trkpt>
      <trkpt lat="45.82099" lon="4.81956">
        <ele>429</ele>
        <time>2011-11-25T09:38:51Z</time>
      </trkpt>
      <trkpt lat="45.82101" lon="4.81955">
        <ele>429</ele>
        <time>2011-11-25T09:38:52Z</time>
      </trkpt>
      <trkpt lat="45.82108" lon="4.81953">
        <ele>430</ele>
        <time>2011-11-25T09:38:58Z</time>
      </trkpt>
      <trkpt lat="45.82112" lon="4.81951">
        <ele>431</ele>
        <time>2011-11-25T09:39:01Z</time>
      </trkpt>
      <trkpt lat="45.82113" lon="4.81951">
        <ele>431</ele>
        <time>2011-11-25T09:39:02Z</time>
      </trkpt>
      <trkpt lat="45.82116" lon="4.81949">
        <ele>431</ele>
        <time>2011-11-25T09:39:05Z</time>
      </trkpt>
      <trkpt lat="45.82119" lon="4.8195">
        <ele>432</ele>
        <time>2011-11-25T09:39:08Z</time>
      </trkpt>
      <trkpt lat="45.82122" lon="4.8195">
        <ele>432</ele>
        <time>2011-11-25T09:39:10Z</time>
      </trkpt>
      <trkpt lat="45.82123" lon="4.81949">
        <ele>432</ele>
        <time>2011-11-25T09:39:11Z</time>
      </trkpt>
      <trkpt lat="45.82125" lon="4.81947">
        <ele>433</ele>
        <time>2011-11-25T09:39:14Z</time>
      </trkpt>
      <trkpt lat="45.82128" lon="4.81943">
        <ele>433</ele>
        <time>2011-11-25T09:39:17Z</time>
      </trkpt>
      <trkpt lat="45.8213" lon="4.81938">
        <ele>433</ele>
        <time>2011-11-25T09:39:20Z</time>
      </trkpt>
      <trkpt lat="45.82134" lon="4.81936">
        <ele>434</ele>
        <time>2011-11-25T09:39:23Z</time>
      </trkpt>
      <trkpt lat="45.82135" lon="4.81931">
        <ele>434</ele>
        <time>2011-11-25T09:39:26Z</time>
      </trkpt>
      <trkpt lat="45.82136" lon="4.81931">
        <ele>434</ele>
        <time>2011-11-25T09:39:27Z</time>
      </trkpt>
      <trkpt lat="45.82138" lon="4.81926">
        <ele>434</ele>
        <time>2011-11-25T09:39:31Z</time>
      </trkpt>
      <trkpt lat="45.82145" lon="4.81923">
        <ele>436</ele>
        <time>2011-11-25T09:39:37Z</time>
      </trkpt>
      <trkpt lat="45.82146" lon="4.81923">
        <ele>436</ele>
        <time>2011-11-25T09:39:38Z</time>
      </trkpt>
      <trkpt lat="45.82148" lon="4.81927">
        <ele>436</ele>
        <time>2011-11-25T09:39:41Z</time>
      </trkpt>
      <trkpt lat="45.82148" lon="4.81929">
        <ele>436</ele>
        <time>2011-11-25T09:39:42Z</time>
      </trkpt>
      <trkpt lat="45.82147" lon="4.8193">
        <ele>436</ele>
        <time>2011-11-25T09:39:43Z</time>
      </trkpt>
      <trkpt lat="45.82142" lon="4.81939">
        <ele>435</ele>
        <time>2011-11-25T09:39:49Z</time>
      </trkpt>
      <trkpt lat="45.82136" lon="4.81947">
        <ele>434</ele>
        <time>2011-11-25T09:39:55Z</time>
      </trkpt>
      <trkpt lat="45.82135" lon="4.81948">
        <ele>434</ele>
        <time>2011-11-25T09:39:56Z</time>
      </trkpt>
      <trkpt lat="45.82132" lon="4.81955">
        <ele>434</ele>
        <time>2011-11-25T09:40:01Z</time>
      </trkpt>
      <trkpt lat="45.82132" lon="4.81957">
        <ele>434</ele>
        <time>2011-11-25T09:40:02Z</time>
      </trkpt>
      <trkpt lat="45.8213" lon="4.8197">
        <ele>435</ele>
        <time>2011-11-25T09:40:09Z</time>
      </trkpt>
      <trkpt lat="45.8213" lon="4.81972">
        <ele>435</ele>
        <time>2011-11-25T09:40:10Z</time>
      </trkpt>
      <trkpt lat="45.8213" lon="4.81983">
        <ele>436</ele>
        <time>2011-11-25T09:40:16Z</time>
      </trkpt>
      <trkpt lat="45.8213" lon="4.81997">
        <ele>437</ele>
        <time>2011-11-25T09:40:24Z</time>
      </trkpt>
      <trkpt lat="45.8213" lon="4.81999">
        <ele>437</ele>
        <time>2011-11-25T09:40:25Z</time>
      </trkpt>
      <trkpt lat="45.8213" lon="4.82011">
        <ele>439</ele>
        <time>2011-11-25T09:40:31Z</time>
      </trkpt>
      <trkpt lat="45.82132" lon="4.82025">
        <ele>439</ele>
        <time>2011-11-25T09:40:38Z</time>
      </trkpt>
      <trkpt lat="45.82133" lon="4.82029">
        <ele>439</ele>
        <time>2011-11-25T09:40:40Z</time>
      </trkpt>
      <trkpt lat="45.82137" lon="4.82042">
        <ele>440</ele>
        <time>2011-11-25T09:40:48Z</time>
      </trkpt>
      <trkpt lat="45.82142" lon="4.82045">
        <ele>441</ele>
        <time>2011-11-25T09:40:52Z</time>
      </trkpt>
      <trkpt lat="45.82144" lon="4.82045">
        <ele>441</ele>
        <time>2011-11-25T09:40:54Z</time>
      </trkpt>
      <trkpt lat="45.82146" lon="4.82036">
        <ele>441</ele>
        <time>2011-11-25T09:40:59Z</time>
      </trkpt>
      <trkpt lat="45.82146" lon="4.82031">
        <ele>442</ele>
        <time>2011-11-25T09:41:01Z</time>
      </trkpt>
      <trkpt lat="45.82146" lon="4.82023">
        <ele>442</ele>
        <time>2011-11-25T09:41:05Z</time>
      </trkpt>
      <trkpt lat="45.82146" lon="4.82017">
        <ele>443</ele>
        <time>2011-11-25T09:41:08Z</time>
      </trkpt>
      <trkpt lat="45.82145" lon="4.82">
        <ele>444</ele>
        <time>2011-11-25T09:41:16Z</time>
      </trkpt>
      <trkpt lat="45.82146" lon="4.81996">
        <ele>441</ele>
        <time>2011-11-25T09:41:18Z</time>
      </trkpt>
      <trkpt lat="45.82149" lon="4.81989">
        <ele>442</ele>
        <time>2011-11-25T09:41:23Z</time>
      </trkpt>
      <trkpt lat="45.82154" lon="4.81979">
        <ele>441</ele>
        <time>2011-11-25T09:41:29Z</time>
      </trkpt>
      <trkpt lat="45.82155" lon="4.81976">
        <ele>440</ele>
        <time>2011-11-25T09:41:31Z</time>
      </trkpt>
      <trkpt lat="45.82156" lon="4.81975">
        <ele>440</ele>
        <time>2011-11-25T09:41:33Z</time>
      </trkpt>
      <trkpt lat="45.82159" lon="4.81973">
        <ele>440</ele>
        <time>2011-11-25T09:41:36Z</time>
      </trkpt>
      <trkpt lat="45.82162" lon="4.81971">
        <ele>440</ele>
        <time>2011-11-25T09:41:42Z</time>
      </trkpt>
      <trkpt lat="45.82159" lon="4.81977">
        <ele>441</ele>
        <time>2011-11-25T09:42:05Z</time>
      </trkpt>
      <trkpt lat="45.82158" lon="4.81978">
        <ele>441</ele>
        <time>2011-11-25T09:42:06Z</time>
      </trkpt>
      <trkpt lat="45.82154" lon="4.81986">
        <ele>442</ele>
        <time>2011-11-25T09:42:11Z</time>
      </trkpt>
      <trkpt lat="45.82154" lon="4.81993">
        <ele>444</ele>
        <time>2011-11-25T09:42:13Z</time>
      </trkpt>
      <trkpt lat="45.8215" lon="4.82003">
        <ele>445</ele>
        <time>2011-11-25T09:42:16Z</time>
      </trkpt>
      <trkpt lat="45.82148" lon="4.82012">
        <ele>444</ele>
        <time>2011-11-25T09:42:18Z</time>
      </trkpt>
      <trkpt lat="45.82147" lon="4.82026">
        <ele>442</ele>
        <time>2011-11-25T09:42:21Z</time>
      </trkpt>
      <trkpt lat="45.82148" lon="4.82038">
        <ele>442</ele>
        <time>2011-11-25T09:42:24Z</time>
      </trkpt>
      <trkpt lat="45.82148" lon="4.82043">
        <ele>442</ele>
        <time>2011-11-25T09:42:25Z</time>
      </trkpt>
      <trkpt lat="45.82143" lon="4.82056">
        <ele>441</ele>
        <time>2011-11-25T09:42:29Z</time>
      </trkpt>
      <trkpt lat="45.82138" lon="4.82051">
        <ele>440</ele>
        <time>2011-11-25T09:42:31Z</time>
      </trkpt>
      <trkpt lat="45.82137" lon="4.82047">
        <ele>440</ele>
        <time>2011-11-25T09:42:32Z</time>
      </trkpt>
      <trkpt lat="45.82134" lon="4.82029">
        <ele>440</ele>
        <time>2011-11-25T09:42:36Z</time>
      </trkpt>
      <trkpt lat="45.82134" lon="4.82025">
        <ele>440</ele>
        <time>2011-11-25T09:42:37Z</time>
      </trkpt>
      <trkpt lat="45.82135" lon="4.82">
        <ele>441</ele>
        <time>2011-11-25T09:42:43Z</time>
      </trkpt>
      <trkpt lat="45.82136" lon="4.81997">
        <ele>438</ele>
        <time>2011-11-25T09:42:44Z</time>
      </trkpt>
      <trkpt lat="45.82137" lon="4.81977">
        <ele>437</ele>
        <time>2011-11-25T09:42:49Z</time>
      </trkpt>
      <trkpt lat="45.82137" lon="4.81969">
        <ele>436</ele>
        <time>2011-11-25T09:42:51Z</time>
      </trkpt>
      <trkpt lat="45.82138" lon="4.8196">
        <ele>435</ele>
        <time>2011-11-25T09:42:53Z</time>
      </trkpt>
      <trkpt lat="45.82146" lon="4.81944">
        <ele>436</ele>
        <time>2011-11-25T09:42:58Z</time>
      </trkpt>
      <trkpt lat="45.82149" lon="4.81938">
        <ele>436</ele>
        <time>2011-11-25T09:43:00Z</time>
      </trkpt>
      <trkpt lat="45.8215" lon="4.81936">
        <ele>436</ele>
        <time>2011-11-25T09:43:01Z</time>
      </trkpt>
      <trkpt lat="45.8215" lon="4.81931">
        <ele>436</ele>
        <time>2011-11-25T09:43:03Z</time>
      </trkpt>
      <trkpt lat="45.82146" lon="4.81929">
        <ele>436</ele>
        <time>2011-11-25T09:43:05Z</time>
      </trkpt>
      <trkpt lat="45.82143" lon="4.81934">
        <ele>435</ele>
        <time>2011-11-25T09:43:07Z</time>
      </trkpt>
      <trkpt lat="45.82138" lon="4.8194">
        <ele>435</ele>
        <time>2011-11-25T09:43:09Z</time>
      </trkpt>
      <trkpt lat="45.8213" lon="4.8195">
        <ele>434</ele>
        <time>2011-11-25T09:43:13Z</time>
      </trkpt>
      <trkpt lat="45.82128" lon="4.81952">
        <ele>433</ele>
        <time>2011-11-25T09:43:14Z</time>
      </trkpt>
      <trkpt lat="45.82117" lon="4.81957">
        <ele>432</ele>
        <time>2011-11-25T09:43:18Z</time>
      </trkpt>
      <trkpt lat="45.8211" lon="4.8196">
        <ele>431</ele>
        <time>2011-11-25T09:43:20Z</time>
      </trkpt>
      <trkpt lat="45.82104" lon="4.81963">
        <ele>430</ele>
        <time>2011-11-25T09:43:22Z</time>
      </trkpt>
      <trkpt lat="45.82092" lon="4.81969">
        <ele>429</ele>
        <time>2011-11-25T09:43:26Z</time>
      </trkpt>
      <trkpt lat="45.82089" lon="4.8197">
        <ele>429</ele>
        <time>2011-11-25T09:43:27Z</time>
      </trkpt>
      <trkpt lat="45.82084" lon="4.81969">
        <ele>429</ele>
        <time>2011-11-25T09:43:29Z</time>
      </trkpt>
      <trkpt lat="45.82081" lon="4.81969">
        <ele>412</ele>
        <time>2011-11-25T09:43:31Z</time>
      </trkpt>
      <trkpt lat="45.82078" lon="4.81968">
        <ele>411</ele>
        <time>2011-11-25T09:43:34Z</time>
      </trkpt>
      <trkpt lat="45.82077" lon="4.81966">
        <ele>411</ele>
        <time>2011-11-25T09:43:36Z</time>
      </trkpt>
      <trkpt lat="45.82075" lon="4.81961">
        <ele>410</ele>
        <time>2011-11-25T09:43:38Z</time>
      </trkpt>
      <trkpt lat="45.82071" lon="4.81956">
        <ele>409</ele>
        <time>2011-11-25T09:43:40Z</time>
      </trkpt>
      <trkpt lat="45.82063" lon="4.81943">
        <ele>408</ele>
        <time>2011-11-25T09:43:45Z</time>
      </trkpt>
      <trkpt lat="45.82062" lon="4.81942">
        <ele>408</ele>
        <time>2011-11-25T09:43:46Z</time>
      </trkpt>
      <trkpt lat="45.82059" lon="4.81938">
        <ele>408</ele>
        <time>2011-11-25T09:43:48Z</time>
      </trkpt>
      <trkpt lat="45.82056" lon="4.81935">
        <ele>407</ele>
        <time>2011-11-25T09:43:50Z</time>
      </trkpt>
      <trkpt lat="45.82049" lon="4.81925">
        <ele>406</ele>
        <time>2011-11-25T09:43:55Z</time>
      </trkpt>
      <trkpt lat="45.82048" lon="4.81924">
        <ele>405</ele>
        <time>2011-11-25T09:43:56Z</time>
      </trkpt>
      <trkpt lat="45.82044" lon="4.81916">
        <ele>399</ele>
        <time>2011-11-25T09:44:00Z</time>
      </trkpt>
      <trkpt lat="45.8204" lon="4.8191">
        <ele>398</ele>
        <time>2011-11-25T09:44:04Z</time>
      </trkpt>
      <trkpt lat="45.82038" lon="4.81909">
        <ele>398</ele>
        <time>2011-11-25T09:44:05Z</time>
      </trkpt>
      <trkpt lat="45.82034" lon="4.81906">
        <ele>397</ele>
        <time>2011-11-25T09:44:08Z</time>
      </trkpt>
      <trkpt lat="45.82033" lon="4.81904">
        <ele>397</ele>
        <time>2011-11-25T09:44:09Z</time>
      </trkpt>
      <trkpt lat="45.82026" lon="4.81894">
        <ele>396</ele>
        <time>2011-11-25T09:44:14Z</time>
      </trkpt>
      <trkpt lat="45.82022" lon="4.81887">
        <ele>395</ele>
        <time>2011-11-25T09:44:18Z</time>
      </trkpt>
      <trkpt lat="45.82017" lon="4.8188">
        <ele>394</ele>
        <time>2011-11-25T09:44:22Z</time>
      </trkpt>
      <trkpt lat="45.82013" lon="4.81876">
        <ele>394</ele>
        <time>2011-11-25T09:44:24Z</time>
      </trkpt>
      <trkpt lat="45.82008" lon="4.81869">
        <ele>393</ele>
        <time>2011-11-25T09:44:27Z</time>
      </trkpt>
      <trkpt lat="45.82005" lon="4.81863">
        <ele>392</ele>
        <time>2011-11-25T09:44:29Z</time>
      </trkpt>
      <trkpt lat="45.82003" lon="4.81858">
        <ele>391</ele>
        <time>2011-11-25T09:44:31Z</time>
      </trkpt>
      <trkpt lat="45.82001" lon="4.81857">
        <ele>391</ele>
        <time>2011-11-25T09:44:33Z</time>
      </trkpt>
      <trkpt lat="45.81995" lon="4.81851">
        <ele>379</ele>
        <time>2011-11-25T09:44:38Z</time>
      </trkpt>
      <trkpt lat="45.81995" lon="4.81848">
        <ele>380</ele>
        <time>2011-11-25T09:44:39Z</time>
      </trkpt>
      <trkpt lat="45.81994" lon="4.81846">
        <ele>380</ele>
        <time>2011-11-25T09:44:40Z</time>
      </trkpt>
      <trkpt lat="45.81988" lon="4.81839">
        <ele>380</ele>
        <time>2011-11-25T09:44:43Z</time>
      </trkpt>
      <trkpt lat="45.81986" lon="4.81837">
        <ele>379</ele>
        <time>2011-11-25T09:44:44Z</time>
      </trkpt>
      <trkpt lat="45.81981" lon="4.81833">
        <ele>376</ele>
        <time>2011-11-25T09:44:46Z</time>
      </trkpt>
      <trkpt lat="45.81977" lon="4.81828">
        <ele>375</ele>
        <time>2011-11-25T09:44:48Z</time>
      </trkpt>
      <trkpt lat="45.81966" lon="4.81816">
        <ele>372</ele>
        <time>2011-11-25T09:44:53Z</time>
      </trkpt>
      <trkpt lat="45.81956" lon="4.818">
        <ele>370</ele>
        <time>2011-11-25T09:44:58Z</time>
      </trkpt>
      <trkpt lat="45.81952" lon="4.81796">
        <ele>370</ele>
        <time>2011-11-25T09:45:00Z</time>
      </trkpt>
      <trkpt lat="45.81948" lon="4.81791">
        <ele>369</ele>
        <time>2011-11-25T09:45:02Z</time>
      </trkpt>
      <trkpt lat="45.81938" lon="4.81777">
        <ele>368</ele>
        <time>2011-11-25T09:45:07Z</time>
      </trkpt>
      <trkpt lat="45.81935" lon="4.81775">
        <ele>367</ele>
        <time>2011-11-25T09:45:08Z</time>
      </trkpt>
      <trkpt lat="45.81925" lon="4.81763">
        <ele>366</ele>
        <time>2011-11-25T09:45:12Z</time>
      </trkpt>
      <trkpt lat="45.81924" lon="4.8176">
        <ele>365</ele>
        <time>2011-11-25T09:45:13Z</time>
      </trkpt>
      <trkpt lat="45.81914" lon="4.8175">
        <ele>361</ele>
        <time>2011-11-25T09:45:17Z</time>
      </trkpt>
      <trkpt lat="45.81907" lon="4.81744">
        <ele>359</ele>
        <time>2011-11-25T09:45:20Z</time>
      </trkpt>
      <trkpt lat="45.81905" lon="4.81742">
        <ele>359</ele>
        <time>2011-11-25T09:45:21Z</time>
      </trkpt>
      <trkpt lat="45.81896" lon="4.81728">
        <ele>356</ele>
        <time>2011-11-25T09:45:26Z</time>
      </trkpt>
      <trkpt lat="45.81894" lon="4.81725">
        <ele>356</ele>
        <time>2011-11-25T09:45:27Z</time>
      </trkpt>
      <trkpt lat="45.81884" lon="4.81716">
        <ele>355</ele>
        <time>2011-11-25T09:45:31Z</time>
      </trkpt>
      <trkpt lat="45.81876" lon="4.81712">
        <ele>354</ele>
        <time>2011-11-25T09:45:34Z</time>
      </trkpt>
      <trkpt lat="45.81874" lon="4.81714">
        <ele>354</ele>
        <time>2011-11-25T09:45:35Z</time>
      </trkpt>
      <trkpt lat="45.81873" lon="4.81718">
        <ele>354</ele>
        <time>2011-11-25T09:45:36Z</time>
      </trkpt>
      <trkpt lat="45.81869" lon="4.81737">
        <ele>354</ele>
        <time>2011-11-25T09:45:41Z</time>
      </trkpt>
      <trkpt lat="45.81868" lon="4.81741">
        <ele>354</ele>
        <time>2011-11-25T09:45:42Z</time>
      </trkpt>
      <trkpt lat="45.81864" lon="4.81765">
        <ele>354</ele>
        <time>2011-11-25T09:45:48Z</time>
      </trkpt>
      <trkpt lat="45.81861" lon="4.81783">
        <ele>354</ele>
        <time>2011-11-25T09:45:53Z</time>
      </trkpt>
      <trkpt lat="45.81859" lon="4.81792">
        <ele>354</ele>
        <time>2011-11-25T09:45:55Z</time>
      </trkpt>
      <trkpt lat="45.81856" lon="4.81801">
        <ele>353</ele>
        <time>2011-11-25T09:45:58Z</time>
      </trkpt>
      <trkpt lat="45.81846" lon="4.81806">
        <ele>353</ele>
        <time>2011-11-25T09:46:02Z</time>
      </trkpt>
      <trkpt lat="45.81834" lon="4.81808">
        <ele>352</ele>
        <time>2011-11-25T09:46:07Z</time>
      </trkpt>
      <trkpt lat="45.81832" lon="4.81808">
        <ele>346</ele>
        <time>2011-11-25T09:46:08Z</time>
      </trkpt>
      <trkpt lat="45.81832" lon="4.81813">
        <ele>346</ele>
        <time>2011-11-25T09:46:11Z</time>
      </trkpt>
      <trkpt lat="45.81834" lon="4.81815">
        <ele>351</ele>
        <time>2011-11-25T09:46:12Z</time>
      </trkpt>
      <trkpt lat="45.81838" lon="4.81819">
        <ele>351</ele>
        <time>2011-11-25T09:46:14Z</time>
      </trkpt>
      <trkpt lat="45.81842" lon="4.81823">
        <ele>351</ele>
        <time>2011-11-25T09:46:16Z</time>
      </trkpt>
      <trkpt lat="45.81848" lon="4.81834">
        <ele>351</ele>
        <time>2011-11-25T09:46:20Z</time>
      </trkpt>
      <trkpt lat="45.81855" lon="4.81857">
        <ele>353</ele>
        <time>2011-11-25T09:46:26Z</time>
      </trkpt>
      <trkpt lat="45.81855" lon="4.81861">
        <ele>353</ele>
        <time>2011-11-25T09:46:27Z</time>
      </trkpt>
      <trkpt lat="45.81856" lon="4.81877">
        <ele>354</ele>
        <time>2011-11-25T09:46:31Z</time>
      </trkpt>
      <trkpt lat="45.81855" lon="4.81887">
        <ele>353</ele>
        <time>2011-11-25T09:46:34Z</time>
      </trkpt>
      <trkpt lat="45.81853" lon="4.81892">
        <ele>353</ele>
        <time>2011-11-25T09:46:36Z</time>
      </trkpt>
      <trkpt lat="45.81851" lon="4.81908">
        <ele>352</ele>
        <time>2011-11-25T09:46:41Z</time>
      </trkpt>
      <trkpt lat="45.8185" lon="4.81914">
        <ele>352</ele>
        <time>2011-11-25T09:46:43Z</time>
      </trkpt>
      <trkpt lat="45.81847" lon="4.81924">
        <ele>353</ele>
        <time>2011-11-25T09:46:46Z</time>
      </trkpt>
      <trkpt lat="45.81846" lon="4.81931">
        <ele>354</ele>
        <time>2011-11-25T09:46:48Z</time>
      </trkpt>
      <trkpt lat="45.81844" lon="4.81936">
        <ele>354</ele>
        <time>2011-11-25T09:46:50Z</time>
      </trkpt>
      <trkpt lat="45.81843" lon="4.81939">
        <ele>354</ele>
        <time>2011-11-25T09:46:51Z</time>
      </trkpt>
      <trkpt lat="45.8184" lon="4.81949">
        <ele>355</ele>
        <time>2011-11-25T09:46:54Z</time>
      </trkpt>
      <trkpt lat="45.8184" lon="4.81952">
        <ele>355</ele>
        <time>2011-11-25T09:46:55Z</time>
      </trkpt>
      <trkpt lat="45.81838" lon="4.81966">
        <ele>356</ele>
        <time>2011-11-25T09:46:59Z</time>
      </trkpt>
      <trkpt lat="45.81837" lon="4.81973">
        <ele>356</ele>
        <time>2011-11-25T09:47:01Z</time>
      </trkpt>
      <trkpt lat="45.81835" lon="4.81992">
        <ele>355</ele>
        <time>2011-11-25T09:47:06Z</time>
      </trkpt>
      <trkpt lat="45.81835" lon="4.81995">
        <ele>355</ele>
        <time>2011-11-25T09:47:07Z</time>
      </trkpt>
      <trkpt lat="45.81835" lon="4.82014">
        <ele>357</ele>
        <time>2011-11-25T09:47:12Z</time>
      </trkpt>
      <trkpt lat="45.81835" lon="4.82021">
        <ele>358</ele>
        <time>2011-11-25T09:47:14Z</time>
      </trkpt>
      <trkpt lat="45.81836" lon="4.82032">
        <ele>359</ele>
        <time>2011-11-25T09:47:17Z</time>
      </trkpt>
      <trkpt lat="45.81839" lon="4.82049">
        <ele>360</ele>
        <time>2011-11-25T09:47:22Z</time>
      </trkpt>
      <trkpt lat="45.8184" lon="4.82053">
        <ele>360</ele>
        <time>2011-11-25T09:47:23Z</time>
      </trkpt>
      <trkpt lat="45.81846" lon="4.82073">
        <ele>360</ele>
        <time>2011-11-25T09:47:28Z</time>
      </trkpt>
      <trkpt lat="45.81847" lon="4.82076">
        <ele>360</ele>
        <time>2011-11-25T09:47:29Z</time>
      </trkpt>
      <trkpt lat="45.81851" lon="4.82092">
        <ele>360</ele>
        <time>2011-11-25T09:47:34Z</time>
      </trkpt>
      <trkpt lat="45.81854" lon="4.82103">
        <ele>361</ele>
        <time>2011-11-25T09:47:37Z</time>
      </trkpt>
      <trkpt lat="45.81854" lon="4.8211">
        <ele>361</ele>
        <time>2011-11-25T09:47:39Z</time>
      </trkpt>
      <trkpt lat="45.81856" lon="4.82129">
        <ele>361</ele>
        <time>2011-11-25T09:47:44Z</time>
      </trkpt>
      <trkpt lat="45.81859" lon="4.8215">
        <ele>361</ele>
        <time>2011-11-25T09:47:50Z</time>
      </trkpt>
      <trkpt lat="45.81859" lon="4.82157">
        <ele>361</ele>
        <time>2011-11-25T09:47:52Z</time>
      </trkpt>
      <trkpt lat="45.81862" lon="4.82167">
        <ele>358</ele>
        <time>2011-11-25T09:47:55Z</time>
      </trkpt>
      <trkpt lat="45.81867" lon="4.82183">
        <ele>359</ele>
        <time>2011-11-25T09:48:00Z</time>
      </trkpt>
      <trkpt lat="45.81875" lon="4.82198">
        <ele>359</ele>
        <time>2011-11-25T09:48:06Z</time>
      </trkpt>
      <trkpt lat="45.81879" lon="4.82203">
        <ele>359</ele>
        <time>2011-11-25T09:48:08Z</time>
      </trkpt>
      <trkpt lat="45.81883" lon="4.82209">
        <ele>359</ele>
        <time>2011-11-25T09:48:11Z</time>
      </trkpt>
      <trkpt lat="45.81891" lon="4.82224">
        <ele>359</ele>
        <time>2011-11-25T09:48:17Z</time>
      </trkpt>
      <trkpt lat="45.81897" lon="4.82242">
        <ele>359</ele>
        <time>2011-11-25T09:48:22Z</time>
      </trkpt>
      <trkpt lat="45.81899" lon="4.82249">
        <ele>359</ele>
        <time>2011-11-25T09:48:24Z</time>
      </trkpt>
      <trkpt lat="45.81902" lon="4.82258">
        <ele>357</ele>
        <time>2011-11-25T09:48:27Z</time>
      </trkpt>
      <trkpt lat="45.81907" lon="4.82271">
        <ele>356</ele>
        <time>2011-11-25T09:48:31Z</time>
      </trkpt>
      <trkpt lat="45.81907" lon="4.82275">
        <ele>356</ele>
        <time>2011-11-25T09:48:32Z</time>
      </trkpt>
      <trkpt lat="45.81912" lon="4.82291">
        <ele>355</ele>
        <time>2011-11-25T09:48:37Z</time>
      </trkpt>
      <trkpt lat="45.81914" lon="4.82297">
        <ele>355</ele>
        <time>2011-11-25T09:48:39Z</time>
      </trkpt>
      <trkpt lat="45.81916" lon="4.82309">
        <ele>354</ele>
        <time>2011-11-25T09:48:43Z</time>
      </trkpt>
      <trkpt lat="45.81917" lon="4.82317">
        <ele>360</ele>
        <time>2011-11-25T09:48:46Z</time>
      </trkpt>
      <trkpt lat="45.81918" lon="4.82319">
        <ele>359</ele>
        <time>2011-11-25T09:48:47Z</time>
      </trkpt>
      <trkpt lat="45.81919" lon="4.82323">
        <ele>359</ele>
        <time>2011-11-25T09:48:48Z</time>
      </trkpt>
      <trkpt lat="45.81926" lon="4.82338">
        <ele>356</ele>
        <time>2011-11-25T09:48:53Z</time>
      </trkpt>
      <trkpt lat="45.81929" lon="4.82347">
        <ele>357</ele>
        <time>2011-11-25T09:48:56Z</time>
      </trkpt>
      <trkpt lat="45.81933" lon="4.82357">
        <ele>357</ele>
        <time>2011-11-25T09:48:59Z</time>
      </trkpt>
      <trkpt lat="45.81937" lon="4.82373">
        <ele>357</ele>
        <time>2011-11-25T09:49:04Z</time>
      </trkpt>
      <trkpt lat="45.81941" lon="4.82389">
        <ele>356</ele>
        <time>2011-11-25T09:49:09Z</time>
      </trkpt>
      <trkpt lat="45.81944" lon="4.82396">
        <ele>356</ele>
        <time>2011-11-25T09:49:12Z</time>
      </trkpt>
      <trkpt lat="45.81945" lon="4.82399">
        <ele>356</ele>
        <time>2011-11-25T09:49:13Z</time>
      </trkpt>
      <trkpt lat="45.81945" lon="4.82401">
        <ele>356</ele>
        <time>2011-11-25T09:49:14Z</time>
      </trkpt>
      <trkpt lat="45.8195" lon="4.82417">
        <ele>356</ele>
        <time>2011-11-25T09:49:19Z</time>
      </trkpt>
      <trkpt lat="45.81951" lon="4.8242">
        <ele>353</ele>
        <time>2011-11-25T09:49:20Z</time>
      </trkpt>
      <trkpt lat="45.81951" lon="4.82423">
        <ele>353</ele>
        <time>2011-11-25T09:49:21Z</time>
      </trkpt>
      <trkpt lat="45.81958" lon="4.82433">
        <ele>354</ele>
        <time>2011-11-25T09:49:25Z</time>
      </trkpt>
      <trkpt lat="45.81965" lon="4.82442">
        <ele>354</ele>
        <time>2011-11-25T09:49:29Z</time>
      </trkpt>
      <trkpt lat="45.81968" lon="4.82446">
        <ele>354</ele>
        <time>2011-11-25T09:49:31Z</time>
      </trkpt>
      <trkpt lat="45.81977" lon="4.82455">
        <ele>354</ele>
        <time>2011-11-25T09:49:35Z</time>
      </trkpt>
      <trkpt lat="45.81979" lon="4.82458">
        <ele>354</ele>
        <time>2011-11-25T09:49:36Z</time>
      </trkpt>
      <trkpt lat="45.81984" lon="4.82464">
        <ele>354</ele>
        <time>2011-11-25T09:49:39Z</time>
      </trkpt>
      <trkpt lat="45.81994" lon="4.82477">
        <ele>355</ele>
        <time>2011-11-25T09:49:45Z</time>
      </trkpt>
      <trkpt lat="45.82003" lon="4.82489">
        <ele>359</ele>
        <time>2011-11-25T09:49:50Z</time>
      </trkpt>
      <trkpt lat="45.82004" lon="4.82492">
        <ele>359</ele>
        <time>2011-11-25T09:49:51Z</time>
      </trkpt>
      <trkpt lat="45.82003" lon="4.82497">
        <ele>357</ele>
        <time>2011-11-25T09:49:53Z</time>
      </trkpt>
      <trkpt lat="45.82002" lon="4.82499">
        <ele>357</ele>
        <time>2011-11-25T09:49:54Z</time>
      </trkpt>
      <trkpt lat="45.81996" lon="4.82506">
        <ele>354</ele>
        <time>2011-11-25T09:49:57Z</time>
      </trkpt>
      <trkpt lat="45.81992" lon="4.82513">
        <ele>351</ele>
        <time>2011-11-25T09:50:00Z</time>
      </trkpt>
      <trkpt lat="45.8199" lon="4.82516">
        <ele>351</ele>
        <time>2011-11-25T09:50:01Z</time>
      </trkpt>
      <trkpt lat="45.8198" lon="4.82529">
        <ele>348</ele>
        <time>2011-11-25T09:50:07Z</time>
      </trkpt>
      <trkpt lat="45.81976" lon="4.82533">
        <ele>347</ele>
        <time>2011-11-25T09:50:09Z</time>
      </trkpt>
      <trkpt lat="45.81972" lon="4.82541">
        <ele>346</ele>
        <time>2011-11-25T09:50:12Z</time>
      </trkpt>
      <trkpt lat="45.81964" lon="4.82553">
        <ele>345</ele>
        <time>2011-11-25T09:50:17Z</time>
      </trkpt>
      <trkpt lat="45.81956" lon="4.82563">
        <ele>344</ele>
        <time>2011-11-25T09:50:22Z</time>
      </trkpt>
      <trkpt lat="45.81951" lon="4.82572">
        <ele>343</ele>
        <time>2011-11-25T09:50:26Z</time>
      </trkpt>
      <trkpt lat="45.81951" lon="4.82573">
        <ele>343</ele>
        <time>2011-11-25T09:50:27Z</time>
      </trkpt>
      <trkpt lat="45.81952" lon="4.82575">
        <ele>343</ele>
        <time>2011-11-25T09:50:29Z</time>
      </trkpt>
      <trkpt lat="45.81955" lon="4.82577">
        <ele>343</ele>
        <time>2011-11-25T09:50:31Z</time>
      </trkpt>
      <trkpt lat="45.81958" lon="4.82585">
        <ele>334</ele>
        <time>2011-11-25T09:50:36Z</time>
      </trkpt>
      <trkpt lat="45.8196" lon="4.82587">
        <ele>335</ele>
        <time>2011-11-25T09:50:41Z</time>
      </trkpt>
      <trkpt lat="45.81961" lon="4.82587">
        <ele>335</ele>
        <time>2011-11-25T09:50:42Z</time>
      </trkpt>
      <trkpt lat="45.81959" lon="4.82589">
        <ele>334</ele>
        <time>2011-11-25T09:50:47Z</time>
      </trkpt>
      <trkpt lat="45.8196" lon="4.82591">
        <ele>334</ele>
        <time>2011-11-25T09:50:55Z</time>
      </trkpt>
      <trkpt lat="45.81964" lon="4.82593">
        <ele>335</ele>
        <time>2011-11-25T09:50:58Z</time>
      </trkpt>
      <trkpt lat="45.81976" lon="4.826">
        <ele>336</ele>
        <time>2011-11-25T09:51:03Z</time>
      </trkpt>
      <trkpt lat="45.81979" lon="4.82601">
        <ele>336</ele>
        <time>2011-11-25T09:51:04Z</time>
      </trkpt>
      <trkpt lat="45.81987" lon="4.82605">
        <ele>337</ele>
        <time>2011-11-25T09:51:08Z</time>
      </trkpt>
      <trkpt lat="45.81995" lon="4.82608">
        <ele>337</ele>
        <time>2011-11-25T09:51:12Z</time>
      </trkpt>
      <trkpt lat="45.81997" lon="4.8261">
        <ele>337</ele>
        <time>2011-11-25T09:51:13Z</time>
      </trkpt>
      <trkpt lat="45.81999" lon="4.82612">
        <ele>336</ele>
        <time>2011-11-25T09:51:14Z</time>
      </trkpt>
      <trkpt lat="45.82004" lon="4.82615">
        <ele>344</ele>
        <time>2011-11-25T09:51:16Z</time>
      </trkpt>
      <trkpt lat="45.82007" lon="4.82618">
        <ele>344</ele>
        <time>2011-11-25T09:51:18Z</time>
      </trkpt>
      <trkpt lat="45.82013" lon="4.82621">
        <ele>344</ele>
        <time>2011-11-25T09:51:21Z</time>
      </trkpt>
      <trkpt lat="45.82015" lon="4.82623">
        <ele>344</ele>
        <time>2011-11-25T09:51:22Z</time>
      </trkpt>
      <trkpt lat="45.82016" lon="4.82625">
        <ele>344</ele>
        <time>2011-11-25T09:51:23Z</time>
      </trkpt>
      <trkpt lat="45.82022" lon="4.82636">
        <ele>343</ele>
        <time>2011-11-25T09:51:27Z</time>
      </trkpt>
      <trkpt lat="45.82024" lon="4.82638">
        <ele>343</ele>
        <time>2011-11-25T09:51:28Z</time>
      </trkpt>
      <trkpt lat="45.82026" lon="4.82641">
        <ele>342</ele>
        <time>2011-11-25T09:51:29Z</time>
      </trkpt>
      <trkpt lat="45.82032" lon="4.82645">
        <ele>343</ele>
        <time>2011-11-25T09:51:31Z</time>
      </trkpt>
      <trkpt lat="45.82035" lon="4.82648">
        <ele>343</ele>
        <time>2011-11-25T09:51:32Z</time>
      </trkpt>
      <trkpt lat="45.82044" lon="4.82657">
        <ele>343</ele>
        <time>2011-11-25T09:51:36Z</time>
      </trkpt>
      <trkpt lat="45.82057" lon="4.82667">
        <ele>334</ele>
        <time>2011-11-25T09:51:42Z</time>
      </trkpt>
      <trkpt lat="45.82059" lon="4.82669">
        <ele>334</ele>
        <time>2011-11-25T09:51:43Z</time>
      </trkpt>
      <trkpt lat="45.82066" lon="4.82674">
        <ele>336</ele>
        <time>2011-11-25T09:51:46Z</time>
      </trkpt>
      <trkpt lat="45.82068" lon="4.82676">
        <ele>336</ele>
        <time>2011-11-25T09:51:47Z</time>
      </trkpt>
      <trkpt lat="45.82077" lon="4.82684">
        <ele>336</ele>
        <time>2011-11-25T09:51:51Z</time>
      </trkpt>
      <trkpt lat="45.82079" lon="4.82686">
        <ele>335</ele>
        <time>2011-11-25T09:51:52Z</time>
      </trkpt>
      <trkpt lat="45.82089" lon="4.82692">
        <ele>340</ele>
        <time>2011-11-25T09:51:56Z</time>
      </trkpt>
      <trkpt lat="45.82094" lon="4.82696">
        <ele>339</ele>
        <time>2011-11-25T09:51:59Z</time>
      </trkpt>
      <trkpt lat="45.82101" lon="4.82699">
        <ele>339</ele>
        <time>2011-11-25T09:52:02Z</time>
      </trkpt>
      <trkpt lat="45.82106" lon="4.82702">
        <ele>338</ele>
        <time>2011-11-25T09:52:04Z</time>
      </trkpt>
      <trkpt lat="45.82111" lon="4.82704">
        <ele>338</ele>
        <time>2011-11-25T09:52:06Z</time>
      </trkpt>
      <trkpt lat="45.82123" lon="4.82714">
        <ele>338</ele>
        <time>2011-11-25T09:52:11Z</time>
      </trkpt>
      <trkpt lat="45.82127" lon="4.82718">
        <ele>338</ele>
        <time>2011-11-25T09:52:13Z</time>
      </trkpt>
      <trkpt lat="45.82133" lon="4.82722">
        <ele>337</ele>
        <time>2011-11-25T09:52:16Z</time>
      </trkpt>
      <trkpt lat="45.82146" lon="4.82729">
        <ele>337</ele>
        <time>2011-11-25T09:52:21Z</time>
      </trkpt>
      <trkpt lat="45.82148" lon="4.8273">
        <ele>337</ele>
        <time>2011-11-25T09:52:22Z</time>
      </trkpt>
      <trkpt lat="45.82163" lon="4.82736">
        <ele>336</ele>
        <time>2011-11-25T09:52:28Z</time>
      </trkpt>
      <trkpt lat="45.82165" lon="4.82737">
        <ele>336</ele>
        <time>2011-11-25T09:52:29Z</time>
      </trkpt>
      <trkpt lat="45.82174" lon="4.82745">
        <ele>336</ele>
        <time>2011-11-25T09:52:33Z</time>
      </trkpt>
      <trkpt lat="45.82181" lon="4.82752">
        <ele>332</ele>
        <time>2011-11-25T09:52:36Z</time>
      </trkpt>
      <trkpt lat="45.82188" lon="4.82761">
        <ele>330</ele>
        <time>2011-11-25T09:52:39Z</time>
      </trkpt>
      <trkpt lat="45.82196" lon="4.82772">
        <ele>329</ele>
        <time>2011-11-25T09:52:43Z</time>
      </trkpt>
      <trkpt lat="45.82208" lon="4.82787">
        <ele>328</ele>
        <time>2011-11-25T09:52:49Z</time>
      </trkpt>
      <trkpt lat="45.8221" lon="4.82789">
        <ele>328</ele>
        <time>2011-11-25T09:52:50Z</time>
      </trkpt>
      <trkpt lat="45.82217" lon="4.82789">
        <ele>328</ele>
        <time>2011-11-25T09:52:53Z</time>
      </trkpt>
      <trkpt lat="45.82225" lon="4.8279">
        <ele>328</ele>
        <time>2011-11-25T09:52:57Z</time>
      </trkpt>
      <trkpt lat="45.82228" lon="4.82794">
        <ele>328</ele>
        <time>2011-11-25T09:52:59Z</time>
      </trkpt>
      <trkpt lat="45.82229" lon="4.82798">
        <ele>328</ele>
        <time>2011-11-25T09:53:01Z</time>
      </trkpt>
      <trkpt lat="45.8223" lon="4.82803">
        <ele>327</ele>
        <time>2011-11-25T09:53:03Z</time>
      </trkpt>
      <trkpt lat="45.8223" lon="4.82814">
        <ele>327</ele>
        <time>2011-11-25T09:53:06Z</time>
      </trkpt>
      <trkpt lat="45.82231" lon="4.82822">
        <ele>326</ele>
        <time>2011-11-25T09:53:08Z</time>
      </trkpt>
      <trkpt lat="45.82232" lon="4.82831">
        <ele>326</ele>
        <time>2011-11-25T09:53:10Z</time>
      </trkpt>
      <trkpt lat="45.82234" lon="4.82849">
        <ele>318</ele>
        <time>2011-11-25T09:53:15Z</time>
      </trkpt>
      <trkpt lat="45.82236" lon="4.82866">
        <ele>316</ele>
        <time>2011-11-25T09:53:20Z</time>
      </trkpt>
      <trkpt lat="45.82237" lon="4.82877">
        <ele>315</ele>
        <time>2011-11-25T09:53:23Z</time>
      </trkpt>
      <trkpt lat="45.82239" lon="4.82884">
        <ele>314</ele>
        <time>2011-11-25T09:53:25Z</time>
      </trkpt>
      <trkpt lat="45.8224" lon="4.829">
        <ele>313</ele>
        <time>2011-11-25T09:53:30Z</time>
      </trkpt>
      <trkpt lat="45.8224" lon="4.82905">
        <ele>312</ele>
        <time>2011-11-25T09:53:32Z</time>
      </trkpt>
      <trkpt lat="45.82236" lon="4.82917">
        <ele>306</ele>
        <time>2011-11-25T09:53:36Z</time>
      </trkpt>
      <trkpt lat="45.82227" lon="4.82918">
        <ele>304</ele>
        <time>2011-11-25T09:53:40Z</time>
      </trkpt>
      <trkpt lat="45.82224" lon="4.82917">
        <ele>304</ele>
        <time>2011-11-25T09:53:41Z</time>
      </trkpt>
      <trkpt lat="45.82218" lon="4.82915">
        <ele>312</ele>
        <time>2011-11-25T09:53:44Z</time>
      </trkpt>
      <trkpt lat="45.82215" lon="4.82914">
        <ele>312</ele>
        <time>2011-11-25T09:53:45Z</time>
      </trkpt>
      <trkpt lat="45.8221" lon="4.82912">
        <ele>312</ele>
        <time>2011-11-25T09:53:47Z</time>
      </trkpt>
      <trkpt lat="45.82203" lon="4.82912">
        <ele>312</ele>
        <time>2011-11-25T09:53:50Z</time>
      </trkpt>
      <trkpt lat="45.82189" lon="4.82908">
        <ele>311</ele>
        <time>2011-11-25T09:53:56Z</time>
      </trkpt>
      <trkpt lat="45.82187" lon="4.82908">
        <ele>310</ele>
        <time>2011-11-25T09:53:57Z</time>
      </trkpt>
      <trkpt lat="45.82171" lon="4.82902">
        <ele>309</ele>
        <time>2011-11-25T09:54:03Z</time>
      </trkpt>
      <trkpt lat="45.82169" lon="4.82902">
        <ele>309</ele>
        <time>2011-11-25T09:54:04Z</time>
      </trkpt>
      <trkpt lat="45.82158" lon="4.82899">
        <ele>307</ele>
        <time>2011-11-25T09:54:08Z</time>
      </trkpt>
      <trkpt lat="45.82153" lon="4.82899">
        <ele>307</ele>
        <time>2011-11-25T09:54:10Z</time>
      </trkpt>
      <trkpt lat="45.82147" lon="4.82897">
        <ele>307</ele>
        <time>2011-11-25T09:54:12Z</time>
      </trkpt>
      <trkpt lat="45.82142" lon="4.82895">
        <ele>307</ele>
        <time>2011-11-25T09:54:14Z</time>
      </trkpt>
      <trkpt lat="45.82135" lon="4.82895">
        <ele>306</ele>
        <time>2011-11-25T09:54:17Z</time>
      </trkpt>
      <trkpt lat="45.82132" lon="4.82894">
        <ele>306</ele>
        <time>2011-11-25T09:54:18Z</time>
      </trkpt>
      <trkpt lat="45.82121" lon="4.8289">
        <ele>306</ele>
        <time>2011-11-25T09:54:22Z</time>
      </trkpt>
      <trkpt lat="45.82114" lon="4.82887">
        <ele>306</ele>
        <time>2011-11-25T09:54:25Z</time>
      </trkpt>
      <trkpt lat="45.82111" lon="4.82886">
        <ele>306</ele>
        <time>2011-11-25T09:54:26Z</time>
      </trkpt>
      <trkpt lat="45.82097" lon="4.82881">
        <ele>305</ele>
        <time>2011-11-25T09:54:31Z</time>
      </trkpt>
      <trkpt lat="45.82094" lon="4.8288">
        <ele>305</ele>
        <time>2011-11-25T09:54:32Z</time>
      </trkpt>
      <trkpt lat="45.8208" lon="4.82876">
        <ele>300</ele>
        <time>2011-11-25T09:54:38Z</time>
      </trkpt>
      <trkpt lat="45.82074" lon="4.82875">
        <ele>299</ele>
        <time>2011-11-25T09:54:40Z</time>
      </trkpt>
      <trkpt lat="45.82065" lon="4.82872">
        <ele>299</ele>
        <time>2011-11-25T09:54:44Z</time>
      </trkpt>
      <trkpt lat="45.82054" lon="4.82867">
        <ele>299</ele>
        <time>2011-11-25T09:54:48Z</time>
      </trkpt>
      <trkpt lat="45.82051" lon="4.82867">
        <ele>299</ele>
        <time>2011-11-25T09:54:49Z</time>
      </trkpt>
      <trkpt lat="45.82036" lon="4.82868">
        <ele>298</ele>
        <time>2011-11-25T09:54:55Z</time>
      </trkpt>
      <trkpt lat="45.82018" lon="4.82868">
        <ele>297</ele>
        <time>2011-11-25T09:55:02Z</time>
      </trkpt>
      <trkpt lat="45.82" lon="4.82868">
        <ele>292</ele>
        <time>2011-11-25T09:55:09Z</time>
      </trkpt>
      <trkpt lat="45.81984" lon="4.82871">
        <ele>291</ele>
        <time>2011-11-25T09:55:15Z</time>
      </trkpt>
      <trkpt lat="45.81981" lon="4.82871">
        <ele>291</ele>
        <time>2011-11-25T09:55:16Z</time>
      </trkpt>
      <trkpt lat="45.81963" lon="4.82872">
        <ele>291</ele>
        <time>2011-11-25T09:55:23Z</time>
      </trkpt>
      <trkpt lat="45.81948" lon="4.82873">
        <ele>290</ele>
        <time>2011-11-25T09:55:29Z</time>
      </trkpt>
      <trkpt lat="45.81943" lon="4.82874">
        <ele>290</ele>
        <time>2011-11-25T09:55:31Z</time>
      </trkpt>
      <trkpt lat="45.81935" lon="4.82873">
        <ele>290</ele>
        <time>2011-11-25T09:55:34Z</time>
      </trkpt>
      <trkpt lat="45.81923" lon="4.82868">
        <ele>289</ele>
        <time>2011-11-25T09:55:39Z</time>
      </trkpt>
      <trkpt lat="45.81911" lon="4.82863">
        <ele>288</ele>
        <time>2011-11-25T09:55:44Z</time>
      </trkpt>
      <trkpt lat="45.81905" lon="4.82861">
        <ele>288</ele>
        <time>2011-11-25T09:55:47Z</time>
      </trkpt>
      <trkpt lat="45.81898" lon="4.82858">
        <ele>288</ele>
        <time>2011-11-25T09:55:50Z</time>
      </trkpt>
      <trkpt lat="45.81888" lon="4.82859">
        <ele>288</ele>
        <time>2011-11-25T09:55:54Z</time>
      </trkpt>
      <trkpt lat="45.81886" lon="4.8286">
        <ele>288</ele>
        <time>2011-11-25T09:55:55Z</time>
      </trkpt>
      <trkpt lat="45.81877" lon="4.8287">
        <ele>287</ele>
        <time>2011-11-25T09:55:59Z</time>
      </trkpt>
      <trkpt lat="45.81872" lon="4.82879">
        <ele>287</ele>
        <time>2011-11-25T09:56:02Z</time>
      </trkpt>
      <trkpt lat="45.81869" lon="4.82885">
        <ele>287</ele>
        <time>2011-11-25T09:56:04Z</time>
      </trkpt>
      <trkpt lat="45.8186" lon="4.82902">
        <ele>286</ele>
        <time>2011-11-25T09:56:10Z</time>
      </trkpt>
      <trkpt lat="45.81853" lon="4.82916">
        <ele>285</ele>
        <time>2011-11-25T09:56:15Z</time>
      </trkpt>
      <trkpt lat="45.81849" lon="4.82925">
        <ele>281</ele>
        <time>2011-11-25T09:56:18Z</time>
      </trkpt>
      <trkpt lat="45.81846" lon="4.8293">
        <ele>281</ele>
        <time>2011-11-25T09:56:20Z</time>
      </trkpt>
      <trkpt lat="45.81836" lon="4.82945">
        <ele>280</ele>
        <time>2011-11-25T09:56:26Z</time>
      </trkpt>
      <trkpt lat="45.81831" lon="4.82958">
        <ele>278</ele>
        <time>2011-11-25T09:56:30Z</time>
      </trkpt>
      <trkpt lat="45.81825" lon="4.82969">
        <ele>277</ele>
        <time>2011-11-25T09:56:34Z</time>
      </trkpt>
      <trkpt lat="45.8182" lon="4.82972">
        <ele>277</ele>
        <time>2011-11-25T09:56:36Z</time>
      </trkpt>
      <trkpt lat="45.81808" lon="4.82969">
        <ele>277</ele>
        <time>2011-11-25T09:56:41Z</time>
      </trkpt>
      <trkpt lat="45.81789" lon="4.82965">
        <ele>277</ele>
        <time>2011-11-25T09:56:48Z</time>
      </trkpt>
      <trkpt lat="45.81787" lon="4.82964">
        <ele>277</ele>
        <time>2011-11-25T09:56:49Z</time>
      </trkpt>
      <trkpt lat="45.81769" lon="4.82962">
        <ele>276</ele>
        <time>2011-11-25T09:56:56Z</time>
      </trkpt>
      <trkpt lat="45.81752" lon="4.82961">
        <ele>276</ele>
        <time>2011-11-25T09:57:03Z</time>
      </trkpt>
      <trkpt lat="45.81749" lon="4.82961">
        <ele>274</ele>
        <time>2011-11-25T09:57:04Z</time>
      </trkpt>
      <trkpt lat="45.81737" lon="4.82961">
        <ele>274</ele>
        <time>2011-11-25T09:57:09Z</time>
      </trkpt>
      <trkpt lat="45.81729" lon="4.8296">
        <ele>274</ele>
        <time>2011-11-25T09:57:12Z</time>
      </trkpt>
      <trkpt lat="45.81724" lon="4.82961">
        <ele>274</ele>
        <time>2011-11-25T09:57:14Z</time>
      </trkpt>
      <trkpt lat="45.81714" lon="4.82966">
        <ele>274</ele>
        <time>2011-11-25T09:57:18Z</time>
      </trkpt>
      <trkpt lat="45.81711" lon="4.82967">
        <ele>274</ele>
        <time>2011-11-25T09:57:19Z</time>
      </trkpt>
      <trkpt lat="45.81695" lon="4.82965">
        <ele>274</ele>
        <time>2011-11-25T09:57:25Z</time>
      </trkpt>
      <trkpt lat="45.81693" lon="4.82965">
        <ele>274</ele>
        <time>2011-11-25T09:57:26Z</time>
      </trkpt>
      <trkpt lat="45.81675" lon="4.82963">
        <ele>274</ele>
        <time>2011-11-25T09:57:33Z</time>
      </trkpt>
      <trkpt lat="45.81673" lon="4.82963">
        <ele>274</ele>
        <time>2011-11-25T09:57:34Z</time>
      </trkpt>
      <trkpt lat="45.8166" lon="4.82958">
        <ele>273</ele>
        <time>2011-11-25T09:57:39Z</time>
      </trkpt>
      <trkpt lat="45.81657" lon="4.82951">
        <ele>273</ele>
        <time>2011-11-25T09:57:41Z</time>
      </trkpt>
      <trkpt lat="45.81652" lon="4.82943">
        <ele>273</ele>
        <time>2011-11-25T09:57:44Z</time>
      </trkpt>
      <trkpt lat="45.81644" lon="4.82931">
        <ele>273</ele>
        <time>2011-11-25T09:57:49Z</time>
      </trkpt>
      <trkpt lat="45.81642" lon="4.82929">
        <ele>273</ele>
        <time>2011-11-25T09:57:50Z</time>
      </trkpt>
      <trkpt lat="45.81627" lon="4.82918">
        <ele>272</ele>
        <time>2011-11-25T09:57:56Z</time>
      </trkpt>
      <trkpt lat="45.81616" lon="4.82923">
        <ele>272</ele>
        <time>2011-11-25T09:58:00Z</time>
      </trkpt>
      <trkpt lat="45.81608" lon="4.82926">
        <ele>272</ele>
        <time>2011-11-25T09:58:03Z</time>
      </trkpt>
      <trkpt lat="45.81604" lon="4.82929">
        <ele>272</ele>
        <time>2011-11-25T09:58:05Z</time>
      </trkpt>
      <trkpt lat="45.81591" lon="4.82934">
        <ele>272</ele>
        <time>2011-11-25T09:58:10Z</time>
      </trkpt>
      <trkpt lat="45.8158" lon="4.8294">
        <ele>269</ele>
        <time>2011-11-25T09:58:15Z</time>
      </trkpt>
      <trkpt lat="45.81573" lon="4.82942">
        <ele>269</ele>
        <time>2011-11-25T09:58:18Z</time>
      </trkpt>
      <trkpt lat="45.81564" lon="4.82945">
        <ele>269</ele>
        <time>2011-11-25T09:58:22Z</time>
      </trkpt>
      <trkpt lat="45.81556" lon="4.82952">
        <ele>268</ele>
        <time>2011-11-25T09:58:26Z</time>
      </trkpt>
      <trkpt lat="45.81539" lon="4.82962">
        <ele>268</ele>
        <time>2011-11-25T09:58:33Z</time>
      </trkpt>
      <trkpt lat="45.81525" lon="4.82967">
        <ele>267</ele>
        <time>2011-11-25T09:58:39Z</time>
      </trkpt>
      <trkpt lat="45.81521" lon="4.82967">
        <ele>267</ele>
        <time>2011-11-25T09:58:41Z</time>
      </trkpt>
      <trkpt lat="45.8151" lon="4.82968">
        <ele>267</ele>
        <time>2011-11-25T09:58:45Z</time>
      </trkpt>
      <trkpt lat="45.81505" lon="4.82968">
        <ele>267</ele>
        <time>2011-11-25T09:58:47Z</time>
      </trkpt>
      <trkpt lat="45.81502" lon="4.82969">
        <ele>266</ele>
        <time>2011-11-25T09:58:48Z</time>
      </trkpt>
      <trkpt lat="45.815" lon="4.8297">
        <ele>265</ele>
        <time>2011-11-25T09:58:49Z</time>
      </trkpt>
      <trkpt lat="45.81482" lon="4.82973">
        <ele>264</ele>
        <time>2011-11-25T09:58:56Z</time>
      </trkpt>
      <trkpt lat="45.81471" lon="4.82973">
        <ele>264</ele>
        <time>2011-11-25T09:59:00Z</time>
      </trkpt>
      <trkpt lat="45.81462" lon="4.82974">
        <ele>264</ele>
        <time>2011-11-25T09:59:04Z</time>
      </trkpt>
      <trkpt lat="45.81457" lon="4.82975">
        <ele>264</ele>
        <time>2011-11-25T09:59:06Z</time>
      </trkpt>
      <trkpt lat="45.81442" lon="4.82977">
        <ele>264</ele>
        <time>2011-11-25T09:59:12Z</time>
      </trkpt>
      <trkpt lat="45.81425" lon="4.8298">
        <ele>264</ele>
        <time>2011-11-25T09:59:19Z</time>
      </trkpt>
      <trkpt lat="45.81422" lon="4.8298">
        <ele>264</ele>
        <time>2011-11-25T09:59:20Z</time>
      </trkpt>
      <trkpt lat="45.81408" lon="4.82981">
        <ele>263</ele>
        <time>2011-11-25T09:59:26Z</time>
      </trkpt>
      <trkpt lat="45.81403" lon="4.82983">
        <ele>263</ele>
        <time>2011-11-25T09:59:28Z</time>
      </trkpt>
      <trkpt lat="45.81394" lon="4.82986">
        <ele>263</ele>
        <time>2011-11-25T09:59:32Z</time>
      </trkpt>
      <trkpt lat="45.81384" lon="4.82989">
        <ele>263</ele>
        <time>2011-11-25T09:59:36Z</time>
      </trkpt>
      <trkpt lat="45.81381" lon="4.8299">
        <ele>263</ele>
        <time>2011-11-25T09:59:37Z</time>
      </trkpt>
      <trkpt lat="45.81366" lon="4.82995">
        <ele>263</ele>
        <time>2011-11-25T09:59:43Z</time>
      </trkpt>
      <trkpt lat="45.81363" lon="4.82996">
        <ele>263</ele>
        <time>2011-11-25T09:59:44Z</time>
      </trkpt>
      <trkpt lat="45.81349" lon="4.82999">
        <ele>263</ele>
        <time>2011-11-25T09:59:50Z</time>
      </trkpt>
      <trkpt lat="45.81346" lon="4.83">
        <ele>263</ele>
        <time>2011-11-25T09:59:51Z</time>
      </trkpt>
      <trkpt lat="45.81335" lon="4.83003">
        <ele>263</ele>
        <time>2011-11-25T09:59:55Z</time>
      </trkpt>
      <trkpt lat="45.81327" lon="4.83005">
        <ele>263</ele>
        <time>2011-11-25T09:59:58Z</time>
      </trkpt>
      <trkpt lat="45.81322" lon="4.83008">
        <ele>263</ele>
        <time>2011-11-25T10:00:00Z</time>
      </trkpt>
      <trkpt lat="45.8131" lon="4.83013">
        <ele>262</ele>
        <time>2011-11-25T10:00:05Z</time>
      </trkpt>
      <trkpt lat="45.81297" lon="4.83018">
        <ele>262</ele>
        <time>2011-11-25T10:00:10Z</time>
      </trkpt>
      <trkpt lat="45.81292" lon="4.83021">
        <ele>262</ele>
        <time>2011-11-25T10:00:12Z</time>
      </trkpt>
      <trkpt lat="45.81284" lon="4.83024">
        <ele>262</ele>
        <time>2011-11-25T10:00:15Z</time>
      </trkpt>
      <trkpt lat="45.81274" lon="4.83027">
        <ele>262</ele>
        <time>2011-11-25T10:00:19Z</time>
      </trkpt>
      <trkpt lat="45.81272" lon="4.83028">
        <ele>261</ele>
        <time>2011-11-25T10:00:20Z</time>
      </trkpt>
      <trkpt lat="45.81258" lon="4.83032">
        <ele>261</ele>
        <time>2011-11-25T10:00:26Z</time>
      </trkpt>
      <trkpt lat="45.81255" lon="4.83032">
        <ele>261</ele>
        <time>2011-11-25T10:00:27Z</time>
      </trkpt>
      <trkpt lat="45.81242" lon="4.8303">
        <ele>258</ele>
        <time>2011-11-25T10:00:32Z</time>
      </trkpt>
      <trkpt lat="45.81236" lon="4.8303">
        <ele>258</ele>
        <time>2011-11-25T10:00:34Z</time>
      </trkpt>
      <trkpt lat="45.81227" lon="4.8303">
        <ele>258</ele>
        <time>2011-11-25T10:00:38Z</time>
      </trkpt>
      <trkpt lat="45.81218" lon="4.83033">
        <ele>258</ele>
        <time>2011-11-25T10:00:41Z</time>
      </trkpt>
      <trkpt lat="45.8121" lon="4.83036">
        <ele>257</ele>
        <time>2011-11-25T10:00:44Z</time>
      </trkpt>
      <trkpt lat="45.812" lon="4.8304">
        <ele>257</ele>
        <time>2011-11-25T10:00:48Z</time>
      </trkpt>
      <trkpt lat="45.81198" lon="4.83041">
        <ele>257</ele>
        <time>2011-11-25T10:00:49Z</time>
      </trkpt>
      <trkpt lat="45.81183" lon="4.83045">
        <ele>256</ele>
        <time>2011-11-25T10:00:55Z</time>
      </trkpt>
      <trkpt lat="45.81181" lon="4.83046">
        <ele>256</ele>
        <time>2011-11-25T10:00:56Z</time>
      </trkpt>
      <trkpt lat="45.81167" lon="4.83048">
        <ele>256</ele>
        <time>2011-11-25T10:01:01Z</time>
      </trkpt>
      <trkpt lat="45.81162" lon="4.8305">
        <ele>253</ele>
        <time>2011-11-25T10:01:03Z</time>
      </trkpt>
      <trkpt lat="45.81153" lon="4.83051">
        <ele>253</ele>
        <time>2011-11-25T10:01:06Z</time>
      </trkpt>
      <trkpt lat="45.81143" lon="4.83051">
        <ele>253</ele>
        <time>2011-11-25T10:01:10Z</time>
      </trkpt>
      <trkpt lat="45.81138" lon="4.83051">
        <ele>253</ele>
        <time>2011-11-25T10:01:12Z</time>
      </trkpt>
      <trkpt lat="45.81124" lon="4.83054">
        <ele>253</ele>
        <time>2011-11-25T10:01:17Z</time>
      </trkpt>
      <trkpt lat="45.8112" lon="4.83054">
        <ele>253</ele>
        <time>2011-11-25T10:01:19Z</time>
      </trkpt>
      <trkpt lat="45.81107" lon="4.83057">
        <ele>253</ele>
        <time>2011-11-25T10:01:24Z</time>
      </trkpt>
      <trkpt lat="45.81105" lon="4.83058">
        <ele>252</ele>
        <time>2011-11-25T10:01:25Z</time>
      </trkpt>
      <trkpt lat="45.81091" lon="4.83059">
        <ele>252</ele>
        <time>2011-11-25T10:01:30Z</time>
      </trkpt>
      <trkpt lat="45.81086" lon="4.83061">
        <ele>252</ele>
        <time>2011-11-25T10:01:32Z</time>
      </trkpt>
      <trkpt lat="45.81078" lon="4.83063">
        <ele>251</ele>
        <time>2011-11-25T10:01:35Z</time>
      </trkpt>
      <trkpt lat="45.81068" lon="4.83066">
        <ele>251</ele>
        <time>2011-11-25T10:01:39Z</time>
      </trkpt>
      <trkpt lat="45.8106" lon="4.83067">
        <ele>251</ele>
        <time>2011-11-25T10:01:42Z</time>
      </trkpt>
      <trkpt lat="45.81047" lon="4.83067">
        <ele>251</ele>
        <time>2011-11-25T10:01:47Z</time>
      </trkpt>
      <trkpt lat="45.81042" lon="4.83067">
        <ele>251</ele>
        <time>2011-11-25T10:01:49Z</time>
      </trkpt>
      <trkpt lat="45.81034" lon="4.83064">
        <ele>251</ele>
        <time>2011-11-25T10:01:52Z</time>
      </trkpt>
      <trkpt lat="45.8103" lon="4.83058">
        <ele>250</ele>
        <time>2011-11-25T10:01:54Z</time>
      </trkpt>
      <trkpt lat="45.81024" lon="4.83038">
        <ele>250</ele>
        <time>2011-11-25T10:02:00Z</time>
      </trkpt>
      <trkpt lat="45.81023" lon="4.83034">
        <ele>250</ele>
        <time>2011-11-25T10:02:01Z</time>
      </trkpt>
      <trkpt lat="45.81021" lon="4.83017">
        <ele>250</ele>
        <time>2011-11-25T10:02:05Z</time>
      </trkpt>
      <trkpt lat="45.81021" lon="4.83006">
        <ele>250</ele>
        <time>2011-11-25T10:02:08Z</time>
      </trkpt>
      <trkpt lat="45.81023" lon="4.82992">
        <ele>250</ele>
        <time>2011-11-25T10:02:12Z</time>
      </trkpt>
      <trkpt lat="45.81022" lon="4.8299">
        <ele>250</ele>
        <time>2011-11-25T10:02:13Z</time>
      </trkpt>
      <trkpt lat="45.81016" lon="4.82987">
        <ele>250</ele>
        <time>2011-11-25T10:02:16Z</time>
      </trkpt>
      <trkpt lat="45.8101" lon="4.82988">
        <ele>250</ele>
        <time>2011-11-25T10:02:18Z</time>
      </trkpt>
      <trkpt lat="45.81002" lon="4.82988">
        <ele>250</ele>
        <time>2011-11-25T10:02:21Z</time>
      </trkpt>
      <trkpt lat="45.80996" lon="4.82988">
        <ele>249</ele>
        <time>2011-11-25T10:02:23Z</time>
      </trkpt>
      <trkpt lat="45.80982" lon="4.82988">
        <ele>249</ele>
        <time>2011-11-25T10:02:28Z</time>
      </trkpt>
      <trkpt lat="45.80977" lon="4.82987">
        <ele>249</ele>
        <time>2011-11-25T10:02:30Z</time>
      </trkpt>
      <trkpt lat="45.80965" lon="4.82988">
        <ele>249</ele>
        <time>2011-11-25T10:02:34Z</time>
      </trkpt>
      <trkpt lat="45.80958" lon="4.8299">
        <ele>249</ele>
        <time>2011-11-25T10:02:37Z</time>
      </trkpt>
      <trkpt lat="45.80947" lon="4.82992">
        <ele>249</ele>
        <time>2011-11-25T10:02:41Z</time>
      </trkpt>
      <trkpt lat="45.80937" lon="4.82992">
        <ele>249</ele>
        <time>2011-11-25T10:02:45Z</time>
      </trkpt>
      <trkpt lat="45.80923" lon="4.82987">
        <ele>249</ele>
        <time>2011-11-25T10:02:50Z</time>
      </trkpt>
      <trkpt lat="45.80918" lon="4.82987">
        <ele>249</ele>
        <time>2011-11-25T10:02:52Z</time>
      </trkpt>
      <trkpt lat="45.80905" lon="4.82984">
        <ele>247</ele>
        <time>2011-11-25T10:02:57Z</time>
      </trkpt>
      <trkpt lat="45.809" lon="4.82983">
        <ele>247</ele>
        <time>2011-11-25T10:02:59Z</time>
      </trkpt>
      <trkpt lat="45.80895" lon="4.82981">
        <ele>247</ele>
        <time>2011-11-25T10:03:01Z</time>
      </trkpt>
      <trkpt lat="45.80882" lon="4.82976">
        <ele>246</ele>
        <time>2011-11-25T10:03:06Z</time>
      </trkpt>
      <trkpt lat="45.80877" lon="4.82973">
        <ele>246</ele>
        <time>2011-11-25T10:03:08Z</time>
      </trkpt>
      <trkpt lat="45.80865" lon="4.82969">
        <ele>246</ele>
        <time>2011-11-25T10:03:13Z</time>
      </trkpt>
      <trkpt lat="45.80862" lon="4.82968">
        <ele>246</ele>
        <time>2011-11-25T10:03:14Z</time>
      </trkpt>
      <trkpt lat="45.80847" lon="4.82963">
        <ele>246</ele>
        <time>2011-11-25T10:03:20Z</time>
      </trkpt>
      <trkpt lat="45.80832" lon="4.82959">
        <ele>244</ele>
        <time>2011-11-25T10:03:26Z</time>
      </trkpt>
      <trkpt lat="45.80827" lon="4.82957">
        <ele>244</ele>
        <time>2011-11-25T10:03:28Z</time>
      </trkpt>
      <trkpt lat="45.80817" lon="4.82955">
        <ele>244</ele>
        <time>2011-11-25T10:03:32Z</time>
      </trkpt>
      <trkpt lat="45.80809" lon="4.82953">
        <ele>244</ele>
        <time>2011-11-25T10:03:35Z</time>
      </trkpt>
      <trkpt lat="45.80804" lon="4.82951">
        <ele>244</ele>
        <time>2011-11-25T10:03:37Z</time>
      </trkpt>
      <trkpt lat="45.80797" lon="4.82951">
        <ele>244</ele>
        <time>2011-11-25T10:03:40Z</time>
      </trkpt>
      <trkpt lat="45.80794" lon="4.8295">
        <ele>244</ele>
        <time>2011-11-25T10:03:41Z</time>
      </trkpt>
      <trkpt lat="45.8079" lon="4.82947">
        <ele>244</ele>
        <time>2011-11-25T10:03:43Z</time>
      </trkpt>
      <trkpt lat="45.8078" lon="4.8294">
        <ele>244</ele>
        <time>2011-11-25T10:03:47Z</time>
      </trkpt>
      <trkpt lat="45.80773" lon="4.82935">
        <ele>244</ele>
        <time>2011-11-25T10:03:50Z</time>
      </trkpt>
      <trkpt lat="45.80768" lon="4.82933">
        <ele>243</ele>
        <time>2011-11-25T10:03:52Z</time>
      </trkpt>
      <trkpt lat="45.80758" lon="4.82927">
        <ele>243</ele>
        <time>2011-11-25T10:03:56Z</time>
      </trkpt>
      <trkpt lat="45.80755" lon="4.82925">
        <ele>243</ele>
        <time>2011-11-25T10:03:57Z</time>
      </trkpt>
      <trkpt lat="45.80743" lon="4.82918">
        <ele>242</ele>
        <time>2011-11-25T10:04:01Z</time>
      </trkpt>
      <trkpt lat="45.80736" lon="4.82918">
        <ele>243</ele>
        <time>2011-11-25T10:04:04Z</time>
      </trkpt>
      <trkpt lat="45.80734" lon="4.82919">
        <ele>243</ele>
        <time>2011-11-25T10:04:06Z</time>
      </trkpt>
      <trkpt lat="45.80731" lon="4.82918">
        <ele>243</ele>
        <time>2011-11-25T10:04:08Z</time>
      </trkpt>
      <trkpt lat="45.80725" lon="4.82912">
        <ele>241</ele>
        <time>2011-11-25T10:04:10Z</time>
      </trkpt>
      <trkpt lat="45.80719" lon="4.82909">
        <ele>241</ele>
        <time>2011-11-25T10:04:12Z</time>
      </trkpt>
      <trkpt lat="45.80707" lon="4.82904">
        <ele>241</ele>
        <time>2011-11-25T10:04:16Z</time>
      </trkpt>
      <trkpt lat="45.80701" lon="4.82901">
        <ele>241</ele>
        <time>2011-11-25T10:04:18Z</time>
      </trkpt>
      <trkpt lat="45.80691" lon="4.82899">
        <ele>241</ele>
        <time>2011-11-25T10:04:22Z</time>
      </trkpt>
      <trkpt lat="45.80683" lon="4.82897">
        <ele>241</ele>
        <time>2011-11-25T10:04:25Z</time>
      </trkpt>
      <trkpt lat="45.80678" lon="4.82897">
        <ele>241</ele>
        <time>2011-11-25T10:04:27Z</time>
      </trkpt>
      <trkpt lat="45.80664" lon="4.82897">
        <ele>239</ele>
        <time>2011-11-25T10:04:32Z</time>
      </trkpt>
      <trkpt lat="45.80662" lon="4.82899">
        <ele>239</ele>
        <time>2011-11-25T10:04:33Z</time>
      </trkpt>
      <trkpt lat="45.80645" lon="4.82906">
        <ele>239</ele>
        <time>2011-11-25T10:04:40Z</time>
      </trkpt>
      <trkpt lat="45.80643" lon="4.82906">
        <ele>239</ele>
        <time>2011-11-25T10:04:41Z</time>
      </trkpt>
      <trkpt lat="45.80628" lon="4.82912">
        <ele>238</ele>
        <time>2011-11-25T10:04:48Z</time>
      </trkpt>
      <trkpt lat="45.80617" lon="4.82918">
        <ele>241</ele>
        <time>2011-11-25T10:04:52Z</time>
      </trkpt>
      <trkpt lat="45.80611" lon="4.82921">
        <ele>241</ele>
        <time>2011-11-25T10:04:55Z</time>
      </trkpt>
      <trkpt lat="45.80605" lon="4.82922">
        <ele>241</ele>
        <time>2011-11-25T10:04:57Z</time>
      </trkpt>
      <trkpt lat="45.80592" lon="4.82927">
        <ele>240</ele>
        <time>2011-11-25T10:05:02Z</time>
      </trkpt>
      <trkpt lat="45.80589" lon="4.82928">
        <ele>240</ele>
        <time>2011-11-25T10:05:03Z</time>
      </trkpt>
      <trkpt lat="45.80573" lon="4.82934">
        <ele>240</ele>
        <time>2011-11-25T10:05:09Z</time>
      </trkpt>
      <trkpt lat="45.8056" lon="4.8294">
        <ele>240</ele>
        <time>2011-11-25T10:05:14Z</time>
      </trkpt>
      <trkpt lat="45.80555" lon="4.82942">
        <ele>240</ele>
        <time>2011-11-25T10:05:16Z</time>
      </trkpt>
      <trkpt lat="45.80544" lon="4.82946">
        <ele>240</ele>
        <time>2011-11-25T10:05:20Z</time>
      </trkpt>
      <trkpt lat="45.80536" lon="4.82946">
        <ele>240</ele>
        <time>2011-11-25T10:05:23Z</time>
      </trkpt>
      <trkpt lat="45.80528" lon="4.82944">
        <ele>240</ele>
        <time>2011-11-25T10:05:26Z</time>
      </trkpt>
      <trkpt lat="45.80517" lon="4.82945">
        <ele>240</ele>
        <time>2011-11-25T10:05:30Z</time>
      </trkpt>
      <trkpt lat="45.80513" lon="4.82945">
        <ele>240</ele>
        <time>2011-11-25T10:05:31Z</time>
      </trkpt>
      <trkpt lat="45.80499" lon="4.82945">
        <ele>240</ele>
        <time>2011-11-25T10:05:36Z</time>
      </trkpt>
      <trkpt lat="45.80496" lon="4.82946">
        <ele>240</ele>
        <time>2011-11-25T10:05:37Z</time>
      </trkpt>
      <trkpt lat="45.8048" lon="4.82948">
        <ele>240</ele>
        <time>2011-11-25T10:05:42Z</time>
      </trkpt>
      <trkpt lat="45.80477" lon="4.82948">
        <ele>240</ele>
        <time>2011-11-25T10:05:43Z</time>
      </trkpt>
      <trkpt lat="45.80463" lon="4.8295">
        <ele>240</ele>
        <time>2011-11-25T10:05:48Z</time>
      </trkpt>
      <trkpt lat="45.8046" lon="4.82951">
        <ele>240</ele>
        <time>2011-11-25T10:05:49Z</time>
      </trkpt>
      <trkpt lat="45.80449" lon="4.82953">
        <ele>240</ele>
        <time>2011-11-25T10:05:53Z</time>
      </trkpt>
      <trkpt lat="45.80441" lon="4.82959">
        <ele>241</ele>
        <time>2011-11-25T10:05:57Z</time>
      </trkpt>
      <trkpt lat="45.80439" lon="4.82961">
        <ele>241</ele>
        <time>2011-11-25T10:05:58Z</time>
      </trkpt>
      <trkpt lat="45.80434" lon="4.82975">
        <ele>241</ele>
        <time>2011-11-25T10:06:02Z</time>
      </trkpt>
      <trkpt lat="45.80433" lon="4.82978">
        <ele>241</ele>
        <time>2011-11-25T10:06:03Z</time>
      </trkpt>
      <trkpt lat="45.80433" lon="4.82983">
        <ele>241</ele>
        <time>2011-11-25T10:06:04Z</time>
      </trkpt>
      <trkpt lat="45.80429" lon="4.83002">
        <ele>242</ele>
        <time>2011-11-25T10:06:09Z</time>
      </trkpt>
      <trkpt lat="45.80427" lon="4.8301">
        <ele>242</ele>
        <time>2011-11-25T10:06:11Z</time>
      </trkpt>
      <trkpt lat="45.80422" lon="4.83029">
        <ele>242</ele>
        <time>2011-11-25T10:06:16Z</time>
      </trkpt>
      <trkpt lat="45.80419" lon="4.83037">
        <ele>242</ele>
        <time>2011-11-25T10:06:18Z</time>
      </trkpt>
      <trkpt lat="45.80416" lon="4.8305">
        <ele>240</ele>
        <time>2011-11-25T10:06:21Z</time>
      </trkpt>
      <trkpt lat="45.80412" lon="4.83062">
        <ele>240</ele>
        <time>2011-11-25T10:06:24Z</time>
      </trkpt>
      <trkpt lat="45.8041" lon="4.83069">
        <ele>240</ele>
        <time>2011-11-25T10:06:26Z</time>
      </trkpt>
      <trkpt lat="45.80405" lon="4.83086">
        <ele>239</ele>
        <time>2011-11-25T10:06:30Z</time>
      </trkpt>
      <trkpt lat="45.80402" lon="4.83094">
        <ele>239</ele>
        <time>2011-11-25T10:06:32Z</time>
      </trkpt>
      <trkpt lat="45.80397" lon="4.83109">
        <ele>238</ele>
        <time>2011-11-25T10:06:36Z</time>
      </trkpt>
      <trkpt lat="45.80395" lon="4.83116">
        <ele>238</ele>
        <time>2011-11-25T10:06:38Z</time>
      </trkpt>
      <trkpt lat="45.80397" lon="4.83127">
        <ele>238</ele>
        <time>2011-11-25T10:06:41Z</time>
      </trkpt>
    </trkseg>
  </trk>
</gpx>